<?xml version='1.0' encoding='UTF-8'?><gpx version="1.1" creator="JPX - https://github.com/jenetics/jpx" xmlns="http://www.topografix.com/GPX/1/1"><trk><trkseg><trkpt lat="43.086607072377085" lon="10.632836646952224"><ele>345.0</ele><time>2026-05-03T09:11:31.02Z</time></trkpt><trkpt lat="43.08659339035573" lon="10.632740829908746"><ele>348.0</ele><time>2026-05-03T09:11:34.02Z</time></trkpt><trkpt lat="43.0866151380869" lon="10.632648099485964"><ele>351.0</ele><time>2026-05-03T09:11:37.02Z</time></trkpt><trkpt lat="43.08662527373808" lon="10.632530483767235"><ele>354.0</ele><time>2026-05-03T09:11:45.02Z</time></trkpt><trkpt lat="43.0866833067452" lon="10.632431335586409"><ele>357.0</ele><time>2026-05-03T09:11:47.02Z</time></trkpt><trkpt lat="43.08675004792552" lon="10.632281509596796"><ele>357.0</ele><time>2026-05-03T09:11:49.02Z</time></trkpt><trkpt lat="43.08679723071854" lon="10.63217697297284"><ele>357.0</ele><time>2026-05-03T09:11:51.02Z</time></trkpt><trkpt lat="43.08678142935178" lon="10.632087070829607"><ele>357.0</ele><time>2026-05-03T09:11:57.02Z</time></trkpt><trkpt lat="43.08681901698588" lon="10.632001148606163"><ele>357.0</ele><time>2026-05-03T09:12:01.018Z</time></trkpt><trkpt lat="43.08687217982583" lon="10.631908985312881"><ele>357.0</ele><time>2026-05-03T09:12:04.019Z</time></trkpt><trkpt lat="43.08688850208673" lon="10.63181643831863"><ele>357.0</ele><time>2026-05-03T09:12:07.019Z</time></trkpt><trkpt lat="43.08690753285434" lon="10.631725906257666"><ele>357.0</ele><time>2026-05-03T09:12:16.019Z</time></trkpt><trkpt lat="43.08694754446279" lon="10.631648933948776"><ele>357.0</ele><time>2026-05-03T09:12:38.019Z</time></trkpt><trkpt lat="43.086921741032526" lon="10.631745333404682"><ele>357.0</ele><time>2026-05-03T09:12:42.019Z</time></trkpt><trkpt lat="43.086879288522546" lon="10.631831280452074"><ele>357.0</ele><time>2026-05-03T09:12:44.019Z</time></trkpt><trkpt lat="43.08686816809814" lon="10.63192658398994"><ele>357.0</ele><time>2026-05-03T09:12:53.019Z</time></trkpt><trkpt lat="43.08681399975467" lon="10.632018827175541"><ele>357.0</ele><time>2026-05-03T09:12:56.019Z</time></trkpt><trkpt lat="43.086768895859265" lon="10.632114915577459"><ele>357.0</ele><time>2026-05-03T09:12:59.019Z</time></trkpt><trkpt lat="43.086733187454556" lon="10.632217903374647"><ele>357.0</ele><time>2026-05-03T09:13:02.019Z</time></trkpt><trkpt lat="43.08673326705197" lon="10.632332999935786"><ele>357.0</ele><time>2026-05-03T09:13:05.019Z</time></trkpt><trkpt lat="43.08675248153818" lon="10.632464344075828"><ele>357.0</ele><time>2026-05-03T09:13:07.02Z</time></trkpt><trkpt lat="43.086763352618455" lon="10.632586275829969"><ele>357.0</ele><time>2026-05-03T09:13:09.02Z</time></trkpt><trkpt lat="43.086815861846844" lon="10.632688841144232"><ele>357.0</ele><time>2026-05-03T09:13:12.02Z</time></trkpt><trkpt lat="43.086833466352644" lon="10.632793560216665"><ele>354.85714285714283</ele><time>2026-05-03T09:13:15.02Z</time></trkpt><trkpt lat="43.08685994658569" lon="10.632872118839344"><ele>352.7142857142857</ele><time>2026-05-03T09:13:17.02Z</time></trkpt><trkpt lat="43.08685344142776" lon="10.63297067088523"><ele>350.57142857142856</ele><time>2026-05-03T09:13:20.02Z</time></trkpt><trkpt lat="43.08687288178659" lon="10.63305309454187"><ele>348.42857142857144</ele><time>2026-05-03T09:13:25.02Z</time></trkpt><trkpt lat="43.08686795078151" lon="10.633169590373214"><ele>346.2857142857143</ele><time>2026-05-03T09:13:35.02Z</time></trkpt><trkpt lat="43.08689245359114" lon="10.633249595860791"><ele>344.1428571428571</ele><time>2026-05-03T09:13:39.02Z</time></trkpt><trkpt lat="43.08694589189061" lon="10.63333324488561"><ele>342.0</ele><time>2026-05-03T09:13:41.02Z</time></trkpt><trkpt lat="43.08700635171097" lon="10.633419414187047"><ele>342.0</ele><time>2026-05-03T09:13:43.02Z</time></trkpt><trkpt lat="43.0870333786444" lon="10.633541953238803"><ele>342.0</ele><time>2026-05-03T09:13:45.02Z</time></trkpt><trkpt lat="43.08705044699513" lon="10.63364358643442"><ele>342.0</ele><time>2026-05-03T09:13:48.02Z</time></trkpt><trkpt lat="43.08708885718264" lon="10.633742845480374"><ele>342.0</ele><time>2026-05-03T09:13:51.02Z</time></trkpt><trkpt lat="43.087145139896414" lon="10.633823780511369"><ele>342.0</ele><time>2026-05-03T09:13:53.02Z</time></trkpt><trkpt lat="43.08716169453368" lon="10.633972478983482"><ele>342.0</ele><time>2026-05-03T09:14:03.021Z</time></trkpt><trkpt lat="43.087209017141724" lon="10.634066944137336"><ele>342.8</ele><time>2026-05-03T09:14:05.02Z</time></trkpt><trkpt lat="43.087254739203495" lon="10.634214504221541"><ele>343.6</ele><time>2026-05-03T09:14:07.021Z</time></trkpt><trkpt lat="43.087297874701186" lon="10.634324793028226"><ele>344.40000000000003</ele><time>2026-05-03T09:14:10.02Z</time></trkpt><trkpt lat="43.087347593624315" lon="10.634414354820473"><ele>345.20000000000005</ele><time>2026-05-03T09:14:12.02Z</time></trkpt><trkpt lat="43.08736662401287" lon="10.634524263378363"><ele>346.0</ele><time>2026-05-03T09:14:18.021Z</time></trkpt><trkpt lat="43.087419225099254" lon="10.634610408039833"><ele>336.0</ele><time>2026-05-03T09:14:20.021Z</time></trkpt><trkpt lat="43.08745065661794" lon="10.63468522374915"><ele>326.0</ele><time>2026-05-03T09:14:22.021Z</time></trkpt><trkpt lat="43.08749169540803" lon="10.634774532014237"><ele>316.0</ele><time>2026-05-03T09:14:25.021Z</time></trkpt><trkpt lat="43.08755549308418" lon="10.634867408197547"><ele>306.0</ele><time>2026-05-03T09:14:28.021Z</time></trkpt><trkpt lat="43.08760821693547" lon="10.634985663932596"><ele>296.0</ele><time>2026-05-03T09:14:30.021Z</time></trkpt><trkpt lat="43.08767166670943" lon="10.635121548089272"><ele>296.0</ele><time>2026-05-03T09:14:32.021Z</time></trkpt><trkpt lat="43.087699082917034" lon="10.635232554195134"><ele>296.0</ele><time>2026-05-03T09:14:38.021Z</time></trkpt><trkpt lat="43.08775877733464" lon="10.635288926257365"><ele>296.0</ele><time>2026-05-03T09:14:41.021Z</time></trkpt><trkpt lat="43.087828718456265" lon="10.635333396885768"><ele>296.0</ele><time>2026-05-03T09:14:45.021Z</time></trkpt><trkpt lat="43.087891623361216" lon="10.635358975664726"><ele>296.0</ele><time>2026-05-03T09:14:48.021Z</time></trkpt><trkpt lat="43.08797447744661" lon="10.63537946519884"><ele>296.0</ele><time>2026-05-03T09:14:51.021Z</time></trkpt><trkpt lat="43.08805999393194" lon="10.635387447105686"><ele>297.14285714285717</ele><time>2026-05-03T09:14:54.021Z</time></trkpt><trkpt lat="43.08812910508599" lon="10.635395954454566"><ele>298.2857142857143</ele><time>2026-05-03T09:14:57.021Z</time></trkpt><trkpt lat="43.08820549234159" lon="10.635412666944305"><ele>299.42857142857144</ele><time>2026-05-03T09:15:00.021Z</time></trkpt><trkpt lat="43.08824425875848" lon="10.635481743351637"><ele>300.57142857142856</ele><time>2026-05-03T09:15:04.021Z</time></trkpt><trkpt lat="43.0882524522593" lon="10.635381470462251"><ele>301.7142857142857</ele><time>2026-05-03T09:15:20.022Z</time></trkpt><trkpt lat="43.08831814483056" lon="10.635364858144092"><ele>302.85714285714283</ele><time>2026-05-03T09:15:51.022Z</time></trkpt><trkpt lat="43.088378387633526" lon="10.635390281290286"><ele>304.0</ele><time>2026-05-03T09:15:56.023Z</time></trkpt><trkpt lat="43.08845841146399" lon="10.635433119983523"><ele>298.4285714285714</ele><time>2026-05-03T09:16:01.023Z</time></trkpt><trkpt lat="43.088515382932755" lon="10.635489407476342"><ele>292.8571428571429</ele><time>2026-05-03T09:16:05.023Z</time></trkpt><trkpt lat="43.08855013516377" lon="10.635581437128835"><ele>287.2857142857143</ele><time>2026-05-03T09:16:09.023Z</time></trkpt><trkpt lat="43.088577529185244" lon="10.635661903571043"><ele>281.71428571428567</ele><time>2026-05-03T09:16:12.021Z</time></trkpt><trkpt lat="43.088622393379225" lon="10.635763455126341"><ele>276.1428571428571</ele><time>2026-05-03T09:16:16.022Z</time></trkpt><trkpt lat="43.08868038579992" lon="10.635839630397026"><ele>270.57142857142856</ele><time>2026-05-03T09:16:20.022Z</time></trkpt><trkpt lat="43.08871582011317" lon="10.635918620140329"><ele>265.0</ele><time>2026-05-03T09:16:22.022Z</time></trkpt><trkpt lat="43.08876881811257" lon="10.6360198509777"><ele>264.99999999999994</ele><time>2026-05-03T09:16:26.022Z</time></trkpt><trkpt lat="43.088794543282795" lon="10.636100352608924"><ele>265.0</ele><time>2026-05-03T09:16:32.022Z</time></trkpt><trkpt lat="43.088817758575146" lon="10.636199356750554"><ele>265.0</ele><time>2026-05-03T09:16:47.023Z</time></trkpt><trkpt lat="43.08876294384348" lon="10.636125859304606"><ele>265.0</ele><time>2026-05-03T09:17:16.023Z</time></trkpt><trkpt lat="43.088709159698205" lon="10.636048271901789"><ele>265.0</ele><time>2026-05-03T09:17:19.023Z</time></trkpt><trkpt lat="43.08867377151653" lon="10.635969805820721"><ele>264.99999999999994</ele><time>2026-05-03T09:17:23.023Z</time></trkpt><trkpt lat="43.088621545857734" lon="10.635888539290697"><ele>265.0</ele><time>2026-05-03T09:17:26.023Z</time></trkpt><trkpt lat="43.08859295207927" lon="10.63581120174204"><ele>265.0</ele><time>2026-05-03T09:17:29.023Z</time></trkpt><trkpt lat="43.08857361948978" lon="10.635720657461027"><ele>265.0</ele><time>2026-05-03T09:17:33.023Z</time></trkpt><trkpt lat="43.08853663502723" lon="10.635615278387222"><ele>265.0</ele><time>2026-05-03T09:17:36.024Z</time></trkpt><trkpt lat="43.08846341098872" lon="10.635519433966493"><ele>265.0</ele><time>2026-05-03T09:17:48.024Z</time></trkpt><trkpt lat="43.08840488819854" lon="10.635482432729644"><ele>265.0</ele><time>2026-05-03T09:17:50.024Z</time></trkpt><trkpt lat="43.08835149432499" lon="10.635429978394267"><ele>265.0</ele><time>2026-05-03T09:17:56.024Z</time></trkpt><trkpt lat="43.0883723643084" lon="10.635535710192917"><ele>265.0</ele><time>2026-05-03T09:18:03.024Z</time></trkpt><trkpt lat="43.08830559519937" lon="10.635565638403152"><ele>265.0</ele><time>2026-05-03T09:18:09.024Z</time></trkpt><trkpt lat="43.08822993941096" lon="10.635578131613453"><ele>265.0</ele><time>2026-05-03T09:18:12.024Z</time></trkpt><trkpt lat="43.08816335904311" lon="10.635576007820697"><ele>265.0</ele><time>2026-05-03T09:18:14.024Z</time></trkpt><trkpt lat="43.08810068154375" lon="10.63558731690669"><ele>265.0</ele><time>2026-05-03T09:18:16.024Z</time></trkpt><trkpt lat="43.08800994588089" lon="10.63557709632999"><ele>265.0</ele><time>2026-05-03T09:18:19.023Z</time></trkpt><trkpt lat="43.087927781276676" lon="10.635549052582725"><ele>270.16666666666663</ele><time>2026-05-03T09:18:22.024Z</time></trkpt><trkpt lat="43.087856863509494" lon="10.635510406212923"><ele>275.3333333333333</ele><time>2026-05-03T09:18:24.023Z</time></trkpt><trkpt lat="43.08780906407964" lon="10.635453483473796"><ele>280.5</ele><time>2026-05-03T09:18:30.023Z</time></trkpt><trkpt lat="43.08775032497536" lon="10.63537322188291"><ele>285.6666666666667</ele><time>2026-05-03T09:18:35.024Z</time></trkpt><trkpt lat="43.0877107185722" lon="10.635275675999392"><ele>290.83333333333337</ele><time>2026-05-03T09:18:37.024Z</time></trkpt><trkpt lat="43.087654929619355" lon="10.635156980486824"><ele>296.0</ele><time>2026-05-03T09:18:39.024Z</time></trkpt><trkpt lat="43.087610811543755" lon="10.635079507870666"><ele>296.0</ele><time>2026-05-03T09:18:41.024Z</time></trkpt><trkpt lat="43.08754441723125" lon="10.635029406294693"><ele>296.0</ele><time>2026-05-03T09:18:46.024Z</time></trkpt><trkpt lat="43.087475146265064" lon="10.634959967393776"><ele>296.0</ele><time>2026-05-03T09:18:56.024Z</time></trkpt><trkpt lat="43.087450507713356" lon="10.634860840016284"><ele>296.0</ele><time>2026-05-03T09:18:59.024Z</time></trkpt><trkpt lat="43.087415278806986" lon="10.634746626271005"><ele>296.0</ele><time>2026-05-03T09:19:03.024Z</time></trkpt><trkpt lat="43.0873629262747" lon="10.634652451225453"><ele>296.0</ele><time>2026-05-03T09:19:05.024Z</time></trkpt><trkpt lat="43.0873476263648" lon="10.634541265161932"><ele>302.83333333333337</ele><time>2026-05-03T09:19:08.024Z</time></trkpt><trkpt lat="43.08731542140081" lon="10.634445501007702"><ele>309.6666666666667</ele><time>2026-05-03T09:19:10.024Z</time></trkpt><trkpt lat="43.087254353219436" lon="10.634312073889344"><ele>316.5</ele><time>2026-05-03T09:19:12.024Z</time></trkpt><trkpt lat="43.087218985441964" lon="10.634221210310994"><ele>323.3333333333333</ele><time>2026-05-03T09:19:14.024Z</time></trkpt><trkpt lat="43.08715911813102" lon="10.634134763836053"><ele>330.16666666666663</ele><time>2026-05-03T09:19:17.024Z</time></trkpt><trkpt lat="43.087098368738104" lon="10.634041133755066"><ele>337.0</ele><time>2026-05-03T09:19:21.024Z</time></trkpt><trkpt lat="43.08709181154342" lon="10.633938909901776"><ele>337.0</ele><time>2026-05-03T09:19:23.024Z</time></trkpt><trkpt lat="43.087073269238466" lon="10.633835535140554"><ele>337.0</ele><time>2026-05-03T09:19:26.025Z</time></trkpt><trkpt lat="43.08703037797101" lon="10.633770019345114"><ele>337.0</ele><time>2026-05-03T09:19:29.025Z</time></trkpt><trkpt lat="43.086970450710524" lon="10.633680512908683"><ele>337.0</ele><time>2026-05-03T09:19:32.025Z</time></trkpt><trkpt lat="43.08692479048309" lon="10.633595064237383"><ele>337.0</ele><time>2026-05-03T09:19:35.025Z</time></trkpt><trkpt lat="43.08688879277235" lon="10.633518342224571"><ele>337.0</ele><time>2026-05-03T09:19:36.925Z</time></trkpt><trkpt lat="43.08686260347823" lon="10.633395004600077"><ele>337.7142857142857</ele><time>2026-05-03T09:19:46.925Z</time></trkpt><trkpt lat="43.08680812494731" lon="10.633351530104026"><ele>338.42857142857144</ele><time>2026-05-03T09:19:50.925Z</time></trkpt><trkpt lat="43.08675239551042" lon="10.633282013707648"><ele>339.1428571428571</ele><time>2026-05-03T09:19:53.925Z</time></trkpt><trkpt lat="43.08670517591926" lon="10.633211224759275"><ele>339.8571428571429</ele><time>2026-05-03T09:19:56.925Z</time></trkpt><trkpt lat="43.08666234693506" lon="10.63313442526645"><ele>340.57142857142856</ele><time>2026-05-03T09:19:58.926Z</time></trkpt><trkpt lat="43.086611083559205" lon="10.633055916859213"><ele>341.2857142857143</ele><time>2026-05-03T09:20:00.926Z</time></trkpt><trkpt lat="43.08660605061818" lon="10.632944349202992"><ele>342.0</ele><time>2026-05-03T09:20:03.926Z</time></trkpt><trkpt lat="43.08661231738917" lon="10.632848629934305"><ele>344.5</ele><time>2026-05-03T09:20:05.926Z</time></trkpt><trkpt lat="43.08662035168781" lon="10.632741091991209"><ele>347.0</ele><time>2026-05-03T09:20:07.926Z</time></trkpt><trkpt lat="43.08662535498216" lon="10.63264929247806"><ele>349.5</ele><time>2026-05-03T09:20:12.926Z</time></trkpt><trkpt lat="43.08660524265244" lon="10.632525786709177"><ele>352.0</ele><time>2026-05-03T09:20:24.925Z</time></trkpt><trkpt lat="43.08653423967955" lon="10.63255359135281"><ele>354.5</ele><time>2026-05-03T09:20:31.925Z</time></trkpt><trkpt lat="43.08649646598757" lon="10.632638681021733"><ele>357.0</ele><time>2026-05-03T09:20:34.925Z</time></trkpt><trkpt lat="43.08647286709893" lon="10.632733619529986"><ele>363.2857142857143</ele><time>2026-05-03T09:20:38.925Z</time></trkpt><trkpt lat="43.086450678238045" lon="10.63282793473715"><ele>369.57142857142856</ele><time>2026-05-03T09:20:41.925Z</time></trkpt><trkpt lat="43.086410890967215" lon="10.632906911807606"><ele>375.8571428571429</ele><time>2026-05-03T09:20:43.925Z</time></trkpt><trkpt lat="43.0863934077818" lon="10.633006558025766"><ele>382.1428571428571</ele><time>2026-05-03T09:20:46.925Z</time></trkpt><trkpt lat="43.08638580308155" lon="10.633112355503696"><ele>388.42857142857144</ele><time>2026-05-03T09:20:48.925Z</time></trkpt><trkpt lat="43.0863906881324" lon="10.633217652272679"><ele>394.7142857142857</ele><time>2026-05-03T09:20:50.925Z</time></trkpt><trkpt lat="43.0863720145903" lon="10.633312003583859"><ele>401.0</ele><time>2026-05-03T09:20:53.925Z</time></trkpt><trkpt lat="43.08635418543401" lon="10.633404011746146"><ele>401.0</ele><time>2026-05-03T09:20:55.925Z</time></trkpt><trkpt lat="43.08635209379523" lon="10.633499895950324"><ele>401.0</ele><time>2026-05-03T09:20:59.925Z</time></trkpt><trkpt lat="43.08634191083965" lon="10.633585983721611"><ele>401.0</ele><time>2026-05-03T09:21:01.925Z</time></trkpt><trkpt lat="43.08632071348305" lon="10.633684210709664"><ele>401.0</ele><time>2026-05-03T09:21:03.925Z</time></trkpt><trkpt lat="43.08628662603477" lon="10.633786374143687"><ele>401.0</ele><time>2026-05-03T09:21:06.925Z</time></trkpt><trkpt lat="43.08628301729934" lon="10.63387933416177"><ele>401.0</ele><time>2026-05-03T09:21:10.925Z</time></trkpt><trkpt lat="43.08624480499271" lon="10.633978603949334"><ele>401.0</ele><time>2026-05-03T09:21:23.925Z</time></trkpt><trkpt lat="43.08625205263629" lon="10.634067445929821"><ele>401.0</ele><time>2026-05-03T09:21:27.925Z</time></trkpt><trkpt lat="43.086274384156695" lon="10.634194675407109"><ele>401.0</ele><time>2026-05-03T09:21:31.925Z</time></trkpt><trkpt lat="43.08628010752815" lon="10.634287666873758"><ele>401.0</ele><time>2026-05-03T09:21:34.925Z</time></trkpt><trkpt lat="43.08627085789274" lon="10.634376311497972"><ele>401.0</ele><time>2026-05-03T09:21:43.925Z</time></trkpt><trkpt lat="43.086293248464834" lon="10.634470133859695"><ele>401.0</ele><time>2026-05-03T09:21:46.925Z</time></trkpt><trkpt lat="43.08629795480611" lon="10.634559022146817"><ele>401.0</ele><time>2026-05-03T09:21:50.925Z</time></trkpt><trkpt lat="43.08628933563554" lon="10.634667044315824"><ele>401.0</ele><time>2026-05-03T09:21:57.925Z</time></trkpt><trkpt lat="43.0862548527112" lon="10.634749339295139"><ele>399.8571428571429</ele><time>2026-05-03T09:22:17.925Z</time></trkpt><trkpt lat="43.0862522215217" lon="10.634860642849166"><ele>398.7142857142857</ele><time>2026-05-03T09:22:19.925Z</time></trkpt><trkpt lat="43.08623410671359" lon="10.634956578733442"><ele>397.57142857142856</ele><time>2026-05-03T09:22:23.925Z</time></trkpt><trkpt lat="43.08624361952696" lon="10.635051560211293"><ele>396.42857142857144</ele><time>2026-05-03T09:22:28.926Z</time></trkpt><trkpt lat="43.08621443211723" lon="10.635132721064489"><ele>395.2857142857143</ele><time>2026-05-03T09:26:34.925Z</time></trkpt><trkpt lat="43.08621651992927" lon="10.63503193286624"><ele>394.14285714285717</ele><time>2026-05-03T09:27:11.924Z</time></trkpt><trkpt lat="43.08620233161107" lon="10.635122650896237"><ele>393.0</ele><time>2026-05-03T09:27:45.924Z</time></trkpt><trkpt lat="43.08622202144778" lon="10.635216072820027"><ele>388.5</ele><time>2026-05-03T09:27:55.924Z</time></trkpt><trkpt lat="43.086224922621106" lon="10.635339807004852"><ele>384.0</ele><time>2026-05-03T09:28:13.924Z</time></trkpt><trkpt lat="43.08623059480945" lon="10.635437590182898"><ele>379.5</ele><time>2026-05-03T09:28:21.924Z</time></trkpt><trkpt lat="43.08623874768947" lon="10.635531457509758"><ele>375.0</ele><time>2026-05-03T09:28:33.925Z</time></trkpt><trkpt lat="43.08619343942565" lon="10.63561667489656"><ele>370.5</ele><time>2026-05-03T09:28:40.925Z</time></trkpt><trkpt lat="43.086132416586565" lon="10.635670955608342"><ele>366.0</ele><time>2026-05-03T09:28:44.925Z</time></trkpt><trkpt lat="43.08605437819051" lon="10.63572358919703"><ele>366.0</ele><time>2026-05-03T09:28:49.924Z</time></trkpt><trkpt lat="43.085984155181485" lon="10.635750763919093"><ele>366.0</ele><time>2026-05-03T09:29:06.924Z</time></trkpt><trkpt lat="43.085902415372324" lon="10.635768017274602"><ele>366.0</ele><time>2026-05-03T09:29:10.924Z</time></trkpt><trkpt lat="43.085831719575246" lon="10.635786893485994"><ele>366.0</ele><time>2026-05-03T09:29:15.924Z</time></trkpt><trkpt lat="43.08575439050174" lon="10.635779104348437"><ele>366.0</ele><time>2026-05-03T09:29:24.924Z</time></trkpt><trkpt lat="43.08568020442937" lon="10.635761524824057"><ele>366.0</ele><time>2026-05-03T09:29:30.924Z</time></trkpt><trkpt lat="43.08560674392953" lon="10.635760418135092"><ele>367.8333333333333</ele><time>2026-05-03T09:29:33.924Z</time></trkpt><trkpt lat="43.085525089394665" lon="10.635750851185904"><ele>369.6666666666667</ele><time>2026-05-03T09:29:37.924Z</time></trkpt><trkpt lat="43.085444298871835" lon="10.635774584015333"><ele>371.5</ele><time>2026-05-03T09:29:40.924Z</time></trkpt><trkpt lat="43.085374522921335" lon="10.635786408970194"><ele>373.33333333333337</ele><time>2026-05-03T09:29:42.924Z</time></trkpt><trkpt lat="43.085289513319" lon="10.63585319134624"><ele>375.1666666666667</ele><time>2026-05-03T09:29:46.924Z</time></trkpt><trkpt lat="43.08523670102811" lon="10.635916252953383"><ele>377.0</ele><time>2026-05-03T09:29:48.924Z</time></trkpt><trkpt lat="43.08518017527592" lon="10.635984804915811"><ele>376.99999999999994</ele><time>2026-05-03T09:29:51.924Z</time></trkpt><trkpt lat="43.08513095452138" lon="10.636043537144394"><ele>377.0</ele><time>2026-05-03T09:29:54.924Z</time></trkpt><trkpt lat="43.08507320624959" lon="10.636087039342558"><ele>377.0</ele><time>2026-05-03T09:29:56.924Z</time></trkpt><trkpt lat="43.084997816595354" lon="10.636144977738063"><ele>377.0</ele><time>2026-05-03T09:29:59.924Z</time></trkpt><trkpt lat="43.08493125581825" lon="10.636197903715344"><ele>377.0</ele><time>2026-05-03T09:30:01.924Z</time></trkpt><trkpt lat="43.08487498100951" lon="10.63624110620292"><ele>376.99999999999994</ele><time>2026-05-03T09:30:03.924Z</time></trkpt><trkpt lat="43.08481854499356" lon="10.636280582771374"><ele>377.0</ele><time>2026-05-03T09:30:05.924Z</time></trkpt><trkpt lat="43.084735902466676" lon="10.636324341758755"><ele>374.85714285714283</ele><time>2026-05-03T09:30:08.924Z</time></trkpt><trkpt lat="43.08466761073171" lon="10.636339645351999"><ele>372.7142857142857</ele><time>2026-05-03T09:30:10.924Z</time></trkpt><trkpt lat="43.08459797581056" lon="10.636352888213963"><ele>370.57142857142856</ele><time>2026-05-03T09:30:12.924Z</time></trkpt><trkpt lat="43.0845131756727" lon="10.6363760839678"><ele>368.42857142857144</ele><time>2026-05-03T09:30:14.924Z</time></trkpt><trkpt lat="43.084447617574575" lon="10.636392187400661"><ele>366.2857142857143</ele><time>2026-05-03T09:30:22.924Z</time></trkpt><trkpt lat="43.084368575475985" lon="10.636382951500403"><ele>364.1428571428571</ele><time>2026-05-03T09:30:24.924Z</time></trkpt><trkpt lat="43.08430433144232" lon="10.636379362137973"><ele>362.0</ele><time>2026-05-03T09:30:26.924Z</time></trkpt><trkpt lat="43.08421557193225" lon="10.63641505352223"><ele>362.0</ele><time>2026-05-03T09:30:29.924Z</time></trkpt><trkpt lat="43.08412246404056" lon="10.636429896922683"><ele>362.0</ele><time>2026-05-03T09:30:32.925Z</time></trkpt><trkpt lat="43.084047982050095" lon="10.636425803422638"><ele>362.0</ele><time>2026-05-03T09:30:33.925Z</time></trkpt><trkpt lat="43.08395957638356" lon="10.636444814337448"><ele>362.0</ele><time>2026-05-03T09:30:35.925Z</time></trkpt><trkpt lat="43.08389926208313" lon="10.636470124144273"><ele>362.0</ele><time>2026-05-03T09:30:37.925Z</time></trkpt><trkpt lat="43.083827837316356" lon="10.636462930823237"><ele>362.0</ele><time>2026-05-03T09:30:44.925Z</time></trkpt><trkpt lat="43.08374107657881" lon="10.636421320117364"><ele>361.0</ele><time>2026-05-03T09:30:47.925Z</time></trkpt><trkpt lat="43.083674048159274" lon="10.636386323390118"><ele>360.0</ele><time>2026-05-03T09:30:53.924Z</time></trkpt><trkpt lat="43.08360616651821" lon="10.636371979104064"><ele>359.0</ele><time>2026-05-03T09:30:55.924Z</time></trkpt><trkpt lat="43.0835285403885" lon="10.63631752126148"><ele>358.0</ele><time>2026-05-03T09:30:57.924Z</time></trkpt><trkpt lat="43.0834607977821" lon="10.636261531563763"><ele>357.0</ele><time>2026-05-03T09:30:59.924Z</time></trkpt><trkpt lat="43.083375339267675" lon="10.636212178167858"><ele>356.0</ele><time>2026-05-03T09:31:01.923Z</time></trkpt><trkpt lat="43.08332641320205" lon="10.63613930153898"><ele>360.1666666666667</ele><time>2026-05-03T09:31:04.924Z</time></trkpt><trkpt lat="43.083240901987374" lon="10.636120796817483"><ele>364.33333333333337</ele><time>2026-05-03T09:31:07.924Z</time></trkpt><trkpt lat="43.08317191709236" lon="10.636082509875052"><ele>368.5</ele><time>2026-05-03T09:31:09.924Z</time></trkpt><trkpt lat="43.08311027328316" lon="10.636040673991392"><ele>372.6666666666667</ele><time>2026-05-03T09:31:11.924Z</time></trkpt><trkpt lat="43.083004660475396" lon="10.636014858536273"><ele>376.8333333333333</ele><time>2026-05-03T09:31:13.924Z</time></trkpt><trkpt lat="43.08291176047603" lon="10.635974965398193"><ele>381.0</ele><time>2026-05-03T09:31:15.924Z</time></trkpt><trkpt lat="43.08281711753833" lon="10.635942648292303"><ele>381.0</ele><time>2026-05-03T09:31:17.924Z</time></trkpt><trkpt lat="43.08274770904905" lon="10.63591983003527"><ele>381.0</ele><time>2026-05-03T09:31:19.924Z</time></trkpt><trkpt lat="43.08267879908233" lon="10.63583886901035"><ele>381.0</ele><time>2026-05-03T09:31:23.924Z</time></trkpt><trkpt lat="43.08260190314139" lon="10.635758711107451"><ele>381.0</ele><time>2026-05-03T09:31:26.924Z</time></trkpt><trkpt lat="43.0825216226835" lon="10.63574329290528"><ele>381.0</ele><time>2026-05-03T09:31:28.924Z</time></trkpt><trkpt lat="43.08245474264769" lon="10.635708004729876"><ele>381.0</ele><time>2026-05-03T09:31:30.924Z</time></trkpt><trkpt lat="43.08236136902803" lon="10.635718064561157"><ele>378.8333333333333</ele><time>2026-05-03T09:31:32.924Z</time></trkpt><trkpt lat="43.08228361147881" lon="10.63571199621578"><ele>376.6666666666667</ele><time>2026-05-03T09:31:34.924Z</time></trkpt><trkpt lat="43.08219049927133" lon="10.635721179147495"><ele>374.5</ele><time>2026-05-03T09:31:37.924Z</time></trkpt><trkpt lat="43.082110354971185" lon="10.63572375353983"><ele>372.33333333333337</ele><time>2026-05-03T09:31:52.924Z</time></trkpt><trkpt lat="43.082082568710746" lon="10.635806638805997"><ele>370.1666666666667</ele><time>2026-05-03T09:31:54.924Z</time></trkpt><trkpt lat="43.08205870976419" lon="10.63591299872417"><ele>368.0</ele><time>2026-05-03T09:31:57.924Z</time></trkpt><trkpt lat="43.082001032157734" lon="10.635867274903346"><ele>368.0</ele><time>2026-05-03T09:34:36.924Z</time></trkpt><trkpt lat="43.081937545295474" lon="10.635854743385499"><ele>368.0</ele><time>2026-05-03T09:34:38.924Z</time></trkpt><trkpt lat="43.08187292900872" lon="10.635850809372846"><ele>368.0</ele><time>2026-05-03T09:34:41.924Z</time></trkpt><trkpt lat="43.08190382370913" lon="10.635743068697677"><ele>368.0</ele><time>2026-05-03T09:34:45.924Z</time></trkpt><trkpt lat="43.08194322762254" lon="10.635615551627472"><ele>368.0</ele><time>2026-05-03T09:34:47.924Z</time></trkpt><trkpt lat="43.08197138295389" lon="10.635488824061506"><ele>368.0</ele><time>2026-05-03T09:34:50.925Z</time></trkpt><trkpt lat="43.08193983857495" lon="10.635399941093358"><ele>368.79999999999995</ele><time>2026-05-03T09:34:53.928Z</time></trkpt><trkpt lat="43.08188008905038" lon="10.63526901245406"><ele>369.6</ele><time>2026-05-03T09:34:55.929Z</time></trkpt><trkpt lat="43.081835776758645" lon="10.635162585693726"><ele>370.4</ele><time>2026-05-03T09:34:56.93Z</time></trkpt><trkpt lat="43.081784297942875" lon="10.635040266735837"><ele>371.20000000000005</ele><time>2026-05-03T09:34:57.931Z</time></trkpt><trkpt lat="43.08179092166908" lon="10.63488040346965"><ele>372.0</ele><time>2026-05-03T09:34:58.932Z</time></trkpt><trkpt lat="43.08173698804836" lon="10.63477753084162"><ele>372.0</ele><time>2026-05-03T09:34:59.932Z</time></trkpt><trkpt lat="43.08168703754258" lon="10.634692696763793"><ele>372.0</ele><time>2026-05-03T09:35:00.933Z</time></trkpt><trkpt lat="43.0815676327271" lon="10.634691496834202"><ele>372.0</ele><time>2026-05-03T09:35:01.933Z</time></trkpt><trkpt lat="43.08151441297882" lon="10.63461675401724"><ele>372.0</ele><time>2026-05-03T09:35:02.934Z</time></trkpt><trkpt lat="43.08146774991164" lon="10.634535724610112"><ele>372.0</ele><time>2026-05-03T09:35:03.934Z</time></trkpt><trkpt lat="43.08142260246111" lon="10.63445790941778"><ele>372.0</ele><time>2026-05-03T09:35:04.935Z</time></trkpt><trkpt lat="43.08136646172263" lon="10.634375415037661"><ele>372.20000000000005</ele><time>2026-05-03T09:35:05.935Z</time></trkpt><trkpt lat="43.0813105536554" lon="10.634320101519563"><ele>372.4</ele><time>2026-05-03T09:35:06.935Z</time></trkpt><trkpt lat="43.081266543054134" lon="10.634246367818873"><ele>372.6</ele><time>2026-05-03T09:35:09.936Z</time></trkpt><trkpt lat="43.08119393215817" lon="10.634164028304372"><ele>372.79999999999995</ele><time>2026-05-03T09:35:11.936Z</time></trkpt><trkpt lat="43.081054850049384" lon="10.634072781629689"><ele>373.0</ele><time>2026-05-03T09:35:13.937Z</time></trkpt><trkpt lat="43.08095886226877" lon="10.634010565494018"><ele>373.0</ele><time>2026-05-03T09:35:14.938Z</time></trkpt><trkpt lat="43.08087739130646" lon="10.633948374581983"><ele>373.0</ele><time>2026-05-03T09:35:15.938Z</time></trkpt><trkpt lat="43.08079882857672" lon="10.633912242879736"><ele>373.0</ele><time>2026-05-03T09:35:16.938Z</time></trkpt><trkpt lat="43.08071657818627" lon="10.633886673477983"><ele>373.0</ele><time>2026-05-03T09:35:17.938Z</time></trkpt><trkpt lat="43.08065050379633" lon="10.633849080710712"><ele>373.0</ele><time>2026-05-03T09:35:18.938Z</time></trkpt><trkpt lat="43.08058902455494" lon="10.633814851679638"><ele>373.0</ele><time>2026-05-03T09:35:19.939Z</time></trkpt><trkpt lat="43.08052151696906" lon="10.633773797958968"><ele>372.8333333333333</ele><time>2026-05-03T09:35:20.939Z</time></trkpt><trkpt lat="43.08045550200168" lon="10.63371202054147"><ele>372.66666666666663</ele><time>2026-05-03T09:35:21.939Z</time></trkpt><trkpt lat="43.08040530508827" lon="10.633646232579068"><ele>372.5</ele><time>2026-05-03T09:35:22.939Z</time></trkpt><trkpt lat="43.080347511686725" lon="10.633574609292598"><ele>372.3333333333333</ele><time>2026-05-03T09:35:23.939Z</time></trkpt><trkpt lat="43.08029290606133" lon="10.633503209238102"><ele>372.1666666666667</ele><time>2026-05-03T09:35:24.939Z</time></trkpt><trkpt lat="43.080236372879924" lon="10.633459686874914"><ele>372.0</ele><time>2026-05-03T09:35:25.939Z</time></trkpt><trkpt lat="43.08017293584662" lon="10.63336353879997"><ele>372.0</ele><time>2026-05-03T09:35:27.94Z</time></trkpt><trkpt lat="43.08010379042786" lon="10.633393713408045"><ele>372.0</ele><time>2026-05-03T09:35:30.94Z</time></trkpt><trkpt lat="43.08008616535262" lon="10.633487549159424"><ele>372.0</ele><time>2026-05-03T09:35:33.94Z</time></trkpt><trkpt lat="43.08001331117927" lon="10.63349039986796"><ele>372.0</ele><time>2026-05-03T09:35:35.94Z</time></trkpt><trkpt lat="43.0799248446483" lon="10.633581425393283"><ele>372.0</ele><time>2026-05-03T09:35:38.941Z</time></trkpt><trkpt lat="43.07986784933814" lon="10.633688317782234"><ele>372.0</ele><time>2026-05-03T09:35:40.941Z</time></trkpt><trkpt lat="43.07992621283632" lon="10.633589209170436"><ele>372.0</ele><time>2026-05-03T09:36:01.941Z</time></trkpt><trkpt lat="43.07996590726185" lon="10.633506235270852"><ele>372.0</ele><time>2026-05-03T09:36:02.941Z</time></trkpt><trkpt lat="43.08000948574992" lon="10.633424081897116"><ele>372.0</ele><time>2026-05-03T09:36:03.941Z</time></trkpt><trkpt lat="43.080109726204185" lon="10.633333811606484"><ele>372.0</ele><time>2026-05-03T09:36:05.941Z</time></trkpt><trkpt lat="43.080188090335156" lon="10.633264904458567"><ele>372.0</ele><time>2026-05-03T09:36:07.941Z</time></trkpt><trkpt lat="43.080164512443545" lon="10.633181599388404"><ele>372.0</ele><time>2026-05-03T09:36:11.942Z</time></trkpt><trkpt lat="43.08025946698851" lon="10.63311422954718"><ele>372.0</ele><time>2026-05-03T09:36:16.942Z</time></trkpt><trkpt lat="43.080358879336494" lon="10.633066313529925"><ele>372.0</ele><time>2026-05-03T09:36:18.942Z</time></trkpt><trkpt lat="43.08046515469797" lon="10.632979231012845"><ele>372.0</ele><time>2026-05-03T09:36:20.942Z</time></trkpt><trkpt lat="43.080531358157145" lon="10.63291278460444"><ele>372.0</ele><time>2026-05-03T09:36:22.942Z</time></trkpt><trkpt lat="43.08058369157359" lon="10.632861743465346"><ele>372.0</ele><time>2026-05-03T09:36:24.942Z</time></trkpt><trkpt lat="43.08061837831047" lon="10.632721370569751"><ele>371.5</ele><time>2026-05-03T09:36:26.942Z</time></trkpt><trkpt lat="43.080634102148295" lon="10.632611162876419"><ele>371.0</ele><time>2026-05-03T09:36:27.942Z</time></trkpt><trkpt lat="43.08064650914822" lon="10.632511279541115"><ele>370.5</ele><time>2026-05-03T09:36:28.942Z</time></trkpt><trkpt lat="43.080670493250935" lon="10.632403777110493"><ele>370.0</ele><time>2026-05-03T09:36:29.942Z</time></trkpt><trkpt lat="43.08068911349482" lon="10.632307723700707"><ele>369.5</ele><time>2026-05-03T09:36:30.942Z</time></trkpt><trkpt lat="43.08070718816114" lon="10.632195441685253"><ele>369.0</ele><time>2026-05-03T09:36:31.942Z</time></trkpt><trkpt lat="43.080732019691936" lon="10.632079257772366"><ele>369.0</ele><time>2026-05-03T09:36:32.942Z</time></trkpt><trkpt lat="43.08076345611894" lon="10.63198771187144"><ele>369.0</ele><time>2026-05-03T09:36:33.942Z</time></trkpt><trkpt lat="43.08080506743595" lon="10.631894675886025"><ele>369.0</ele><time>2026-05-03T09:36:34.942Z</time></trkpt><trkpt lat="43.08086780958601" lon="10.631767451751033"><ele>369.0</ele><time>2026-05-03T09:36:36.942Z</time></trkpt><trkpt lat="43.08092823562336" lon="10.631713551219967"><ele>369.0</ele><time>2026-05-03T09:36:38.942Z</time></trkpt><trkpt lat="43.08096421547342" lon="10.63163388682391"><ele>369.0</ele><time>2026-05-03T09:36:52.942Z</time></trkpt><trkpt lat="43.08101347357589" lon="10.631566533182884"><ele>370.85714285714283</ele><time>2026-05-03T09:37:36.941Z</time></trkpt><trkpt lat="43.081062732874585" lon="10.631480583185413"><ele>372.71428571428567</ele><time>2026-05-03T09:37:38.941Z</time></trkpt><trkpt lat="43.08109940774734" lon="10.631405865273065"><ele>374.57142857142856</ele><time>2026-05-03T09:37:39.941Z</time></trkpt><trkpt lat="43.081133092585965" lon="10.631311989285704"><ele>376.42857142857144</ele><time>2026-05-03T09:37:40.941Z</time></trkpt><trkpt lat="43.081167739911876" lon="10.631230224906721"><ele>378.2857142857143</ele><time>2026-05-03T09:37:41.941Z</time></trkpt><trkpt lat="43.08120387884812" lon="10.631139719427189"><ele>380.14285714285717</ele><time>2026-05-03T09:37:42.941Z</time></trkpt><trkpt lat="43.08124215476417" lon="10.631055334965168"><ele>382.0</ele><time>2026-05-03T09:37:43.941Z</time></trkpt><trkpt lat="43.081268058561" lon="10.630973049352685"><ele>382.0</ele><time>2026-05-03T09:37:44.941Z</time></trkpt><trkpt lat="43.08132328281876" lon="10.630856366688768"><ele>382.0</ele><time>2026-05-03T09:37:46.941Z</time></trkpt><trkpt lat="43.081383654447805" lon="10.630703419197044"><ele>382.0</ele><time>2026-05-03T09:37:48.941Z</time></trkpt><trkpt lat="43.081415447036115" lon="10.630622828888175"><ele>382.0</ele><time>2026-05-03T09:37:49.941Z</time></trkpt><trkpt lat="43.08146709384103" lon="10.63048385826002"><ele>382.0</ele><time>2026-05-03T09:37:51.941Z</time></trkpt><trkpt lat="43.081504760329196" lon="10.630360632942304"><ele>381.5</ele><time>2026-05-03T09:37:53.941Z</time></trkpt><trkpt lat="43.081556456291096" lon="10.630229190549722"><ele>381.0</ele><time>2026-05-03T09:37:55.941Z</time></trkpt><trkpt lat="43.08160155650865" lon="10.630123917465834"><ele>380.5</ele><time>2026-05-03T09:37:57.941Z</time></trkpt><trkpt lat="43.08164436247667" lon="10.630038724500569"><ele>380.0</ele><time>2026-05-03T09:37:59.941Z</time></trkpt><trkpt lat="43.08171184817684" lon="10.630077489719065"><ele>379.5</ele><time>2026-05-03T09:38:02.941Z</time></trkpt><trkpt lat="43.08172947187306" lon="10.630177086748986"><ele>379.0</ele><time>2026-05-03T09:38:04.941Z</time></trkpt><trkpt lat="43.08180619991223" lon="10.63026495759935"><ele>382.5</ele><time>2026-05-03T09:38:06.941Z</time></trkpt><trkpt lat="43.08188364730345" lon="10.630289975049052"><ele>386.0</ele><time>2026-05-03T09:38:09.941Z</time></trkpt><trkpt lat="43.08197510874368" lon="10.630293415764404"><ele>389.5</ele><time>2026-05-03T09:38:21.942Z</time></trkpt><trkpt lat="43.08203737366164" lon="10.630329256932"><ele>393.0</ele><time>2026-05-03T09:38:22.942Z</time></trkpt><trkpt lat="43.082109148192345" lon="10.630385710895817"><ele>396.50000000000006</ele><time>2026-05-03T09:38:23.942Z</time></trkpt><trkpt lat="43.082182310478366" lon="10.63043701373102"><ele>400.0</ele><time>2026-05-03T09:38:24.942Z</time></trkpt><trkpt lat="43.08224717221318" lon="10.630458224607548"><ele>401.2</ele><time>2026-05-03T09:38:25.942Z</time></trkpt><trkpt lat="43.08231366530353" lon="10.63047713355776"><ele>402.4</ele><time>2026-05-03T09:38:26.942Z</time></trkpt><trkpt lat="43.082414263079464" lon="10.630450424240749"><ele>403.6</ele><time>2026-05-03T09:38:28.942Z</time></trkpt><trkpt lat="43.08247551028949" lon="10.630372989099877"><ele>404.8</ele><time>2026-05-03T09:38:29.942Z</time></trkpt><trkpt lat="43.082519199368434" lon="10.63026253765269"><ele>406.0</ele><time>2026-05-03T09:38:31.942Z</time></trkpt><trkpt lat="43.082520288956225" lon="10.630109317984012"><ele>405.00000000000006</ele><time>2026-05-03T09:38:35.942Z</time></trkpt><trkpt lat="43.0825022385764" lon="10.630017597372515"><ele>404.0</ele><time>2026-05-03T09:38:36.942Z</time></trkpt><trkpt lat="43.08248244520315" lon="10.629912062315654"><ele>403.0</ele><time>2026-05-03T09:38:37.942Z</time></trkpt><trkpt lat="43.082458570316646" lon="10.629781078732382"><ele>402.0</ele><time>2026-05-03T09:38:38.942Z</time></trkpt><trkpt lat="43.0824391512995" lon="10.629649177572965"><ele>401.00000000000006</ele><time>2026-05-03T09:38:39.942Z</time></trkpt><trkpt lat="43.082408392600556" lon="10.629522002438557"><ele>400.0</ele><time>2026-05-03T09:38:40.942Z</time></trkpt><trkpt lat="43.08239395990224" lon="10.629401893179491"><ele>397.4</ele><time>2026-05-03T09:38:41.942Z</time></trkpt><trkpt lat="43.082398868879984" lon="10.62927881379494"><ele>394.8</ele><time>2026-05-03T09:38:42.942Z</time></trkpt><trkpt lat="43.08240580777316" lon="10.629138050072505"><ele>392.20000000000005</ele><time>2026-05-03T09:38:43.942Z</time></trkpt><trkpt lat="43.08241261741696" lon="10.628991045560168"><ele>389.6</ele><time>2026-05-03T09:38:44.942Z</time></trkpt><trkpt lat="43.08241606745335" lon="10.628888398237626"><ele>387.0</ele><time>2026-05-03T09:38:45.942Z</time></trkpt><trkpt lat="43.082413492494034" lon="10.628781660979056"><ele>387.0</ele><time>2026-05-03T09:38:46.942Z</time></trkpt><trkpt lat="43.08242507760268" lon="10.628677195820712"><ele>387.0</ele><time>2026-05-03T09:38:47.942Z</time></trkpt><trkpt lat="43.082492967752174" lon="10.628573666956454"><ele>387.0</ele><time>2026-05-03T09:38:49.942Z</time></trkpt><trkpt lat="43.08257169483003" lon="10.628463890652773"><ele>387.0</ele><time>2026-05-03T09:38:51.942Z</time></trkpt><trkpt lat="43.082614415073465" lon="10.628397935545467"><ele>387.0</ele><time>2026-05-03T09:38:52.942Z</time></trkpt><trkpt lat="43.08271427242768" lon="10.628321870301297"><ele>390.40000000000003</ele><time>2026-05-03T09:38:54.942Z</time></trkpt><trkpt lat="43.08282524610989" lon="10.628244066946406"><ele>393.8</ele><time>2026-05-03T09:38:56.942Z</time></trkpt><trkpt lat="43.08288705067307" lon="10.628200050547523"><ele>397.2</ele><time>2026-05-03T09:38:57.942Z</time></trkpt><trkpt lat="43.0829903733863" lon="10.628162296180422"><ele>400.6</ele><time>2026-05-03T09:38:58.942Z</time></trkpt><trkpt lat="43.083085696795145" lon="10.628157772751731"><ele>404.0</ele><time>2026-05-03T09:38:59.942Z</time></trkpt><trkpt lat="43.083166309132984" lon="10.628141707763602"><ele>403.99999999999994</ele><time>2026-05-03T09:39:00.942Z</time></trkpt><trkpt lat="43.083236988670045" lon="10.62812604788538"><ele>404.0</ele><time>2026-05-03T09:39:01.942Z</time></trkpt><trkpt lat="43.083301335118804" lon="10.628109233751468"><ele>404.0</ele><time>2026-05-03T09:39:02.942Z</time></trkpt><trkpt lat="43.08337795189252" lon="10.628040937106011"><ele>404.0</ele><time>2026-05-03T09:39:04.942Z</time></trkpt><trkpt lat="43.083423085049866" lon="10.627924857924894"><ele>403.99999999999994</ele><time>2026-05-03T09:39:06.942Z</time></trkpt><trkpt lat="43.083424513913826" lon="10.627828209105557"><ele>404.0</ele><time>2026-05-03T09:39:09.942Z</time></trkpt><trkpt lat="43.08340943638465" lon="10.627744433511799"><ele>404.49999999999994</ele><time>2026-05-03T09:39:11.942Z</time></trkpt><trkpt lat="43.08336654337191" lon="10.627666955211229"><ele>405.0</ele><time>2026-05-03T09:39:13.942Z</time></trkpt><trkpt lat="43.08330567801759" lon="10.627611009827207"><ele>405.5</ele><time>2026-05-03T09:39:14.942Z</time></trkpt><trkpt lat="43.08324888156027" lon="10.627524927032495"><ele>406.0</ele><time>2026-05-03T09:39:15.941Z</time></trkpt><trkpt lat="43.08321312642773" lon="10.62743903608683"><ele>406.49999999999994</ele><time>2026-05-03T09:39:16.942Z</time></trkpt><trkpt lat="43.08317022016143" lon="10.62727765298753"><ele>407.0</ele><time>2026-05-03T09:39:18.942Z</time></trkpt><trkpt lat="43.08311255116931" lon="10.62717708830232"><ele>403.6</ele><time>2026-05-03T09:39:20.941Z</time></trkpt><trkpt lat="43.083047338007134" lon="10.627071967661527"><ele>400.20000000000005</ele><time>2026-05-03T09:39:22.941Z</time></trkpt><trkpt lat="43.08296950498638" lon="10.626955326311192"><ele>396.8</ele><time>2026-05-03T09:39:24.942Z</time></trkpt><trkpt lat="43.08288220584565" lon="10.626826659286547"><ele>393.4</ele><time>2026-05-03T09:39:26.941Z</time></trkpt><trkpt lat="43.08283392109173" lon="10.626753698547232"><ele>390.0</ele><time>2026-05-03T09:39:27.941Z</time></trkpt><trkpt lat="43.0827642209649" lon="10.626601174406359"><ele>389.42857142857144</ele><time>2026-05-03T09:39:29.941Z</time></trkpt><trkpt lat="43.08273544827313" lon="10.626496603274083"><ele>388.85714285714283</ele><time>2026-05-03T09:39:30.941Z</time></trkpt><trkpt lat="43.08271502188621" lon="10.626410092263274"><ele>388.28571428571433</ele><time>2026-05-03T09:39:31.941Z</time></trkpt><trkpt lat="43.082683365175406" lon="10.626317693670893"><ele>387.7142857142857</ele><time>2026-05-03T09:39:32.941Z</time></trkpt><trkpt lat="43.08265692821616" lon="10.626226206098384"><ele>387.14285714285717</ele><time>2026-05-03T09:39:33.941Z</time></trkpt><trkpt lat="43.082656366734234" lon="10.626136909250407"><ele>386.5714285714286</ele><time>2026-05-03T09:39:34.941Z</time></trkpt><trkpt lat="43.08264518775744" lon="10.626047563857538"><ele>386.0</ele><time>2026-05-03T09:39:35.941Z</time></trkpt><trkpt lat="43.08263513787966" lon="10.625959247787174"><ele>387.6</ele><time>2026-05-03T09:39:36.941Z</time></trkpt><trkpt lat="43.08264338891714" lon="10.625813518915978"><ele>389.20000000000005</ele><time>2026-05-03T09:39:38.941Z</time></trkpt><trkpt lat="43.08263520316734" lon="10.625686609520912"><ele>390.79999999999995</ele><time>2026-05-03T09:39:40.941Z</time></trkpt><trkpt lat="43.08259478606034" lon="10.62551542082954"><ele>392.4</ele><time>2026-05-03T09:39:42.941Z</time></trkpt><trkpt lat="43.08257751252246" lon="10.625418917214832"><ele>394.0</ele><time>2026-05-03T09:39:43.941Z</time></trkpt><trkpt lat="43.08253189178582" lon="10.62525551900794"><ele>394.83333333333337</ele><time>2026-05-03T09:39:45.941Z</time></trkpt><trkpt lat="43.08250135892123" lon="10.625174805706195"><ele>395.6666666666667</ele><time>2026-05-03T09:39:46.941Z</time></trkpt><trkpt lat="43.08247135399846" lon="10.625083211621291"><ele>396.5</ele><time>2026-05-03T09:39:47.941Z</time></trkpt><trkpt lat="43.08244003772545" lon="10.624993278600623"><ele>397.33333333333337</ele><time>2026-05-03T09:39:48.941Z</time></trkpt><trkpt lat="43.082393638496534" lon="10.624885411009512"><ele>398.1666666666667</ele><time>2026-05-03T09:39:49.941Z</time></trkpt><trkpt lat="43.082356340960416" lon="10.624808999613299"><ele>399.0</ele><time>2026-05-03T09:39:50.941Z</time></trkpt><trkpt lat="43.08231271768809" lon="10.624696466214191"><ele>394.79999999999995</ele><time>2026-05-03T09:39:52.941Z</time></trkpt><trkpt lat="43.08231273750436" lon="10.624608473856087"><ele>390.59999999999997</ele><time>2026-05-03T09:39:53.941Z</time></trkpt><trkpt lat="43.082303400242346" lon="10.62444797516195"><ele>386.4</ele><time>2026-05-03T09:39:55.941Z</time></trkpt><trkpt lat="43.08223680445114" lon="10.62430692523534"><ele>382.2</ele><time>2026-05-03T09:39:57.941Z</time></trkpt><trkpt lat="43.08219227258638" lon="10.624232782947425"><ele>378.0</ele><time>2026-05-03T09:39:58.941Z</time></trkpt><trkpt lat="43.08214600383691" lon="10.6241504083451"><ele>378.0</ele><time>2026-05-03T09:39:59.941Z</time></trkpt><trkpt lat="43.08210387985549" lon="10.624083020667472"><ele>378.0</ele><time>2026-05-03T09:40:00.941Z</time></trkpt><trkpt lat="43.08204593690794" lon="10.624029272477053"><ele>378.0</ele><time>2026-05-03T09:40:01.941Z</time></trkpt><trkpt lat="43.08198867055493" lon="10.623991555735202"><ele>378.0</ele><time>2026-05-03T09:40:02.941Z</time></trkpt><trkpt lat="43.0819335541549" lon="10.623949544206692"><ele>378.0</ele><time>2026-05-03T09:40:03.941Z</time></trkpt><trkpt lat="43.08187492018456" lon="10.623916449745138"><ele>378.0</ele><time>2026-05-03T09:40:04.941Z</time></trkpt><trkpt lat="43.081756383553724" lon="10.623900980274255"><ele>378.0</ele><time>2026-05-03T09:40:06.941Z</time></trkpt><trkpt lat="43.08166174084213" lon="10.623890826003384"><ele>375.0</ele><time>2026-05-03T09:40:07.941Z</time></trkpt><trkpt lat="43.08156698320368" lon="10.62385805941428"><ele>372.0</ele><time>2026-05-03T09:40:08.941Z</time></trkpt><trkpt lat="43.08149247507434" lon="10.623823226406268"><ele>369.0</ele><time>2026-05-03T09:40:09.941Z</time></trkpt><trkpt lat="43.08143233346872" lon="10.623784835637295"><ele>366.0</ele><time>2026-05-03T09:40:10.941Z</time></trkpt><trkpt lat="43.08135066076966" lon="10.623701345553213"><ele>363.0</ele><time>2026-05-03T09:40:12.941Z</time></trkpt><trkpt lat="43.08127583485685" lon="10.623562399698931"><ele>363.0</ele><time>2026-05-03T09:40:14.941Z</time></trkpt><trkpt lat="43.08122742618083" lon="10.623488330004221"><ele>363.0</ele><time>2026-05-03T09:40:15.941Z</time></trkpt><trkpt lat="43.08117289386867" lon="10.623397929581149"><ele>363.0</ele><time>2026-05-03T09:40:16.941Z</time></trkpt><trkpt lat="43.08111707110277" lon="10.623323336875185"><ele>363.0</ele><time>2026-05-03T09:40:17.941Z</time></trkpt><trkpt lat="43.08105104737573" lon="10.623253111386209"><ele>363.0</ele><time>2026-05-03T09:40:18.941Z</time></trkpt><trkpt lat="43.080989973168464" lon="10.623187288934991"><ele>363.0</ele><time>2026-05-03T09:40:19.941Z</time></trkpt><trkpt lat="43.08091306355531" lon="10.623114059699667"><ele>363.0</ele><time>2026-05-03T09:40:20.941Z</time></trkpt><trkpt lat="43.08085002936342" lon="10.62302734537886"><ele>363.0</ele><time>2026-05-03T09:40:21.941Z</time></trkpt><trkpt lat="43.08077591528926" lon="10.622954502915944"><ele>363.0</ele><time>2026-05-03T09:40:22.941Z</time></trkpt><trkpt lat="43.08069013826593" lon="10.622877973337326"><ele>363.0</ele><time>2026-05-03T09:40:23.941Z</time></trkpt><trkpt lat="43.08060677327136" lon="10.62281683512589"><ele>363.0</ele><time>2026-05-03T09:40:24.941Z</time></trkpt><trkpt lat="43.08052713257502" lon="10.622775854475558"><ele>361.8333333333333</ele><time>2026-05-03T09:40:25.941Z</time></trkpt><trkpt lat="43.08043466089567" lon="10.62274659982612"><ele>360.6666666666667</ele><time>2026-05-03T09:40:26.941Z</time></trkpt><trkpt lat="43.080372946151094" lon="10.622725626563616"><ele>359.5</ele><time>2026-05-03T09:40:27.941Z</time></trkpt><trkpt lat="43.080303032143384" lon="10.622743215588857"><ele>358.33333333333337</ele><time>2026-05-03T09:40:29.941Z</time></trkpt><trkpt lat="43.080228259932504" lon="10.622678054513708"><ele>357.1666666666667</ele><time>2026-05-03T09:40:31.942Z</time></trkpt><trkpt lat="43.0801330982323" lon="10.62258511028222"><ele>356.0</ele><time>2026-05-03T09:40:33.942Z</time></trkpt><trkpt lat="43.080076361426975" lon="10.622516072127343"><ele>356.0</ele><time>2026-05-03T09:40:34.942Z</time></trkpt><trkpt lat="43.080007834966146" lon="10.622430179942887"><ele>356.0</ele><time>2026-05-03T09:40:35.942Z</time></trkpt><trkpt lat="43.07993760810515" lon="10.622339826834157"><ele>356.0</ele><time>2026-05-03T09:40:36.942Z</time></trkpt><trkpt lat="43.079879653670694" lon="10.622238842592125"><ele>356.0</ele><time>2026-05-03T09:40:37.942Z</time></trkpt><trkpt lat="43.07981509121022" lon="10.622138818753646"><ele>356.0</ele><time>2026-05-03T09:40:38.942Z</time></trkpt><trkpt lat="43.07974372090454" lon="10.6220398458403"><ele>351.8</ele><time>2026-05-03T09:40:39.942Z</time></trkpt><trkpt lat="43.079670806535276" lon="10.621965334516664"><ele>347.6</ele><time>2026-05-03T09:40:40.942Z</time></trkpt><trkpt lat="43.07958454936152" lon="10.621901298193992"><ele>343.4</ele><time>2026-05-03T09:40:41.942Z</time></trkpt><trkpt lat="43.07951554680642" lon="10.621822969908962"><ele>339.2</ele><time>2026-05-03T09:40:42.942Z</time></trkpt><trkpt lat="43.07945051577101" lon="10.621729890316551"><ele>335.0</ele><time>2026-05-03T09:40:43.942Z</time></trkpt><trkpt lat="43.07938978264606" lon="10.62162209847076"><ele>335.0</ele><time>2026-05-03T09:40:44.942Z</time></trkpt><trkpt lat="43.07931792360614" lon="10.621515070485387"><ele>335.0</ele><time>2026-05-03T09:40:45.942Z</time></trkpt><trkpt lat="43.079257578301885" lon="10.621417221754122"><ele>335.0</ele><time>2026-05-03T09:40:46.942Z</time></trkpt><trkpt lat="43.079190117269206" lon="10.621312925224764"><ele>335.0</ele><time>2026-05-03T09:40:47.942Z</time></trkpt><trkpt lat="43.0791116495633" lon="10.621232778796633"><ele>335.0</ele><time>2026-05-03T09:40:48.942Z</time></trkpt><trkpt lat="43.079015496329774" lon="10.621177025143307"><ele>332.0</ele><time>2026-05-03T09:40:49.942Z</time></trkpt><trkpt lat="43.07893921698482" lon="10.621116717405114"><ele>329.0</ele><time>2026-05-03T09:40:50.942Z</time></trkpt><trkpt lat="43.078812407542536" lon="10.620954923548018"><ele>326.0</ele><time>2026-05-03T09:40:52.942Z</time></trkpt><trkpt lat="43.07875323768302" lon="10.620868723729691"><ele>323.0</ele><time>2026-05-03T09:40:53.942Z</time></trkpt><trkpt lat="43.07871413695262" lon="10.620780012076057"><ele>320.0</ele><time>2026-05-03T09:40:54.942Z</time></trkpt><trkpt lat="43.07869196414717" lon="10.62069651736181"><ele>320.0</ele><time>2026-05-03T09:40:55.942Z</time></trkpt><trkpt lat="43.07866907134258" lon="10.620615658714756"><ele>320.0</ele><time>2026-05-03T09:40:56.942Z</time></trkpt><trkpt lat="43.07862795529889" lon="10.620493115123205"><ele>320.0</ele><time>2026-05-03T09:40:58.942Z</time></trkpt><trkpt lat="43.078645972923496" lon="10.620379662582929"><ele>320.0</ele><time>2026-05-03T09:41:01.942Z</time></trkpt><trkpt lat="43.07860436202915" lon="10.620470016618398"><ele>320.0</ele><time>2026-05-03T09:41:07.942Z</time></trkpt><trkpt lat="43.07865483876495" lon="10.620558889469159"><ele>320.0</ele><time>2026-05-03T09:41:10.942Z</time></trkpt><trkpt lat="43.07871794506243" lon="10.620719900724021"><ele>320.0</ele><time>2026-05-03T09:41:12.942Z</time></trkpt><trkpt lat="43.07875649289547" lon="10.62081417355334"><ele>320.0</ele><time>2026-05-03T09:41:13.942Z</time></trkpt><trkpt lat="43.07879784055793" lon="10.620914880191341"><ele>320.0</ele><time>2026-05-03T09:41:14.942Z</time></trkpt><trkpt lat="43.07885430461316" lon="10.620994791816766"><ele>320.0</ele><time>2026-05-03T09:41:15.942Z</time></trkpt><trkpt lat="43.078930275350494" lon="10.621060545309943"><ele>320.0</ele><time>2026-05-03T09:41:16.942Z</time></trkpt><trkpt lat="43.07900722571164" lon="10.621130857305515"><ele>320.0</ele><time>2026-05-03T09:41:17.942Z</time></trkpt><trkpt lat="43.07908379195952" lon="10.621193041285501"><ele>322.5</ele><time>2026-05-03T09:41:18.942Z</time></trkpt><trkpt lat="43.07914859310877" lon="10.621251675545118"><ele>325.0</ele><time>2026-05-03T09:41:19.942Z</time></trkpt><trkpt lat="43.07921695889069" lon="10.621317642334217"><ele>327.5</ele><time>2026-05-03T09:41:20.942Z</time></trkpt><trkpt lat="43.07926238715013" lon="10.621393157306143"><ele>330.0</ele><time>2026-05-03T09:41:21.941Z</time></trkpt><trkpt lat="43.07932210677751" lon="10.621483336669339"><ele>332.5</ele><time>2026-05-03T09:41:22.941Z</time></trkpt><trkpt lat="43.07937395407607" lon="10.621574219490192"><ele>335.0</ele><time>2026-05-03T09:41:23.941Z</time></trkpt><trkpt lat="43.079427408447934" lon="10.621659717633232"><ele>335.0</ele><time>2026-05-03T09:41:24.941Z</time></trkpt><trkpt lat="43.079484201092974" lon="10.621722065870097"><ele>335.0</ele><time>2026-05-03T09:41:25.941Z</time></trkpt><trkpt lat="43.07953465454397" lon="10.621797007577113"><ele>335.0</ele><time>2026-05-03T09:41:26.941Z</time></trkpt><trkpt lat="43.07963450976795" lon="10.621915685828187"><ele>335.0</ele><time>2026-05-03T09:41:28.941Z</time></trkpt><trkpt lat="43.079734105691216" lon="10.622016198322767"><ele>335.0</ele><time>2026-05-03T09:41:30.941Z</time></trkpt><trkpt lat="43.07978920167195" lon="10.62208523259305"><ele>334.6666666666667</ele><time>2026-05-03T09:41:31.94Z</time></trkpt><trkpt lat="43.07984554372345" lon="10.622165406037803"><ele>334.33333333333337</ele><time>2026-05-03T09:41:32.94Z</time></trkpt><trkpt lat="43.07990244099211" lon="10.622249687856302"><ele>334.0</ele><time>2026-05-03T09:41:33.941Z</time></trkpt><trkpt lat="43.07996670125898" lon="10.622329615103922"><ele>333.6666666666667</ele><time>2026-05-03T09:41:34.941Z</time></trkpt><trkpt lat="43.08001983333661" lon="10.62240261192716"><ele>333.3333333333333</ele><time>2026-05-03T09:41:35.941Z</time></trkpt><trkpt lat="43.08008783648852" lon="10.62248348731436"><ele>333.0</ele><time>2026-05-03T09:41:36.941Z</time></trkpt><trkpt lat="43.08014085768102" lon="10.62255364739519"><ele>336.2857142857143</ele><time>2026-05-03T09:41:37.941Z</time></trkpt><trkpt lat="43.08019628511826" lon="10.622613030315327"><ele>339.57142857142856</ele><time>2026-05-03T09:41:38.941Z</time></trkpt><trkpt lat="43.08025159009615" lon="10.622655629311295"><ele>342.85714285714283</ele><time>2026-05-03T09:41:39.941Z</time></trkpt><trkpt lat="43.080319110423176" lon="10.622681916199724"><ele>346.1428571428571</ele><time>2026-05-03T09:41:40.941Z</time></trkpt><trkpt lat="43.08038408605737" lon="10.622687096255627"><ele>349.42857142857144</ele><time>2026-05-03T09:41:41.941Z</time></trkpt><trkpt lat="43.080450669428124" lon="10.622700262516886"><ele>352.71428571428567</ele><time>2026-05-03T09:41:42.941Z</time></trkpt><trkpt lat="43.080521904504565" lon="10.622720704276365"><ele>356.0</ele><time>2026-05-03T09:41:43.941Z</time></trkpt><trkpt lat="43.08060218100932" lon="10.622777222689294"><ele>356.99999999999994</ele><time>2026-05-03T09:41:44.941Z</time></trkpt><trkpt lat="43.08067149299519" lon="10.622835228664675"><ele>358.0</ele><time>2026-05-03T09:41:45.941Z</time></trkpt><trkpt lat="43.08073974155602" lon="10.62289097012612"><ele>359.0</ele><time>2026-05-03T09:41:46.941Z</time></trkpt><trkpt lat="43.08079508288598" lon="10.622942884295375"><ele>360.0</ele><time>2026-05-03T09:41:47.941Z</time></trkpt><trkpt lat="43.080855104518065" lon="10.623006812545409"><ele>361.0</ele><time>2026-05-03T09:41:48.941Z</time></trkpt><trkpt lat="43.080906375125764" lon="10.62307144442105"><ele>361.99999999999994</ele><time>2026-05-03T09:41:49.941Z</time></trkpt><trkpt lat="43.08095834644333" lon="10.62313359448983"><ele>363.0</ele><time>2026-05-03T09:41:50.941Z</time></trkpt><trkpt lat="43.081019679893934" lon="10.623197828433533"><ele>362.99999999999994</ele><time>2026-05-03T09:41:51.941Z</time></trkpt><trkpt lat="43.081068450256026" lon="10.623260939737188"><ele>363.0</ele><time>2026-05-03T09:41:52.941Z</time></trkpt><trkpt lat="43.08112822036673" lon="10.623330404625364"><ele>363.0</ele><time>2026-05-03T09:41:53.941Z</time></trkpt><trkpt lat="43.08118202358563" lon="10.623392347999115"><ele>363.0</ele><time>2026-05-03T09:41:54.941Z</time></trkpt><trkpt lat="43.08122751896665" lon="10.623468539219505"><ele>363.0</ele><time>2026-05-03T09:41:55.941Z</time></trkpt><trkpt lat="43.08128006084009" lon="10.623553367123396"><ele>362.99999999999994</ele><time>2026-05-03T09:41:56.941Z</time></trkpt><trkpt lat="43.08132848969331" lon="10.623634072436342"><ele>363.0</ele><time>2026-05-03T09:41:57.941Z</time></trkpt><trkpt lat="43.08138155305835" lon="10.623690813813539"><ele>361.3333333333333</ele><time>2026-05-03T09:41:58.941Z</time></trkpt><trkpt lat="43.081429925338654" lon="10.623746756966398"><ele>359.6666666666667</ele><time>2026-05-03T09:41:59.941Z</time></trkpt><trkpt lat="43.08154565912786" lon="10.623805740493413"><ele>358.0</ele><time>2026-05-03T09:42:01.941Z</time></trkpt><trkpt lat="43.08161127203772" lon="10.623823433094008"><ele>356.33333333333337</ele><time>2026-05-03T09:42:02.941Z</time></trkpt><trkpt lat="43.08172822878296" lon="10.62386056452647"><ele>354.6666666666667</ele><time>2026-05-03T09:42:04.941Z</time></trkpt><trkpt lat="43.08179230644409" lon="10.62388431701414"><ele>353.0</ele><time>2026-05-03T09:42:05.941Z</time></trkpt><trkpt lat="43.081905528373596" lon="10.623906224392561"><ele>357.1666666666667</ele><time>2026-05-03T09:42:07.941Z</time></trkpt><trkpt lat="43.08199305703937" lon="10.623983537101472"><ele>361.33333333333337</ele><time>2026-05-03T09:42:09.941Z</time></trkpt><trkpt lat="43.08205209066744" lon="10.624034135448222"><ele>365.5</ele><time>2026-05-03T09:42:10.941Z</time></trkpt><trkpt lat="43.08211009800763" lon="10.624079559350497"><ele>369.6666666666667</ele><time>2026-05-03T09:42:11.941Z</time></trkpt><trkpt lat="43.0821899792727" lon="10.624200796316213"><ele>373.8333333333333</ele><time>2026-05-03T09:42:13.941Z</time></trkpt><trkpt lat="43.082231623469205" lon="10.624276305676876"><ele>378.0</ele><time>2026-05-03T09:42:14.941Z</time></trkpt><trkpt lat="43.08227988618567" lon="10.624416595121508"><ele>377.2857142857143</ele><time>2026-05-03T09:42:16.941Z</time></trkpt><trkpt lat="43.082287144197856" lon="10.624520098278824"><ele>376.57142857142856</ele><time>2026-05-03T09:42:17.941Z</time></trkpt><trkpt lat="43.082297413623266" lon="10.624614471521706"><ele>375.8571428571429</ele><time>2026-05-03T09:42:18.941Z</time></trkpt><trkpt lat="43.082323996893614" lon="10.624694336448526"><ele>375.1428571428571</ele><time>2026-05-03T09:42:19.941Z</time></trkpt><trkpt lat="43.08236727537033" lon="10.624760013993532"><ele>374.42857142857144</ele><time>2026-05-03T09:42:20.941Z</time></trkpt><trkpt lat="43.08241353574548" lon="10.624840646079829"><ele>373.7142857142857</ele><time>2026-05-03T09:42:21.941Z</time></trkpt><trkpt lat="43.08245593556481" lon="10.624924933057555"><ele>373.0</ele><time>2026-05-03T09:42:22.941Z</time></trkpt><trkpt lat="43.08248679294666" lon="10.625016033444792"><ele>376.5</ele><time>2026-05-03T09:42:23.941Z</time></trkpt><trkpt lat="43.08251001940139" lon="10.625098727753064"><ele>380.0</ele><time>2026-05-03T09:42:24.941Z</time></trkpt><trkpt lat="43.08253391600168" lon="10.625186600233743"><ele>383.5</ele><time>2026-05-03T09:42:25.941Z</time></trkpt><trkpt lat="43.082563159396464" lon="10.625294867279326"><ele>387.0</ele><time>2026-05-03T09:42:26.941Z</time></trkpt><trkpt lat="43.08258560739624" lon="10.625392635911108"><ele>390.50000000000006</ele><time>2026-05-03T09:42:27.941Z</time></trkpt><trkpt lat="43.08260409153858" lon="10.625506930362498"><ele>394.0</ele><time>2026-05-03T09:42:28.941Z</time></trkpt><trkpt lat="43.08263667554255" lon="10.625629795475321"><ele>394.0</ele><time>2026-05-03T09:42:29.941Z</time></trkpt><trkpt lat="43.082643853127834" lon="10.625814628192837"><ele>394.0</ele><time>2026-05-03T09:42:31.941Z</time></trkpt><trkpt lat="43.082644250331825" lon="10.6259257270126"><ele>394.0</ele><time>2026-05-03T09:42:32.941Z</time></trkpt><trkpt lat="43.082658112642044" lon="10.626048185173872"><ele>394.0</ele><time>2026-05-03T09:42:33.941Z</time></trkpt><trkpt lat="43.08270736301532" lon="10.626204839301131"><ele>394.0</ele><time>2026-05-03T09:42:34.941Z</time></trkpt><trkpt lat="43.082737419470185" lon="10.62631918569129"><ele>392.6666666666667</ele><time>2026-05-03T09:42:35.941Z</time></trkpt><trkpt lat="43.08276955742171" lon="10.626418313232401"><ele>391.33333333333337</ele><time>2026-05-03T09:42:36.941Z</time></trkpt><trkpt lat="43.082805904139036" lon="10.62651880976463"><ele>390.0</ele><time>2026-05-03T09:42:37.941Z</time></trkpt><trkpt lat="43.08286055190588" lon="10.626613168669326"><ele>388.66666666666663</ele><time>2026-05-03T09:42:38.941Z</time></trkpt><trkpt lat="43.08290910088924" lon="10.62670596496924"><ele>387.3333333333333</ele><time>2026-05-03T09:42:39.941Z</time></trkpt><trkpt lat="43.0829708848764" lon="10.626797077822285"><ele>386.0</ele><time>2026-05-03T09:42:40.941Z</time></trkpt><trkpt lat="43.08304895800804" lon="10.62690248340076"><ele>386.8</ele><time>2026-05-03T09:42:41.941Z</time></trkpt><trkpt lat="43.083126684277545" lon="10.62701979782024"><ele>387.6</ele><time>2026-05-03T09:42:42.941Z</time></trkpt><trkpt lat="43.08319929562292" lon="10.627124486301627"><ele>388.4</ele><time>2026-05-03T09:42:43.941Z</time></trkpt><trkpt lat="43.08325006578143" lon="10.627235785434245"><ele>389.2</ele><time>2026-05-03T09:42:44.941Z</time></trkpt><trkpt lat="43.083295407935445" lon="10.627349228127382"><ele>390.0</ele><time>2026-05-03T09:42:45.941Z</time></trkpt><trkpt lat="43.08335516254707" lon="10.627454765184513"><ele>392.8333333333333</ele><time>2026-05-03T09:42:46.941Z</time></trkpt><trkpt lat="43.083425679986966" lon="10.627528745306012"><ele>395.66666666666663</ele><time>2026-05-03T09:42:47.941Z</time></trkpt><trkpt lat="43.083479263961465" lon="10.627597252811151"><ele>398.5</ele><time>2026-05-03T09:42:48.941Z</time></trkpt><trkpt lat="43.08352503906048" lon="10.627667704972017"><ele>401.3333333333333</ele><time>2026-05-03T09:42:49.941Z</time></trkpt><trkpt lat="43.083555816961066" lon="10.62778770719288"><ele>404.16666666666663</ele><time>2026-05-03T09:42:51.941Z</time></trkpt><trkpt lat="43.083509452391695" lon="10.62788341162674"><ele>407.0</ele><time>2026-05-03T09:42:55.941Z</time></trkpt><trkpt lat="43.0834390413144" lon="10.627947912053791"><ele>406.40000000000003</ele><time>2026-05-03T09:42:57.941Z</time></trkpt><trkpt lat="43.0833619823835" lon="10.627951778144533"><ele>405.8</ele><time>2026-05-03T09:42:58.942Z</time></trkpt><trkpt lat="43.083264757837874" lon="10.62799228745585"><ele>405.2</ele><time>2026-05-03T09:42:59.942Z</time></trkpt><trkpt lat="43.083148347156644" lon="10.6280111781342"><ele>404.6</ele><time>2026-05-03T09:43:00.942Z</time></trkpt><trkpt lat="43.08304494286419" lon="10.628046012274934"><ele>404.0</ele><time>2026-05-03T09:43:01.942Z</time></trkpt><trkpt lat="43.08295749670304" lon="10.628099079554088"><ele>404.0</ele><time>2026-05-03T09:43:02.942Z</time></trkpt><trkpt lat="43.082869094699575" lon="10.628169945257355"><ele>404.0</ele><time>2026-05-03T09:43:03.942Z</time></trkpt><trkpt lat="43.082772466592324" lon="10.62825554388315"><ele>404.0</ele><time>2026-05-03T09:43:04.942Z</time></trkpt><trkpt lat="43.082707452920815" lon="10.62832198154615"><ele>404.0</ele><time>2026-05-03T09:43:05.942Z</time></trkpt><trkpt lat="43.08264040374022" lon="10.628369037546296"><ele>404.0</ele><time>2026-05-03T09:43:06.942Z</time></trkpt><trkpt lat="43.0825718649412" lon="10.628479485179948"><ele>403.99999999999994</ele><time>2026-05-03T09:43:08.942Z</time></trkpt><trkpt lat="43.08254146524513" lon="10.628603218800961"><ele>404.0</ele><time>2026-05-03T09:43:11.942Z</time></trkpt><trkpt lat="43.08251836598466" lon="10.628705782677054"><ele>404.0</ele><time>2026-05-03T09:43:14.942Z</time></trkpt><trkpt lat="43.08250467526205" lon="10.628799798352935"><ele>404.0</ele><time>2026-05-03T09:43:18.942Z</time></trkpt><trkpt lat="43.082468019888175" lon="10.628641290992908"><ele>403.99999999999994</ele><time>2026-05-03T09:43:28.941Z</time></trkpt><trkpt lat="43.0824757015944" lon="10.628553976902365"><ele>404.0</ele><time>2026-05-03T09:43:29.941Z</time></trkpt><trkpt lat="43.082507578419005" lon="10.628456197571847"><ele>403.99999999999994</ele><time>2026-05-03T09:43:31.941Z</time></trkpt><trkpt lat="43.08243744753732" lon="10.62851761637135"><ele>404.0</ele><time>2026-05-03T09:43:35.941Z</time></trkpt><trkpt lat="43.08237716673219" lon="10.628621856315478"><ele>404.0</ele><time>2026-05-03T09:43:37.941Z</time></trkpt><trkpt lat="43.08231932694215" lon="10.628698094764001"><ele>404.0</ele><time>2026-05-03T09:43:39.941Z</time></trkpt><trkpt lat="43.0822554125336" lon="10.62873080219531"><ele>403.99999999999994</ele><time>2026-05-03T09:43:41.941Z</time></trkpt><trkpt lat="43.08217879726722" lon="10.628722195473818"><ele>404.0</ele><time>2026-05-03T09:43:44.941Z</time></trkpt><trkpt lat="43.08227016677929" lon="10.628657176444422"><ele>404.0</ele><time>2026-05-03T09:43:51.941Z</time></trkpt><trkpt lat="43.082318129914654" lon="10.628595861422786"><ele>404.0</ele><time>2026-05-03T09:43:53.941Z</time></trkpt><trkpt lat="43.08236950574458" lon="10.62851748640149"><ele>404.0</ele><time>2026-05-03T09:43:56.941Z</time></trkpt><trkpt lat="43.08242747444742" lon="10.628469391247172"><ele>404.0</ele><time>2026-05-03T09:43:59.941Z</time></trkpt><trkpt lat="43.08245179072308" lon="10.628554416694788"><ele>404.0</ele><time>2026-05-03T09:44:01.941Z</time></trkpt><trkpt lat="43.08242525140562" lon="10.628647705104587"><ele>404.0</ele><time>2026-05-03T09:44:02.941Z</time></trkpt><trkpt lat="43.08241057090575" lon="10.628746819817149"><ele>404.0</ele><time>2026-05-03T09:44:03.941Z</time></trkpt><trkpt lat="43.08240395045554" lon="10.628863075669173"><ele>405.66666666666663</ele><time>2026-05-03T09:44:04.941Z</time></trkpt><trkpt lat="43.082401794901166" lon="10.628962577695688"><ele>407.3333333333333</ele><time>2026-05-03T09:44:05.941Z</time></trkpt><trkpt lat="43.08240467774376" lon="10.629049531161177"><ele>409.0</ele><time>2026-05-03T09:44:06.941Z</time></trkpt><trkpt lat="43.082392990018526" lon="10.62918449654549"><ele>410.66666666666663</ele><time>2026-05-03T09:44:08.941Z</time></trkpt><trkpt lat="43.08240673108479" lon="10.62927844894689"><ele>412.3333333333333</ele><time>2026-05-03T09:44:09.941Z</time></trkpt><trkpt lat="43.082426956795686" lon="10.629413683543065"><ele>414.0</ele><time>2026-05-03T09:44:10.941Z</time></trkpt><trkpt lat="43.08245294277673" lon="10.629575894934232"><ele>414.0</ele><time>2026-05-03T09:44:11.941Z</time></trkpt><trkpt lat="43.082494209336495" lon="10.629717469977004"><ele>414.0</ele><time>2026-05-03T09:44:12.941Z</time></trkpt><trkpt lat="43.08251767236677" lon="10.629828578601996"><ele>414.0</ele><time>2026-05-03T09:44:13.941Z</time></trkpt><trkpt lat="43.08253827869069" lon="10.62995578816858"><ele>414.0</ele><time>2026-05-03T09:44:14.941Z</time></trkpt><trkpt lat="43.08254154915731" lon="10.63007136276555"><ele>414.0</ele><time>2026-05-03T09:44:15.941Z</time></trkpt><trkpt lat="43.08253247594739" lon="10.630215396617444"><ele>414.0</ele><time>2026-05-03T09:44:17.941Z</time></trkpt><trkpt lat="43.08249496325364" lon="10.630287505490513"><ele>414.0</ele><time>2026-05-03T09:44:19.941Z</time></trkpt><trkpt lat="43.082434342271156" lon="10.630331829184817"><ele>414.0</ele><time>2026-05-03T09:44:21.941Z</time></trkpt><trkpt lat="43.08233117417741" lon="10.63037950614179"><ele>414.0</ele><time>2026-05-03T09:44:24.941Z</time></trkpt><trkpt lat="43.08224997338374" lon="10.630372311812486"><ele>414.0</ele><time>2026-05-03T09:44:25.941Z</time></trkpt><trkpt lat="43.082173737442496" lon="10.630330329228206"><ele>414.0</ele><time>2026-05-03T09:44:26.941Z</time></trkpt><trkpt lat="43.082112308432706" lon="10.630279162717853"><ele>411.2</ele><time>2026-05-03T09:44:27.941Z</time></trkpt><trkpt lat="43.08200935003712" lon="10.630222963333065"><ele>408.4</ele><time>2026-05-03T09:44:29.941Z</time></trkpt><trkpt lat="43.08190341104281" lon="10.630235438592893"><ele>405.6</ele><time>2026-05-03T09:44:31.941Z</time></trkpt><trkpt lat="43.081820107333066" lon="10.630115110275487"><ele>402.8</ele><time>2026-05-03T09:44:33.941Z</time></trkpt><trkpt lat="43.08176016136292" lon="10.630003892987745"><ele>400.0</ele><time>2026-05-03T09:44:35.941Z</time></trkpt><trkpt lat="43.081677551065" lon="10.629994535132116"><ele>400.0</ele><time>2026-05-03T09:44:38.941Z</time></trkpt><trkpt lat="43.08165712149801" lon="10.629909779045573"><ele>400.0</ele><time>2026-05-03T09:44:46.941Z</time></trkpt><trkpt lat="43.08163192178764" lon="10.630059903823062"><ele>400.0</ele><time>2026-05-03T09:45:07.942Z</time></trkpt><trkpt lat="43.081592464584304" lon="10.630187752574747"><ele>400.0</ele><time>2026-05-03T09:45:08.942Z</time></trkpt><trkpt lat="43.081539160644475" lon="10.630344646924774"><ele>400.0</ele><time>2026-05-03T09:45:09.942Z</time></trkpt><trkpt lat="43.081485399287835" lon="10.630502290799246"><ele>395.5</ele><time>2026-05-03T09:45:10.942Z</time></trkpt><trkpt lat="43.08142343865099" lon="10.630634556228122"><ele>391.0</ele><time>2026-05-03T09:45:11.942Z</time></trkpt><trkpt lat="43.081366101407994" lon="10.63078887522511"><ele>386.5</ele><time>2026-05-03T09:45:12.942Z</time></trkpt><trkpt lat="43.08131366761908" lon="10.63092872128308"><ele>382.0</ele><time>2026-05-03T09:45:13.942Z</time></trkpt><trkpt lat="43.08125044561573" lon="10.63104824547012"><ele>383.40000000000003</ele><time>2026-05-03T09:45:14.942Z</time></trkpt><trkpt lat="43.081203035138984" lon="10.631161766098721"><ele>384.8</ele><time>2026-05-03T09:45:15.942Z</time></trkpt><trkpt lat="43.081157968647844" lon="10.631279056093652"><ele>386.2</ele><time>2026-05-03T09:45:16.942Z</time></trkpt><trkpt lat="43.08110302591739" lon="10.631391790995036"><ele>387.6</ele><time>2026-05-03T09:45:17.942Z</time></trkpt><trkpt lat="43.08105434859533" lon="10.63151614241352"><ele>389.0</ele><time>2026-05-03T09:45:18.942Z</time></trkpt><trkpt lat="43.080993246318556" lon="10.631639259866203"><ele>388.99999999999994</ele><time>2026-05-03T09:45:19.942Z</time></trkpt><trkpt lat="43.08092617972407" lon="10.631752414962403"><ele>389.0</ele><time>2026-05-03T09:45:20.942Z</time></trkpt><trkpt lat="43.080872188468426" lon="10.631851246209502"><ele>389.0</ele><time>2026-05-03T09:45:21.942Z</time></trkpt><trkpt lat="43.080825664397885" lon="10.631944022261548"><ele>389.0</ele><time>2026-05-03T09:45:22.942Z</time></trkpt><trkpt lat="43.080808109763026" lon="10.632036681942045"><ele>388.99999999999994</ele><time>2026-05-03T09:45:23.942Z</time></trkpt><trkpt lat="43.0807988637253" lon="10.632154385834617"><ele>389.0</ele><time>2026-05-03T09:45:24.942Z</time></trkpt><trkpt lat="43.080790090376986" lon="10.632300556903608"><ele>388.8333333333333</ele><time>2026-05-03T09:45:25.942Z</time></trkpt><trkpt lat="43.08077672711389" lon="10.632428622734329"><ele>388.66666666666663</ele><time>2026-05-03T09:45:26.942Z</time></trkpt><trkpt lat="43.08076613482769" lon="10.632536562357773"><ele>388.5</ele><time>2026-05-03T09:45:27.942Z</time></trkpt><trkpt lat="43.080760060762294" lon="10.632624812027217"><ele>388.33333333333337</ele><time>2026-05-03T09:45:28.942Z</time></trkpt><trkpt lat="43.0807336799654" lon="10.632750287677835"><ele>388.1666666666667</ele><time>2026-05-03T09:45:30.942Z</time></trkpt><trkpt lat="43.08070084287575" lon="10.632836077770623"><ele>388.0</ele><time>2026-05-03T09:45:37.941Z</time></trkpt><trkpt lat="43.08063195232886" lon="10.63285704467285"><ele>384.79999999999995</ele><time>2026-05-03T09:45:39.941Z</time></trkpt><trkpt lat="43.0805197173517" lon="10.632927764312155"><ele>381.6</ele><time>2026-05-03T09:45:41.941Z</time></trkpt><trkpt lat="43.08045052630463" lon="10.632987348552653"><ele>378.4</ele><time>2026-05-03T09:45:42.941Z</time></trkpt><trkpt lat="43.08036728981355" lon="10.633040536974306"><ele>375.20000000000005</ele><time>2026-05-03T09:45:43.941Z</time></trkpt><trkpt lat="43.08028423561283" lon="10.633091241306028"><ele>372.0</ele><time>2026-05-03T09:45:44.941Z</time></trkpt><trkpt lat="43.080192194323615" lon="10.63315572770103"><ele>372.0</ele><time>2026-05-03T09:45:45.941Z</time></trkpt><trkpt lat="43.08011793629491" lon="10.633218880581133"><ele>372.0</ele><time>2026-05-03T09:45:46.941Z</time></trkpt><trkpt lat="43.08005843595014" lon="10.633252768055884"><ele>372.0</ele><time>2026-05-03T09:45:47.941Z</time></trkpt><trkpt lat="43.08004678025926" lon="10.633401576606763"><ele>372.0</ele><time>2026-05-03T09:45:51.941Z</time></trkpt><trkpt lat="43.0800334614685" lon="10.633486130490937"><ele>372.0</ele><time>2026-05-03T09:45:52.941Z</time></trkpt><trkpt lat="43.07997336768437" lon="10.633619696713392"><ele>372.0</ele><time>2026-05-03T09:45:53.941Z</time></trkpt><trkpt lat="43.079914918773625" lon="10.633720205802895"><ele>371.1666666666667</ele><time>2026-05-03T09:45:54.941Z</time></trkpt><trkpt lat="43.07988883393687" lon="10.633823922639232"><ele>370.3333333333333</ele><time>2026-05-03T09:45:55.941Z</time></trkpt><trkpt lat="43.07986885922787" lon="10.63394106978489"><ele>369.5</ele><time>2026-05-03T09:45:56.941Z</time></trkpt><trkpt lat="43.07984838293279" lon="10.63403819252127"><ele>368.66666666666663</ele><time>2026-05-03T09:45:57.941Z</time></trkpt><trkpt lat="43.07979733740957" lon="10.634202636881819"><ele>367.8333333333333</ele><time>2026-05-03T09:45:59.941Z</time></trkpt><trkpt lat="43.079765966107125" lon="10.634292739777424"><ele>367.0</ele><time>2026-05-03T09:46:00.941Z</time></trkpt><trkpt lat="43.079672166311035" lon="10.634413145119025"><ele>365.8333333333333</ele><time>2026-05-03T09:46:02.941Z</time></trkpt><trkpt lat="43.07955326617219" lon="10.634481411728878"><ele>364.66666666666663</ele><time>2026-05-03T09:46:04.941Z</time></trkpt><trkpt lat="43.07948610518198" lon="10.63450514150146"><ele>363.5</ele><time>2026-05-03T09:46:05.941Z</time></trkpt><trkpt lat="43.07940763727759" lon="10.634553048207778"><ele>362.3333333333333</ele><time>2026-05-03T09:46:06.941Z</time></trkpt><trkpt lat="43.07934713102449" lon="10.634604386570869"><ele>361.1666666666667</ele><time>2026-05-03T09:46:07.941Z</time></trkpt><trkpt lat="43.07928815731632" lon="10.634660865944939"><ele>360.0</ele><time>2026-05-03T09:46:08.941Z</time></trkpt><trkpt lat="43.07923178014701" lon="10.634726107419096"><ele>360.0</ele><time>2026-05-03T09:46:09.941Z</time></trkpt><trkpt lat="43.07915497353963" lon="10.63474192775676"><ele>360.0</ele><time>2026-05-03T09:46:14.941Z</time></trkpt><trkpt lat="43.07909388208292" lon="10.634762744863513"><ele>360.0</ele><time>2026-05-03T09:46:20.941Z</time></trkpt><trkpt lat="43.07909447959866" lon="10.634853859089864"><ele>360.0</ele><time>2026-05-03T09:46:29.941Z</time></trkpt><trkpt lat="43.079075520501185" lon="10.634938322212635"><ele>360.0</ele><time>2026-05-03T09:46:31.941Z</time></trkpt><trkpt lat="43.07901163913324" lon="10.635005802864258"><ele>360.0</ele><time>2026-05-03T09:46:33.941Z</time></trkpt><trkpt lat="43.078944214669306" lon="10.635048114787532"><ele>360.0</ele><time>2026-05-03T09:46:35.941Z</time></trkpt><trkpt lat="43.07886808920002" lon="10.635177855362706"><ele>356.4</ele><time>2026-05-03T09:46:37.942Z</time></trkpt><trkpt lat="43.078810825847924" lon="10.63530542229085"><ele>352.8</ele><time>2026-05-03T09:46:38.942Z</time></trkpt><trkpt lat="43.078781398812346" lon="10.63542007692924"><ele>349.20000000000005</ele><time>2026-05-03T09:46:39.942Z</time></trkpt><trkpt lat="43.078754694172034" lon="10.635540250042517"><ele>345.6</ele><time>2026-05-03T09:46:40.942Z</time></trkpt><trkpt lat="43.078726767884376" lon="10.635626767964874"><ele>342.0</ele><time>2026-05-03T09:46:41.942Z</time></trkpt><trkpt lat="43.07870975148054" lon="10.635763142612563"><ele>342.0</ele><time>2026-05-03T09:46:43.942Z</time></trkpt><trkpt lat="43.07870039114825" lon="10.635874545560627"><ele>342.0</ele><time>2026-05-03T09:46:44.942Z</time></trkpt><trkpt lat="43.07866418740539" lon="10.635982355498296"><ele>342.0</ele><time>2026-05-03T09:46:45.942Z</time></trkpt><trkpt lat="43.078620245913875" lon="10.636074314636065"><ele>342.0</ele><time>2026-05-03T09:46:46.942Z</time></trkpt><trkpt lat="43.07857853101417" lon="10.636146102313905"><ele>342.0</ele><time>2026-05-03T09:46:47.942Z</time></trkpt><trkpt lat="43.07853412741526" lon="10.636317143653613"><ele>342.0</ele><time>2026-05-03T09:46:49.942Z</time></trkpt><trkpt lat="43.07852140888883" lon="10.636451951165746"><ele>341.8333333333333</ele><time>2026-05-03T09:46:50.942Z</time></trkpt><trkpt lat="43.078510317052256" lon="10.636545740549318"><ele>341.6666666666667</ele><time>2026-05-03T09:46:51.942Z</time></trkpt><trkpt lat="43.07849790792738" lon="10.63666194467804"><ele>341.5</ele><time>2026-05-03T09:46:54.942Z</time></trkpt><trkpt lat="43.0785296015991" lon="10.636772524674376"><ele>341.33333333333337</ele><time>2026-05-03T09:46:56.942Z</time></trkpt><trkpt lat="43.078503592907" lon="10.636896603371667"><ele>341.1666666666667</ele><time>2026-05-03T09:46:58.942Z</time></trkpt><trkpt lat="43.078474841144995" lon="10.636983077498147"><ele>341.0</ele><time>2026-05-03T09:47:00.942Z</time></trkpt><trkpt lat="43.07849484758493" lon="10.637085039801965"><ele>338.5</ele><time>2026-05-03T09:47:02.942Z</time></trkpt><trkpt lat="43.07852039669043" lon="10.637218899623486"><ele>336.0</ele><time>2026-05-03T09:47:05.942Z</time></trkpt><trkpt lat="43.078527127542834" lon="10.637307769565572"><ele>333.5</ele><time>2026-05-03T09:47:06.942Z</time></trkpt><trkpt lat="43.0785277850223" lon="10.637417048121522"><ele>331.0</ele><time>2026-05-03T09:47:07.942Z</time></trkpt><trkpt lat="43.078500403324156" lon="10.637559401240031"><ele>328.5</ele><time>2026-05-03T09:47:09.942Z</time></trkpt><trkpt lat="43.07846973740642" lon="10.637682113231108"><ele>326.0</ele><time>2026-05-03T09:47:11.942Z</time></trkpt><trkpt lat="43.07844591450823" lon="10.637801239706423"><ele>323.5</ele><time>2026-05-03T09:47:13.942Z</time></trkpt><trkpt lat="43.07839746892158" lon="10.637925090839056"><ele>321.0</ele><time>2026-05-03T09:47:15.942Z</time></trkpt><trkpt lat="43.07831121667063" lon="10.637957405697854"><ele>318.5</ele><time>2026-05-03T09:47:17.942Z</time></trkpt><trkpt lat="43.078302384598615" lon="10.638049744189377"><ele>316.0</ele><time>2026-05-03T09:47:19.942Z</time></trkpt><trkpt lat="43.0782185248779" lon="10.638088686648448"><ele>313.5</ele><time>2026-05-03T09:47:21.942Z</time></trkpt><trkpt lat="43.07815578932744" lon="10.638102583447862"><ele>311.0</ele><time>2026-05-03T09:47:23.942Z</time></trkpt><trkpt lat="43.078126632097934" lon="10.6381999174471"><ele>306.40000000000003</ele><time>2026-05-03T09:47:25.942Z</time></trkpt><trkpt lat="43.07812447413845" lon="10.63834033782272"><ele>301.8</ele><time>2026-05-03T09:47:27.942Z</time></trkpt><trkpt lat="43.07816284704177" lon="10.638477544338501"><ele>297.20000000000005</ele><time>2026-05-03T09:47:29.942Z</time></trkpt><trkpt lat="43.07818426294243" lon="10.638572935622063"><ele>292.6</ele><time>2026-05-03T09:47:31.942Z</time></trkpt><trkpt lat="43.07826238429198" lon="10.638648814813024"><ele>288.0</ele><time>2026-05-03T09:47:34.942Z</time></trkpt><trkpt lat="43.07831920708581" lon="10.63873925296936"><ele>288.0</ele><time>2026-05-03T09:47:36.942Z</time></trkpt><trkpt lat="43.07833467711563" lon="10.638852860056211"><ele>288.0</ele><time>2026-05-03T09:47:39.941Z</time></trkpt><trkpt lat="43.07833286595125" lon="10.638980362745729"><ele>288.0</ele><time>2026-05-03T09:47:41.942Z</time></trkpt><trkpt lat="43.07834001192997" lon="10.63909693087774"><ele>288.0</ele><time>2026-05-03T09:47:43.941Z</time></trkpt><trkpt lat="43.078334293330684" lon="10.63918648114857"><ele>288.0</ele><time>2026-05-03T09:47:45.941Z</time></trkpt><trkpt lat="43.07835419894953" lon="10.639319871229034"><ele>288.0</ele><time>2026-05-03T09:47:47.941Z</time></trkpt><trkpt lat="43.07836958243961" lon="10.639474118847382"><ele>285.1666666666667</ele><time>2026-05-03T09:47:49.941Z</time></trkpt><trkpt lat="43.078407566233295" lon="10.639616513797458"><ele>282.3333333333333</ele><time>2026-05-03T09:47:51.941Z</time></trkpt><trkpt lat="43.078411818054775" lon="10.639703699920496"><ele>279.5</ele><time>2026-05-03T09:47:52.942Z</time></trkpt><trkpt lat="43.07839739169582" lon="10.639827588064946"><ele>276.66666666666663</ele><time>2026-05-03T09:47:54.942Z</time></trkpt><trkpt lat="43.07834588650754" lon="10.639894417952931"><ele>273.8333333333333</ele><time>2026-05-03T09:47:56.942Z</time></trkpt><trkpt lat="43.07825421894926" lon="10.639910830528848"><ele>271.0</ele><time>2026-05-03T09:47:59.942Z</time></trkpt><trkpt lat="43.07817430406631" lon="10.639882324865138"><ele>266.16666666666663</ele><time>2026-05-03T09:48:01.942Z</time></trkpt><trkpt lat="43.07808685054915" lon="10.639826370076628"><ele>261.3333333333333</ele><time>2026-05-03T09:48:03.942Z</time></trkpt><trkpt lat="43.07801794616644" lon="10.639833923114136"><ele>256.5</ele><time>2026-05-03T09:48:05.942Z</time></trkpt><trkpt lat="43.07795527410458" lon="10.639780880010496"><ele>251.66666666666669</ele><time>2026-05-03T09:48:08.942Z</time></trkpt><trkpt lat="43.07791225113123" lon="10.639703082863658"><ele>246.83333333333334</ele><time>2026-05-03T09:48:10.942Z</time></trkpt><trkpt lat="43.07786910445732" lon="10.639617370165562"><ele>242.0</ele><time>2026-05-03T09:48:12.942Z</time></trkpt><trkpt lat="43.07782923236793" lon="10.639515600017836"><ele>245.50000000000003</ele><time>2026-05-03T09:48:14.942Z</time></trkpt><trkpt lat="43.07775566036695" lon="10.63940563871836"><ele>249.0</ele><time>2026-05-03T09:48:16.942Z</time></trkpt><trkpt lat="43.07769389791909" lon="10.639296964605014"><ele>252.5</ele><time>2026-05-03T09:48:18.942Z</time></trkpt><trkpt lat="43.077646014815414" lon="10.639230692690353"><ele>256.0</ele><time>2026-05-03T09:48:19.942Z</time></trkpt><trkpt lat="43.077601905991585" lon="10.639156287428705"><ele>259.5</ele><time>2026-05-03T09:48:20.942Z</time></trkpt><trkpt lat="43.07755723199255" lon="10.63909217720703"><ele>263.0</ele><time>2026-05-03T09:48:21.942Z</time></trkpt><trkpt lat="43.077513546775755" lon="10.639007871089115"><ele>263.0</ele><time>2026-05-03T09:48:22.942Z</time></trkpt><trkpt lat="43.07747364186391" lon="10.63892966924498"><ele>263.0</ele><time>2026-05-03T09:48:23.942Z</time></trkpt><trkpt lat="43.07743494494757" lon="10.638860811395942"><ele>263.0</ele><time>2026-05-03T09:48:24.942Z</time></trkpt><trkpt lat="43.07740289842869" lon="10.638778520954618"><ele>263.0</ele><time>2026-05-03T09:48:25.942Z</time></trkpt><trkpt lat="43.077386824332144" lon="10.638685178541737"><ele>263.0</ele><time>2026-05-03T09:48:26.942Z</time></trkpt><trkpt lat="43.07737758464222" lon="10.638533402264162"><ele>263.0</ele><time>2026-05-03T09:48:28.942Z</time></trkpt><trkpt lat="43.07735810580043" lon="10.638409531390359"><ele>259.83333333333337</ele><time>2026-05-03T09:48:30.942Z</time></trkpt><trkpt lat="43.07731932261831" lon="10.638334201529073"><ele>256.6666666666667</ele><time>2026-05-03T09:48:32.942Z</time></trkpt><trkpt lat="43.07727091116335" lon="10.638397209175489"><ele>253.5</ele><time>2026-05-03T09:48:35.942Z</time></trkpt><trkpt lat="43.0773307245169" lon="10.638476450808033"><ele>250.33333333333331</ele><time>2026-05-03T09:48:37.942Z</time></trkpt><trkpt lat="43.07739232447293" lon="10.63861238619497"><ele>247.16666666666666</ele><time>2026-05-03T09:48:39.942Z</time></trkpt><trkpt lat="43.07740267907211" lon="10.638731009289028"><ele>244.0</ele><time>2026-05-03T09:48:40.942Z</time></trkpt><trkpt lat="43.07742673245165" lon="10.63885085982203"><ele>243.5</ele><time>2026-05-03T09:48:41.942Z</time></trkpt><trkpt lat="43.07747525315673" lon="10.638964908431145"><ele>243.0</ele><time>2026-05-03T09:48:42.942Z</time></trkpt><trkpt lat="43.07756683168419" lon="10.639103491087198"><ele>242.5</ele><time>2026-05-03T09:48:43.942Z</time></trkpt><trkpt lat="43.07768030890378" lon="10.639277628202466"><ele>242.0</ele><time>2026-05-03T09:48:44.942Z</time></trkpt><trkpt lat="43.07780089956136" lon="10.639491473805657"><ele>242.0</ele><time>2026-05-03T09:48:45.942Z</time></trkpt><trkpt lat="43.077942198241985" lon="10.639763714520496"><ele>242.0</ele><time>2026-05-03T09:48:46.942Z</time></trkpt><trkpt lat="43.07804319954283" lon="10.639982011685587"><ele>242.0</ele><time>2026-05-03T09:48:47.942Z</time></trkpt><trkpt lat="43.0781071040977" lon="10.64010737385827"><ele>242.0</ele><time>2026-05-03T09:48:48.942Z</time></trkpt><trkpt lat="43.07815035002787" lon="10.640198250730625"><ele>242.0</ele><time>2026-05-03T09:48:49.942Z</time></trkpt><trkpt lat="43.07825380699556" lon="10.640292793230318"><ele>242.0</ele><time>2026-05-03T09:48:51.942Z</time></trkpt><trkpt lat="43.078333651898475" lon="10.64030019128841"><ele>242.0</ele><time>2026-05-03T09:48:52.942Z</time></trkpt><trkpt lat="43.07842903268497" lon="10.640284546132227"><ele>242.0</ele><time>2026-05-03T09:48:53.942Z</time></trkpt><trkpt lat="43.07851378419825" lon="10.640239859020701"><ele>247.8</ele><time>2026-05-03T09:48:54.942Z</time></trkpt><trkpt lat="43.07857366498444" lon="10.64017168738475"><ele>253.6</ele><time>2026-05-03T09:48:55.942Z</time></trkpt><trkpt lat="43.078615413277404" lon="10.64009304033998"><ele>259.40000000000003</ele><time>2026-05-03T09:48:56.942Z</time></trkpt><trkpt lat="43.078665444616966" lon="10.639967081490347"><ele>265.2</ele><time>2026-05-03T09:48:57.942Z</time></trkpt><trkpt lat="43.0787308405671" lon="10.63980072243563"><ele>271.0</ele><time>2026-05-03T09:48:58.942Z</time></trkpt><trkpt lat="43.0788110455099" lon="10.639598201500482"><ele>276.66666666666663</ele><time>2026-05-03T09:48:59.942Z</time></trkpt><trkpt lat="43.07890427032952" lon="10.639363384226998"><ele>282.3333333333333</ele><time>2026-05-03T09:49:00.942Z</time></trkpt><trkpt lat="43.078985895570625" lon="10.639113974771773"><ele>288.0</ele><time>2026-05-03T09:49:01.942Z</time></trkpt><trkpt lat="43.07906788530804" lon="10.63889542600661"><ele>286.3333333333333</ele><time>2026-05-03T09:49:02.942Z</time></trkpt><trkpt lat="43.079145300034185" lon="10.63867903116934"><ele>284.66666666666663</ele><time>2026-05-03T09:49:03.942Z</time></trkpt><trkpt lat="43.07921714589406" lon="10.638486505309285"><ele>283.0</ele><time>2026-05-03T09:49:04.942Z</time></trkpt><trkpt lat="43.079267518420494" lon="10.638316137995"><ele>283.0</ele><time>2026-05-03T09:49:05.942Z</time></trkpt><trkpt lat="43.07932337814989" lon="10.638193829090335"><ele>283.0</ele><time>2026-05-03T09:49:06.942Z</time></trkpt><trkpt lat="43.07936423076819" lon="10.638071674393473"><ele>283.0</ele><time>2026-05-03T09:49:07.942Z</time></trkpt><trkpt lat="43.07939512506815" lon="10.63795639903612"><ele>283.0</ele><time>2026-05-03T09:49:08.942Z</time></trkpt><trkpt lat="43.07945766270671" lon="10.637767677062934"><ele>283.0</ele><time>2026-05-03T09:49:10.942Z</time></trkpt><trkpt lat="43.07952561819577" lon="10.637660193728694"><ele>283.0</ele><time>2026-05-03T09:49:12.942Z</time></trkpt><trkpt lat="43.0796243533395" lon="10.637636532776645"><ele>283.0</ele><time>2026-05-03T09:49:14.942Z</time></trkpt><trkpt lat="43.07971979746493" lon="10.637633952457293"><ele>283.0</ele><time>2026-05-03T09:49:16.942Z</time></trkpt><trkpt lat="43.079818962396466" lon="10.637707354868386"><ele>283.0</ele><time>2026-05-03T09:49:18.942Z</time></trkpt><trkpt lat="43.07986526799064" lon="10.637777263804844"><ele>283.0</ele><time>2026-05-03T09:49:19.942Z</time></trkpt><trkpt lat="43.079919941046775" lon="10.637919333570146"><ele>280.3333333333333</ele><time>2026-05-03T09:49:21.942Z</time></trkpt><trkpt lat="43.07994556377008" lon="10.638002554050079"><ele>277.66666666666663</ele><time>2026-05-03T09:49:22.942Z</time></trkpt><trkpt lat="43.07998346460932" lon="10.6380954185524"><ele>275.0</ele><time>2026-05-03T09:49:23.942Z</time></trkpt><trkpt lat="43.08002509320967" lon="10.638180769665741"><ele>272.3333333333333</ele><time>2026-05-03T09:49:24.942Z</time></trkpt><trkpt lat="43.080065564578994" lon="10.638293706821921"><ele>269.6666666666667</ele><time>2026-05-03T09:49:25.942Z</time></trkpt><trkpt lat="43.080109649839606" lon="10.638411207394105"><ele>267.0</ele><time>2026-05-03T09:49:26.942Z</time></trkpt><trkpt lat="43.08015726579311" lon="10.638531799166545"><ele>262.25</ele><time>2026-05-03T09:49:27.942Z</time></trkpt><trkpt lat="43.08021657067899" lon="10.638651484277881"><ele>257.5</ele><time>2026-05-03T09:49:28.942Z</time></trkpt><trkpt lat="43.0802760171838" lon="10.638778826701289"><ele>252.75</ele><time>2026-05-03T09:49:29.942Z</time></trkpt><trkpt lat="43.08033541644781" lon="10.638924763472623"><ele>248.0</ele><time>2026-05-03T09:49:30.942Z</time></trkpt><trkpt lat="43.080396374412956" lon="10.639082966816645"><ele>248.0</ele><time>2026-05-03T09:49:31.942Z</time></trkpt><trkpt lat="43.08045497047073" lon="10.639235041726126"><ele>248.0</ele><time>2026-05-03T09:49:32.942Z</time></trkpt><trkpt lat="43.08050581874214" lon="10.639369073508544"><ele>248.0</ele><time>2026-05-03T09:49:33.942Z</time></trkpt><trkpt lat="43.08054931985263" lon="10.63949813989485"><ele>248.0</ele><time>2026-05-03T09:49:34.942Z</time></trkpt><trkpt lat="43.08061090903368" lon="10.639628801204056"><ele>250.25</ele><time>2026-05-03T09:49:35.942Z</time></trkpt><trkpt lat="43.080700240772615" lon="10.6397909658206"><ele>252.5</ele><time>2026-05-03T09:49:36.942Z</time></trkpt><trkpt lat="43.08078733817459" lon="10.639944877169544"><ele>254.75</ele><time>2026-05-03T09:49:37.942Z</time></trkpt><trkpt lat="43.08087015242285" lon="10.64008354639172"><ele>257.0</ele><time>2026-05-03T09:49:38.942Z</time></trkpt><trkpt lat="43.08094409889795" lon="10.640179476676785"><ele>257.0</ele><time>2026-05-03T09:49:39.942Z</time></trkpt><trkpt lat="43.081014955195705" lon="10.64024288040133"><ele>257.0</ele><time>2026-05-03T09:49:40.942Z</time></trkpt><trkpt lat="43.08112416304267" lon="10.640294156939376"><ele>257.0</ele><time>2026-05-03T09:49:41.942Z</time></trkpt><trkpt lat="43.08125167761619" lon="10.640366512856009"><ele>257.0</ele><time>2026-05-03T09:49:42.942Z</time></trkpt><trkpt lat="43.08138838397159" lon="10.640433931006404"><ele>251.5</ele><time>2026-05-03T09:49:43.942Z</time></trkpt><trkpt lat="43.08152349874648" lon="10.640475966780707"><ele>246.0</ele><time>2026-05-03T09:49:44.942Z</time></trkpt><trkpt lat="43.08164553352043" lon="10.640489889349565"><ele>240.5</ele><time>2026-05-03T09:49:45.941Z</time></trkpt><trkpt lat="43.08174576517945" lon="10.640484407020224"><ele>235.0</ele><time>2026-05-03T09:49:46.941Z</time></trkpt><trkpt lat="43.081843617090385" lon="10.640467295978016"><ele>235.0</ele><time>2026-05-03T09:49:47.941Z</time></trkpt><trkpt lat="43.08194130674519" lon="10.640430127480583"><ele>235.0</ele><time>2026-05-03T09:49:48.941Z</time></trkpt><trkpt lat="43.082057573078266" lon="10.640409673699121"><ele>235.0</ele><time>2026-05-03T09:49:49.941Z</time></trkpt><trkpt lat="43.082181584625964" lon="10.640402318945837"><ele>235.0</ele><time>2026-05-03T09:49:50.941Z</time></trkpt><trkpt lat="43.082277001877316" lon="10.640386863732445"><ele>235.0</ele><time>2026-05-03T09:49:51.943Z</time></trkpt><trkpt lat="43.082374644979176" lon="10.64034120057155"><ele>239.25</ele><time>2026-05-03T09:49:52.944Z</time></trkpt><trkpt lat="43.08246710330954" lon="10.640256223697524"><ele>243.5</ele><time>2026-05-03T09:49:53.945Z</time></trkpt><trkpt lat="43.082557431663375" lon="10.640152933832303"><ele>247.75</ele><time>2026-05-03T09:49:54.946Z</time></trkpt><trkpt lat="43.08265261511062" lon="10.640013760840668"><ele>252.0</ele><time>2026-05-03T09:49:55.947Z</time></trkpt><trkpt lat="43.082743406910346" lon="10.63987895581793"><ele>252.0</ele><time>2026-05-03T09:49:56.948Z</time></trkpt><trkpt lat="43.082835000302374" lon="10.639765723577584"><ele>252.0</ele><time>2026-05-03T09:49:57.949Z</time></trkpt><trkpt lat="43.08292294235442" lon="10.639649638522608"><ele>252.0</ele><time>2026-05-03T09:49:58.949Z</time></trkpt><trkpt lat="43.08300041315648" lon="10.63955287122372"><ele>252.0</ele><time>2026-05-03T09:49:59.95Z</time></trkpt><trkpt lat="43.08306765771836" lon="10.639476377482897"><ele>252.0</ele><time>2026-05-03T09:50:00.951Z</time></trkpt><trkpt lat="43.08312823988841" lon="10.63942060584959"><ele>251.33333333333334</ele><time>2026-05-03T09:50:01.952Z</time></trkpt><trkpt lat="43.08322563887099" lon="10.639322932417697"><ele>250.66666666666669</ele><time>2026-05-03T09:50:03.953Z</time></trkpt><trkpt lat="43.083247157432965" lon="10.639212041031811"><ele>250.0</ele><time>2026-05-03T09:50:04.953Z</time></trkpt><trkpt lat="43.08325971470882" lon="10.63911968602262"><ele>249.33333333333334</ele><time>2026-05-03T09:50:05.954Z</time></trkpt><trkpt lat="43.08329052000326" lon="10.639029612150692"><ele>248.66666666666669</ele><time>2026-05-03T09:50:07.955Z</time></trkpt><trkpt lat="43.08336231051583" lon="10.639032905387444"><ele>248.0</ele><time>2026-05-03T09:50:09.955Z</time></trkpt><trkpt lat="43.08344607921434" lon="10.639063767649846"><ele>248.0</ele><time>2026-05-03T09:50:11.956Z</time></trkpt><trkpt lat="43.08351396570345" lon="10.63907040330008"><ele>248.00000000000003</ele><time>2026-05-03T09:50:39.96Z</time></trkpt><trkpt lat="43.083595241161696" lon="10.639092235137639"><ele>248.0</ele><time>2026-05-03T09:50:45.961Z</time></trkpt><trkpt lat="43.08365749241951" lon="10.639033080661383"><ele>248.0</ele><time>2026-05-03T09:50:59.961Z</time></trkpt><trkpt lat="43.08361005467289" lon="10.638976260684409"><ele>248.00000000000003</ele><time>2026-05-03T09:51:02.961Z</time></trkpt><trkpt lat="43.08365900341888" lon="10.63906132915803"><ele>248.0</ele><time>2026-05-03T09:51:21.962Z</time></trkpt><trkpt lat="43.083594564268715" lon="10.639117179159781"><ele>248.0</ele><time>2026-05-03T09:51:27.962Z</time></trkpt><trkpt lat="43.08351820474459" lon="10.639084482269459"><ele>248.0</ele><time>2026-05-03T09:51:31.962Z</time></trkpt><trkpt lat="43.08353515545255" lon="10.639208714846344"><ele>248.00000000000003</ele><time>2026-05-03T09:51:36.962Z</time></trkpt><trkpt lat="43.08359716723468" lon="10.639233756532855"><ele>248.0</ele><time>2026-05-03T09:51:37.962Z</time></trkpt><trkpt lat="43.083663850595656" lon="10.63925239647381"><ele>248.0</ele><time>2026-05-03T09:51:38.962Z</time></trkpt><trkpt lat="43.08372729684614" lon="10.639289928843269"><ele>248.00000000000003</ele><time>2026-05-03T09:51:39.962Z</time></trkpt><trkpt lat="43.083779734870895" lon="10.63934643734199"><ele>248.0</ele><time>2026-05-03T09:51:40.962Z</time></trkpt><trkpt lat="43.083825617072065" lon="10.639425672386906"><ele>248.0</ele><time>2026-05-03T09:51:41.962Z</time></trkpt><trkpt lat="43.08391045164321" lon="10.639528033938873"><ele>244.2</ele><time>2026-05-03T09:51:43.962Z</time></trkpt><trkpt lat="43.08398428410947" lon="10.639572967330952"><ele>240.4</ele><time>2026-05-03T09:51:44.962Z</time></trkpt><trkpt lat="43.08405005662704" lon="10.639595211300948"><ele>236.59999999999997</ele><time>2026-05-03T09:51:45.962Z</time></trkpt><trkpt lat="43.08416989777743" lon="10.639578393498871"><ele>232.79999999999998</ele><time>2026-05-03T09:51:47.962Z</time></trkpt><trkpt lat="43.084308569762584" lon="10.639632879745733"><ele>229.0</ele><time>2026-05-03T09:51:49.962Z</time></trkpt><trkpt lat="43.08439093228656" lon="10.639642684141593"><ele>228.28571428571428</ele><time>2026-05-03T09:51:50.962Z</time></trkpt><trkpt lat="43.084458613674755" lon="10.639645146234738"><ele>227.57142857142858</ele><time>2026-05-03T09:51:51.961Z</time></trkpt><trkpt lat="43.08452350408922" lon="10.639649891396443"><ele>226.85714285714286</ele><time>2026-05-03T09:51:52.961Z</time></trkpt><trkpt lat="43.08460122196015" lon="10.639687134423887"><ele>226.14285714285714</ele><time>2026-05-03T09:51:53.961Z</time></trkpt><trkpt lat="43.08466267037259" lon="10.639722761767361"><ele>225.42857142857144</ele><time>2026-05-03T09:51:54.962Z</time></trkpt><trkpt lat="43.0847385010595" lon="10.639725391465243"><ele>224.71428571428572</ele><time>2026-05-03T09:51:55.961Z</time></trkpt><trkpt lat="43.08482303942581" lon="10.639713545345565"><ele>224.0</ele><time>2026-05-03T09:51:56.961Z</time></trkpt><trkpt lat="43.08490877377412" lon="10.639703155194455"><ele>224.33333333333334</ele><time>2026-05-03T09:51:57.961Z</time></trkpt><trkpt lat="43.08498385190921" lon="10.639714900784089"><ele>224.66666666666669</ele><time>2026-05-03T09:51:58.96Z</time></trkpt><trkpt lat="43.08506619358475" lon="10.639724755157502"><ele>225.0</ele><time>2026-05-03T09:51:59.96Z</time></trkpt><trkpt lat="43.08515161496429" lon="10.63973383092788"><ele>225.33333333333331</ele><time>2026-05-03T09:52:00.961Z</time></trkpt><trkpt lat="43.0852344386372" lon="10.639753863808949"><ele>225.66666666666666</ele><time>2026-05-03T09:52:01.961Z</time></trkpt><trkpt lat="43.085311918393565" lon="10.639758041913733"><ele>226.0</ele><time>2026-05-03T09:52:02.961Z</time></trkpt><trkpt lat="43.0853987772525" lon="10.639744153431662"><ele>226.0</ele><time>2026-05-03T09:52:03.96Z</time></trkpt><trkpt lat="43.08547437416285" lon="10.639689992965774"><ele>226.00000000000003</ele><time>2026-05-03T09:52:04.96Z</time></trkpt><trkpt lat="43.0855491325552" lon="10.639636061069277"><ele>226.00000000000003</ele><time>2026-05-03T09:52:05.96Z</time></trkpt><trkpt lat="43.0856403293592" lon="10.639572785473542"><ele>226.0</ele><time>2026-05-03T09:52:06.96Z</time></trkpt><trkpt lat="43.08572186027499" lon="10.639505531707012"><ele>226.0</ele><time>2026-05-03T09:52:07.96Z</time></trkpt><trkpt lat="43.08579282861596" lon="10.63941873834449"><ele>227.42857142857144</ele><time>2026-05-03T09:52:08.96Z</time></trkpt><trkpt lat="43.08585502169408" lon="10.639349994547755"><ele>228.85714285714283</ele><time>2026-05-03T09:52:09.96Z</time></trkpt><trkpt lat="43.08590445045577" lon="10.639279657144487"><ele>230.28571428571428</ele><time>2026-05-03T09:52:10.96Z</time></trkpt><trkpt lat="43.08595129724453" lon="10.639220480027564"><ele>231.71428571428572</ele><time>2026-05-03T09:52:11.96Z</time></trkpt><trkpt lat="43.086042964525014" lon="10.63920418713372"><ele>233.14285714285717</ele><time>2026-05-03T09:52:13.96Z</time></trkpt><trkpt lat="43.08610014226386" lon="10.63915515854141"><ele>234.57142857142856</ele><time>2026-05-03T09:52:15.96Z</time></trkpt><trkpt lat="43.086134675968545" lon="10.639064737651202"><ele>236.0</ele><time>2026-05-03T09:52:18.96Z</time></trkpt><trkpt lat="43.08611033581297" lon="10.638976509817017"><ele>236.00000000000003</ele><time>2026-05-03T09:52:22.961Z</time></trkpt><trkpt lat="43.08609475173181" lon="10.638891278336846"><ele>236.0</ele><time>2026-05-03T09:52:28.961Z</time></trkpt><trkpt lat="43.08609940718706" lon="10.638787783612647"><ele>236.0</ele><time>2026-05-03T09:52:39.961Z</time></trkpt><trkpt lat="43.08607750269653" lon="10.63868541525619"><ele>236.0</ele><time>2026-05-03T09:52:47.961Z</time></trkpt><trkpt lat="43.08607270638685" lon="10.638552088573798"><ele>236.00000000000003</ele><time>2026-05-03T09:54:06.962Z</time></trkpt><trkpt lat="43.08615277636375" lon="10.638536113574995"><ele>236.0</ele><time>2026-05-03T09:57:12.962Z</time></trkpt><trkpt lat="43.086203560854834" lon="10.63847355823965"><ele>236.0</ele><time>2026-05-03T09:57:23.963Z</time></trkpt><trkpt lat="43.0861480661219" lon="10.638524510633957"><ele>236.0</ele><time>2026-05-03T09:57:36.963Z</time></trkpt><trkpt lat="43.086117474037536" lon="10.638630743366477"><ele>236.0</ele><time>2026-05-03T09:57:45.963Z</time></trkpt><trkpt lat="43.086142596586754" lon="10.638718738987809"><ele>236.0</ele><time>2026-05-03T09:57:48.963Z</time></trkpt><trkpt lat="43.086195760312975" lon="10.638768808626377"><ele>236.0</ele><time>2026-05-03T09:57:54.963Z</time></trkpt><trkpt lat="43.08622701354439" lon="10.638888132254527"><ele>236.0</ele><time>2026-05-03T09:57:58.963Z</time></trkpt><trkpt lat="43.086232974489434" lon="10.638975536882793"><ele>236.0</ele><time>2026-05-03T09:58:03.963Z</time></trkpt><trkpt lat="43.08631595813284" lon="10.63896022823423"><ele>236.0</ele><time>2026-05-03T09:58:08.963Z</time></trkpt><trkpt lat="43.08639402896636" lon="10.638944737985561"><ele>236.00000000000003</ele><time>2026-05-03T09:58:10.962Z</time></trkpt><trkpt lat="43.08647056093991" lon="10.6389382217661"><ele>236.00000000000003</ele><time>2026-05-03T09:58:14.962Z</time></trkpt><trkpt lat="43.086534731000334" lon="10.638939534285692"><ele>236.0</ele><time>2026-05-03T09:58:17.962Z</time></trkpt><trkpt lat="43.086618756898424" lon="10.638982775627495"><ele>236.0</ele><time>2026-05-03T09:58:19.961Z</time></trkpt><trkpt lat="43.08682722232568" lon="10.6389802883"><ele>233.33333333333334</ele><time>2026-05-03T09:58:20.961Z</time></trkpt><trkpt lat="43.08690128872757" lon="10.639007843635047"><ele>230.66666666666669</ele><time>2026-05-03T09:58:21.962Z</time></trkpt><trkpt lat="43.087019759113105" lon="10.639036099526962"><ele>228.0</ele><time>2026-05-03T09:58:23.962Z</time></trkpt><trkpt lat="43.08708337219664" lon="10.639048616995616"><ele>225.33333333333331</ele><time>2026-05-03T09:58:24.962Z</time></trkpt><trkpt lat="43.08715044291427" lon="10.639060302728703"><ele>222.66666666666666</ele><time>2026-05-03T09:58:25.962Z</time></trkpt><trkpt lat="43.08722687675363" lon="10.63909984631383"><ele>220.0</ele><time>2026-05-03T09:58:26.962Z</time></trkpt><trkpt lat="43.08730543191878" lon="10.639147647108645"><ele>219.99999999999997</ele><time>2026-05-03T09:58:27.962Z</time></trkpt><trkpt lat="43.0873708464924" lon="10.63918696796487"><ele>220.0</ele><time>2026-05-03T09:58:28.962Z</time></trkpt><trkpt lat="43.08743283849762" lon="10.639208806453562"><ele>220.0</ele><time>2026-05-03T09:58:29.962Z</time></trkpt><trkpt lat="43.08749810986433" lon="10.639238010324293"><ele>220.0</ele><time>2026-05-03T09:58:30.962Z</time></trkpt><trkpt lat="43.08760485428602" lon="10.639267706570848"><ele>219.99999999999997</ele><time>2026-05-03T09:58:32.962Z</time></trkpt><trkpt lat="43.08771795115226" lon="10.639302303178939"><ele>220.0</ele><time>2026-05-03T09:58:34.962Z</time></trkpt><trkpt lat="43.08779441597661" lon="10.63933279968516"><ele>220.66666666666666</ele><time>2026-05-03T09:58:35.962Z</time></trkpt><trkpt lat="43.08787423595349" lon="10.639356249568086"><ele>221.33333333333331</ele><time>2026-05-03T09:58:36.962Z</time></trkpt><trkpt lat="43.087949756233826" lon="10.63937815347016"><ele>222.0</ele><time>2026-05-03T09:58:37.962Z</time></trkpt><trkpt lat="43.08802330851335" lon="10.639413292068495"><ele>222.66666666666669</ele><time>2026-05-03T09:58:38.962Z</time></trkpt><trkpt lat="43.08809724265566" lon="10.639466367746245"><ele>223.33333333333334</ele><time>2026-05-03T09:58:40.962Z</time></trkpt><trkpt lat="43.088158523387186" lon="10.639423996507594"><ele>224.0</ele><time>2026-05-03T09:58:49.962Z</time></trkpt><trkpt lat="43.08823514456241" lon="10.639442976399154"><ele>223.66666666666669</ele><time>2026-05-03T09:58:52.962Z</time></trkpt><trkpt lat="43.08830162222209" lon="10.639387444332886"><ele>223.33333333333334</ele><time>2026-05-03T09:58:57.962Z</time></trkpt><trkpt lat="43.08837993598378" lon="10.639329784781298"><ele>223.0</ele><time>2026-05-03T09:58:59.962Z</time></trkpt><trkpt lat="43.08844798178922" lon="10.639202705840637"><ele>222.66666666666669</ele><time>2026-05-03T09:59:01.962Z</time></trkpt><trkpt lat="43.08847606003838" lon="10.639089518763672"><ele>222.33333333333334</ele><time>2026-05-03T09:59:02.962Z</time></trkpt><trkpt lat="43.08849329877483" lon="10.638984445303121"><ele>222.0</ele><time>2026-05-03T09:59:03.962Z</time></trkpt><trkpt lat="43.088506464257165" lon="10.638877190877619"><ele>222.0</ele><time>2026-05-03T09:59:04.962Z</time></trkpt><trkpt lat="43.088523357119236" lon="10.638732267192122"><ele>222.0</ele><time>2026-05-03T09:59:05.962Z</time></trkpt><trkpt lat="43.08854744583341" lon="10.638582513693725"><ele>222.0</ele><time>2026-05-03T09:59:06.962Z</time></trkpt><trkpt lat="43.088576932676446" lon="10.638457856548776"><ele>222.0</ele><time>2026-05-03T09:59:07.962Z</time></trkpt><trkpt lat="43.08860426633902" lon="10.638351041991593"><ele>222.0</ele><time>2026-05-03T09:59:08.962Z</time></trkpt><trkpt lat="43.08861252807493" lon="10.638256703609393"><ele>223.66666666666666</ele><time>2026-05-03T09:59:09.962Z</time></trkpt><trkpt lat="43.08863384181466" lon="10.638173185660037"><ele>225.33333333333331</ele><time>2026-05-03T09:59:10.962Z</time></trkpt><trkpt lat="43.08866626394372" lon="10.638081988900646"><ele>227.0</ele><time>2026-05-03T09:59:11.962Z</time></trkpt><trkpt lat="43.08871672570152" lon="10.638014373431918"><ele>228.66666666666666</ele><time>2026-05-03T09:59:12.962Z</time></trkpt><trkpt lat="43.088737764114065" lon="10.637847898571943"><ele>230.33333333333331</ele><time>2026-05-03T09:59:14.962Z</time></trkpt><trkpt lat="43.08875319653303" lon="10.637707077692939"><ele>232.0</ele><time>2026-05-03T09:59:16.962Z</time></trkpt><trkpt lat="43.08878535527266" lon="10.637599789549423"><ele>231.99999999999997</ele><time>2026-05-03T09:59:19.962Z</time></trkpt><trkpt lat="43.088776824222485" lon="10.637699583621053"><ele>232.0</ele><time>2026-05-03T09:59:38.963Z</time></trkpt><trkpt lat="43.088778627297266" lon="10.637800979497243"><ele>232.0</ele><time>2026-05-03T09:59:41.963Z</time></trkpt><trkpt lat="43.088790437984414" lon="10.637908161730444"><ele>232.0</ele><time>2026-05-03T09:59:43.963Z</time></trkpt><trkpt lat="43.088802096311" lon="10.63802597892042"><ele>231.99999999999997</ele><time>2026-05-03T09:59:45.963Z</time></trkpt><trkpt lat="43.08874242062181" lon="10.638111668265724"><ele>232.0</ele><time>2026-05-03T09:59:47.963Z</time></trkpt><trkpt lat="43.088689910296836" lon="10.638215816888728"><ele>231.99999999999997</ele><time>2026-05-03T09:59:49.963Z</time></trkpt><trkpt lat="43.088694789883455" lon="10.63830223012101"><ele>232.0</ele><time>2026-05-03T09:59:50.963Z</time></trkpt><trkpt lat="43.08867421307846" lon="10.63842446005275"><ele>232.0</ele><time>2026-05-03T09:59:53.963Z</time></trkpt><trkpt lat="43.08863613354338" lon="10.638532275866206"><ele>232.0</ele><time>2026-05-03T09:59:55.963Z</time></trkpt><trkpt lat="43.0886278530418" lon="10.6386342969826"><ele>231.99999999999997</ele><time>2026-05-03T09:59:57.963Z</time></trkpt><trkpt lat="43.0886010677222" lon="10.638721116521928"><ele>232.0</ele><time>2026-05-03T10:00:00.963Z</time></trkpt><trkpt lat="43.08858774995056" lon="10.63883196256027"><ele>232.0</ele><time>2026-05-03T10:00:04.963Z</time></trkpt><trkpt lat="43.08856095557197" lon="10.638728255364272"><ele>232.0</ele><time>2026-05-03T10:00:26.963Z</time></trkpt><trkpt lat="43.08859898651323" lon="10.638559595989587"><ele>232.0</ele><time>2026-05-03T10:00:29.102Z</time></trkpt><trkpt lat="43.08861028947899" lon="10.63843361760514"><ele>232.0</ele><time>2026-05-03T10:00:31.103Z</time></trkpt><trkpt lat="43.088631900553544" lon="10.638350998249429"><ele>232.0</ele><time>2026-05-03T10:00:32.963Z</time></trkpt><trkpt lat="43.08866176702589" lon="10.638231285760623"><ele>231.99999999999997</ele><time>2026-05-03T10:00:35.963Z</time></trkpt><trkpt lat="43.088684385082395" lon="10.638145857768542"><ele>232.0</ele><time>2026-05-03T10:00:39.963Z</time></trkpt><trkpt lat="43.08873052687462" lon="10.63802400115454"><ele>232.0</ele><time>2026-05-03T10:00:42.963Z</time></trkpt><trkpt lat="43.08875430722652" lon="10.637916418432967"><ele>232.0</ele><time>2026-05-03T10:00:45.963Z</time></trkpt><trkpt lat="43.088773048157144" lon="10.637774448204233"><ele>231.99999999999997</ele><time>2026-05-03T10:01:30.963Z</time></trkpt><trkpt lat="43.08877908041319" lon="10.637663345300702"><ele>232.0</ele><time>2026-05-03T10:01:31.963Z</time></trkpt><trkpt lat="43.08880187608931" lon="10.637552191763794"><ele>234.66666666666666</ele><time>2026-05-03T10:01:32.963Z</time></trkpt><trkpt lat="43.08882796510961" lon="10.637453908798674"><ele>237.33333333333331</ele><time>2026-05-03T10:01:33.963Z</time></trkpt><trkpt lat="43.08889100421898" lon="10.63731284227599"><ele>240.0</ele><time>2026-05-03T10:01:35.963Z</time></trkpt><trkpt lat="43.08896383716685" lon="10.637247830465398"><ele>242.66666666666669</ele><time>2026-05-03T10:01:36.963Z</time></trkpt><trkpt lat="43.08895881063499" lon="10.637334127967069"><ele>245.33333333333334</ele><time>2026-05-03T10:01:59.964Z</time></trkpt><trkpt lat="43.08889971642559" lon="10.637387053816095"><ele>248.0</ele><time>2026-05-03T10:02:00.964Z</time></trkpt><trkpt lat="43.08884957770904" lon="10.637484473572645"><ele>248.0</ele><time>2026-05-03T10:02:01.964Z</time></trkpt><trkpt lat="43.088827492723055" lon="10.637597308441945"><ele>248.0</ele><time>2026-05-03T10:02:02.964Z</time></trkpt><trkpt lat="43.088800595955156" lon="10.637726140160783"><ele>248.0</ele><time>2026-05-03T10:02:03.964Z</time></trkpt><trkpt lat="43.08877068074142" lon="10.637848613945245"><ele>248.0</ele><time>2026-05-03T10:02:04.964Z</time></trkpt><trkpt lat="43.08877358457017" lon="10.63794087458939"><ele>248.0</ele><time>2026-05-03T10:02:05.964Z</time></trkpt><trkpt lat="43.088748299993384" lon="10.638081529885739"><ele>245.33333333333334</ele><time>2026-05-03T10:02:07.964Z</time></trkpt><trkpt lat="43.08871752149163" lon="10.638169824830205"><ele>242.66666666666669</ele><time>2026-05-03T10:02:08.964Z</time></trkpt><trkpt lat="43.0886847562797" lon="10.638266001124405"><ele>240.0</ele><time>2026-05-03T10:02:09.964Z</time></trkpt><trkpt lat="43.088662676385844" lon="10.638355024908995"><ele>237.33333333333331</ele><time>2026-05-03T10:02:10.964Z</time></trkpt><trkpt lat="43.088655151595454" lon="10.638471612393044"><ele>234.66666666666666</ele><time>2026-05-03T10:02:11.964Z</time></trkpt><trkpt lat="43.088624531691366" lon="10.638596310898457"><ele>232.0</ele><time>2026-05-03T10:02:12.964Z</time></trkpt><trkpt lat="43.08859896773183" lon="10.638758009668093"><ele>230.0</ele><time>2026-05-03T10:02:13.964Z</time></trkpt><trkpt lat="43.08858762379131" lon="10.6389219590176"><ele>228.0</ele><time>2026-05-03T10:02:14.964Z</time></trkpt><trkpt lat="43.088565126437416" lon="10.639071429482124"><ele>226.0</ele><time>2026-05-03T10:02:15.964Z</time></trkpt><trkpt lat="43.08853271578355" lon="10.639200304465074"><ele>224.0</ele><time>2026-05-03T10:02:16.964Z</time></trkpt><trkpt lat="43.088489414175534" lon="10.639299391739465"><ele>222.0</ele><time>2026-05-03T10:02:17.964Z</time></trkpt><trkpt lat="43.08844091824221" lon="10.639374545606339"><ele>222.0</ele><time>2026-05-03T10:02:18.964Z</time></trkpt><trkpt lat="43.0883762197921" lon="10.63942426042089"><ele>222.0</ele><time>2026-05-03T10:02:19.964Z</time></trkpt><trkpt lat="43.08825347896349" lon="10.63945714055192"><ele>222.0</ele><time>2026-05-03T10:02:21.963Z</time></trkpt><trkpt lat="43.08818016117795" lon="10.63945349259242"><ele>222.0</ele><time>2026-05-03T10:02:22.962Z</time></trkpt><trkpt lat="43.08816978054668" lon="10.639558361151796"><ele>222.0</ele><time>2026-05-03T10:02:26.963Z</time></trkpt><trkpt lat="43.08826748694366" lon="10.639691660258848"><ele>222.0</ele><time>2026-05-03T10:02:28.963Z</time></trkpt><trkpt lat="43.08834175467504" lon="10.63977353563084"><ele>222.0</ele><time>2026-05-03T10:02:29.963Z</time></trkpt><trkpt lat="43.08840587408022" lon="10.639803899242887"><ele>222.0</ele><time>2026-05-03T10:02:30.962Z</time></trkpt><trkpt lat="43.08850380154009" lon="10.639749839525829"><ele>222.0</ele><time>2026-05-03T10:02:32.963Z</time></trkpt><trkpt lat="43.088557370728374" lon="10.639622313129452"><ele>222.0</ele><time>2026-05-03T10:02:34.963Z</time></trkpt><trkpt lat="43.088604727757584" lon="10.639461648329139"><ele>222.0</ele><time>2026-05-03T10:02:36.963Z</time></trkpt><trkpt lat="43.08862568230459" lon="10.639351365905311"><ele>222.0</ele><time>2026-05-03T10:02:37.963Z</time></trkpt><trkpt lat="43.088646873403896" lon="10.639239429352354"><ele>222.0</ele><time>2026-05-03T10:02:38.963Z</time></trkpt><trkpt lat="43.08867946625494" lon="10.639092623396492"><ele>222.0</ele><time>2026-05-03T10:02:40.963Z</time></trkpt><trkpt lat="43.08869797212187" lon="10.638966765174679"><ele>222.0</ele><time>2026-05-03T10:02:43.963Z</time></trkpt><trkpt lat="43.08873740537707" lon="10.63888092619896"><ele>222.0</ele><time>2026-05-03T10:02:46.963Z</time></trkpt><trkpt lat="43.08878006882754" lon="10.638800243462814"><ele>222.0</ele><time>2026-05-03T10:02:48.963Z</time></trkpt><trkpt lat="43.08883626648684" lon="10.638721607464756"><ele>222.0</ele><time>2026-05-03T10:02:49.963Z</time></trkpt><trkpt lat="43.08890672219589" lon="10.63864262292263"><ele>222.0</ele><time>2026-05-03T10:02:51.963Z</time></trkpt><trkpt lat="43.08896285907935" lon="10.638692803933939"><ele>222.0</ele><time>2026-05-03T10:02:55.963Z</time></trkpt><trkpt lat="43.088980409665915" lon="10.638789644173833"><ele>222.0</ele><time>2026-05-03T10:03:05.963Z</time></trkpt><trkpt lat="43.08900374181853" lon="10.638870617790419"><ele>222.0</ele><time>2026-05-03T10:03:07.963Z</time></trkpt><trkpt lat="43.089040563620436" lon="10.638981885161645"><ele>222.0</ele><time>2026-05-03T10:03:09.963Z</time></trkpt><trkpt lat="43.08905636675703" lon="10.639086243316163"><ele>222.0</ele><time>2026-05-03T10:03:10.963Z</time></trkpt><trkpt lat="43.08909831238219" lon="10.639185333685733"><ele>222.0</ele><time>2026-05-03T10:03:11.963Z</time></trkpt><trkpt lat="43.089100864989156" lon="10.639289648242103"><ele>222.0</ele><time>2026-05-03T10:03:12.963Z</time></trkpt><trkpt lat="43.089157056362346" lon="10.639399423021265"><ele>222.0</ele><time>2026-05-03T10:03:14.963Z</time></trkpt><trkpt lat="43.0892470810434" lon="10.639393448934547"><ele>222.0</ele><time>2026-05-03T10:03:16.963Z</time></trkpt><trkpt lat="43.08933547127645" lon="10.639370437211356"><ele>217.2</ele><time>2026-05-03T10:03:18.963Z</time></trkpt><trkpt lat="43.08939276338864" lon="10.639444521767134"><ele>212.39999999999998</ele><time>2026-05-03T10:03:20.964Z</time></trkpt><trkpt lat="43.089443639860875" lon="10.639566955735946"><ele>207.60000000000002</ele><time>2026-05-03T10:03:22.964Z</time></trkpt><trkpt lat="43.08950196504778" lon="10.639673886314947"><ele>202.8</ele><time>2026-05-03T10:03:24.964Z</time></trkpt><trkpt lat="43.089594225213766" lon="10.639723936682895"><ele>198.0</ele><time>2026-05-03T10:03:26.964Z</time></trkpt><trkpt lat="43.08967370757367" lon="10.639772457673548"><ele>197.0</ele><time>2026-05-03T10:03:28.964Z</time></trkpt><trkpt lat="43.089770564907454" lon="10.639859320904637"><ele>196.0</ele><time>2026-05-03T10:03:30.964Z</time></trkpt><trkpt lat="43.0898237538265" lon="10.639936940963072"><ele>195.0</ele><time>2026-05-03T10:03:31.964Z</time></trkpt><trkpt lat="43.089878754956345" lon="10.63998762910475"><ele>194.0</ele><time>2026-05-03T10:03:32.964Z</time></trkpt><trkpt lat="43.08997918770534" lon="10.640056157206939"><ele>193.0</ele><time>2026-05-03T10:03:34.964Z</time></trkpt><trkpt lat="43.09003757582691" lon="10.640100182631882"><ele>192.0</ele><time>2026-05-03T10:03:35.964Z</time></trkpt><trkpt lat="43.09011814767193" lon="10.640123539021749"><ele>190.83333333333334</ele><time>2026-05-03T10:03:36.964Z</time></trkpt><trkpt lat="43.090194091476285" lon="10.64013494821497"><ele>189.66666666666666</ele><time>2026-05-03T10:03:37.964Z</time></trkpt><trkpt lat="43.09026812750666" lon="10.64011605833991"><ele>188.5</ele><time>2026-05-03T10:03:38.964Z</time></trkpt><trkpt lat="43.0903860486752" lon="10.640077727578053"><ele>187.33333333333331</ele><time>2026-05-03T10:03:40.964Z</time></trkpt><trkpt lat="43.090467506275616" lon="10.640057312609494"><ele>186.16666666666666</ele><time>2026-05-03T10:03:41.964Z</time></trkpt><trkpt lat="43.09054703901233" lon="10.640033173251657"><ele>185.0</ele><time>2026-05-03T10:03:42.964Z</time></trkpt><trkpt lat="43.09060791629661" lon="10.64000548303357"><ele>185.0</ele><time>2026-05-03T10:03:43.964Z</time></trkpt><trkpt lat="43.09066838790035" lon="10.639953516459554"><ele>185.0</ele><time>2026-05-03T10:03:44.964Z</time></trkpt><trkpt lat="43.09074570124289" lon="10.639878976951172"><ele>185.0</ele><time>2026-05-03T10:03:45.964Z</time></trkpt><trkpt lat="43.090808216425344" lon="10.639834607010883"><ele>185.0</ele><time>2026-05-03T10:03:46.964Z</time></trkpt><trkpt lat="43.09086996796371" lon="10.63981397824202"><ele>185.0</ele><time>2026-05-03T10:03:47.964Z</time></trkpt><trkpt lat="43.09098239769179" lon="10.639761674623976"><ele>185.0</ele><time>2026-05-03T10:03:49.964Z</time></trkpt><trkpt lat="43.091052011934224" lon="10.639759529843404"><ele>185.0</ele><time>2026-05-03T10:03:52.964Z</time></trkpt><trkpt lat="43.09100879266137" lon="10.639889084532088"><ele>185.0</ele><time>2026-05-03T10:03:54.964Z</time></trkpt><trkpt lat="43.09096880754658" lon="10.639961084546565"><ele>185.0</ele><time>2026-05-03T10:03:55.964Z</time></trkpt><trkpt lat="43.091048350780525" lon="10.640047240863446"><ele>185.0</ele><time>2026-05-03T10:04:09.964Z</time></trkpt><trkpt lat="43.091119329722474" lon="10.640054907364057"><ele>185.0</ele><time>2026-05-03T10:04:23.964Z</time></trkpt><trkpt lat="43.091182983143135" lon="10.639959151849828"><ele>185.0</ele><time>2026-05-03T10:04:26.964Z</time></trkpt><trkpt lat="43.09126792276257" lon="10.639899798161464"><ele>185.0</ele><time>2026-05-03T10:04:28.963Z</time></trkpt><trkpt lat="43.09133227141977" lon="10.639824936226999"><ele>185.0</ele><time>2026-05-03T10:04:29.963Z</time></trkpt><trkpt lat="43.09134879572144" lon="10.639915331114095"><ele>185.0</ele><time>2026-05-03T10:04:35.962Z</time></trkpt><trkpt lat="43.091314399814934" lon="10.640033827858995"><ele>185.0</ele><time>2026-05-03T10:04:37.963Z</time></trkpt><trkpt lat="43.09128426350501" lon="10.640184085800888"><ele>185.0</ele><time>2026-05-03T10:04:39.963Z</time></trkpt><trkpt lat="43.091310166005314" lon="10.64026396213941"><ele>185.0</ele><time>2026-05-03T10:04:41.962Z</time></trkpt><trkpt lat="43.09130755665045" lon="10.640370298102864"><ele>183.85714285714283</ele><time>2026-05-03T10:04:43.962Z</time></trkpt><trkpt lat="43.091359175823385" lon="10.640447328312888"><ele>182.71428571428572</ele><time>2026-05-03T10:04:47.962Z</time></trkpt><trkpt lat="43.091411033876106" lon="10.640520399238596"><ele>181.57142857142856</ele><time>2026-05-03T10:04:52.962Z</time></trkpt><trkpt lat="43.09142634812769" lon="10.640623080847055"><ele>180.42857142857142</ele><time>2026-05-03T10:04:54.962Z</time></trkpt><trkpt lat="43.091450775164816" lon="10.640725469656942"><ele>179.28571428571428</ele><time>2026-05-03T10:04:56.962Z</time></trkpt><trkpt lat="43.09145359097539" lon="10.640813765500367"><ele>178.14285714285714</ele><time>2026-05-03T10:05:01.962Z</time></trkpt><trkpt lat="43.09147194595077" lon="10.640911594631968"><ele>177.0</ele><time>2026-05-03T10:05:03.963Z</time></trkpt><trkpt lat="43.09144967488352" lon="10.640800284690272"><ele>177.0</ele><time>2026-05-03T10:05:08.963Z</time></trkpt><trkpt lat="43.09145558645891" lon="10.64068124534071"><ele>177.0</ele><time>2026-05-03T10:05:11.963Z</time></trkpt><trkpt lat="43.09140655405463" lon="10.640591465664375"><ele>177.0</ele><time>2026-05-03T10:05:13.963Z</time></trkpt><trkpt lat="43.09135732170699" lon="10.640515085287912"><ele>177.0</ele><time>2026-05-03T10:05:15.963Z</time></trkpt><trkpt lat="43.09133373133576" lon="10.640388523034908"><ele>177.0</ele><time>2026-05-03T10:05:17.963Z</time></trkpt><trkpt lat="43.09134818254708" lon="10.640301152009512"><ele>177.0</ele><time>2026-05-03T10:05:18.963Z</time></trkpt><trkpt lat="43.09138962290322" lon="10.640171147800215"><ele>178.6</ele><time>2026-05-03T10:05:20.963Z</time></trkpt><trkpt lat="43.091471994106435" lon="10.640045761311558"><ele>180.2</ele><time>2026-05-03T10:05:22.963Z</time></trkpt><trkpt lat="43.09153154151605" lon="10.639916533174762"><ele>181.8</ele><time>2026-05-03T10:05:24.963Z</time></trkpt><trkpt lat="43.09146628404093" lon="10.639925174736229"><ele>183.4</ele><time>2026-05-03T10:05:27.963Z</time></trkpt><trkpt lat="43.091372068224246" lon="10.640035116870038"><ele>185.0</ele><time>2026-05-03T10:05:29.963Z</time></trkpt><trkpt lat="43.09131877035332" lon="10.640087802789362"><ele>184.99999999999997</ele><time>2026-05-03T10:05:30.963Z</time></trkpt><trkpt lat="43.091251472368995" lon="10.640148317049537"><ele>185.0</ele><time>2026-05-03T10:05:31.963Z</time></trkpt><trkpt lat="43.09119381415915" lon="10.640193179739693"><ele>185.0</ele><time>2026-05-03T10:05:32.963Z</time></trkpt><trkpt lat="43.09113192371103" lon="10.640157031006233"><ele>185.0</ele><time>2026-05-03T10:05:50.963Z</time></trkpt><trkpt lat="43.091087227053634" lon="10.640224101616493"><ele>185.0</ele><time>2026-05-03T10:07:08.963Z</time></trkpt><trkpt lat="43.09109278112422" lon="10.640313618666918"><ele>184.99999999999997</ele><time>2026-05-03T10:07:16.963Z</time></trkpt><trkpt lat="43.09112580799744" lon="10.64038747833821"><ele>185.0</ele><time>2026-05-03T10:07:25.963Z</time></trkpt><trkpt lat="43.09118883708974" lon="10.640444236981004"><ele>185.0</ele><time>2026-05-03T10:07:38.963Z</time></trkpt><trkpt lat="43.09124995738069" lon="10.640474125246222"><ele>185.0</ele><time>2026-05-03T10:07:41.963Z</time></trkpt><trkpt lat="43.091307288088025" lon="10.640523194085787"><ele>185.0</ele><time>2026-05-03T10:07:47.963Z</time></trkpt><trkpt lat="43.09135584414039" lon="10.640587355419301"><ele>185.0</ele><time>2026-05-03T10:08:01.963Z</time></trkpt><trkpt lat="43.09132844470767" lon="10.640453142355272"><ele>185.0</ele><time>2026-05-03T10:08:07.963Z</time></trkpt><trkpt lat="43.091333831669026" lon="10.640314393487783"><ele>185.0</ele><time>2026-05-03T10:08:09.963Z</time></trkpt><trkpt lat="43.09137023526064" lon="10.64018992608659"><ele>185.0</ele><time>2026-05-03T10:08:11.963Z</time></trkpt><trkpt lat="43.091427092259494" lon="10.640049633923416"><ele>185.0</ele><time>2026-05-03T10:08:13.964Z</time></trkpt><trkpt lat="43.09148315461674" lon="10.639922850052514"><ele>185.0</ele><time>2026-05-03T10:08:15.964Z</time></trkpt><trkpt lat="43.091420417725864" lon="10.639938573471444"><ele>185.0</ele><time>2026-05-03T10:08:21.964Z</time></trkpt><trkpt lat="43.0913323801283" lon="10.640023777220227"><ele>185.0</ele><time>2026-05-03T10:08:24.964Z</time></trkpt><trkpt lat="43.091243265469636" lon="10.640110168402067"><ele>185.0</ele><time>2026-05-03T10:08:26.964Z</time></trkpt><trkpt lat="43.091180706396734" lon="10.640195830129805"><ele>185.0</ele><time>2026-05-03T10:08:28.964Z</time></trkpt><trkpt lat="43.09111164200781" lon="10.640180944537722"><ele>185.0</ele><time>2026-05-03T10:08:31.964Z</time></trkpt><trkpt lat="43.09113930833205" lon="10.640080457418826"><ele>185.0</ele><time>2026-05-03T10:08:34.964Z</time></trkpt><trkpt lat="43.09115262044056" lon="10.639952747211513"><ele>185.0</ele><time>2026-05-03T10:08:37.964Z</time></trkpt><trkpt lat="43.09111112067392" lon="10.639884656192866"><ele>185.0</ele><time>2026-05-03T10:08:52.963Z</time></trkpt><trkpt lat="43.091007742198855" lon="10.639827276402066"><ele>185.0</ele><time>2026-05-03T10:10:24.964Z</time></trkpt><trkpt lat="43.090997970878135" lon="10.639920712863125"><ele>185.0</ele><time>2026-05-03T10:12:59.964Z</time></trkpt><trkpt lat="43.09095445622674" lon="10.639852108036152"><ele>185.0</ele><time>2026-05-03T10:15:52.964Z</time></trkpt><trkpt lat="43.09103625215713" lon="10.639930715547717"><ele>185.0</ele><time>2026-05-03T10:17:56.964Z</time></trkpt><trkpt lat="43.09094653192059" lon="10.639925167012347"><ele>185.0</ele><time>2026-05-03T10:18:16.964Z</time></trkpt><trkpt lat="43.09086221913242" lon="10.639966875137437"><ele>185.0</ele><time>2026-05-03T10:18:18.964Z</time></trkpt><trkpt lat="43.09079312422479" lon="10.640034778354241"><ele>185.0</ele><time>2026-05-03T10:18:20.964Z</time></trkpt><trkpt lat="43.090729601480135" lon="10.640119402086242"><ele>185.0</ele><time>2026-05-03T10:18:22.964Z</time></trkpt><trkpt lat="43.0906717743674" lon="10.640160810969121"><ele>185.0</ele><time>2026-05-03T10:18:24.964Z</time></trkpt><trkpt lat="43.09060655651648" lon="10.640173967581164"><ele>185.0</ele><time>2026-05-03T10:18:26.964Z</time></trkpt><trkpt lat="43.0904824147122" lon="10.640209951986948"><ele>185.0</ele><time>2026-05-03T10:18:28.964Z</time></trkpt><trkpt lat="43.090396554213136" lon="10.640213091599632"><ele>185.0</ele><time>2026-05-03T10:18:29.964Z</time></trkpt><trkpt lat="43.09029853395741" lon="10.64021157731024"><ele>185.0</ele><time>2026-05-03T10:18:30.964Z</time></trkpt><trkpt lat="43.09021656710427" lon="10.640191070660403"><ele>185.0</ele><time>2026-05-03T10:18:31.964Z</time></trkpt><trkpt lat="43.09014661248831" lon="10.64016168056212"><ele>185.0</ele><time>2026-05-03T10:18:32.964Z</time></trkpt><trkpt lat="43.090045810141774" lon="10.640087333073547"><ele>185.0</ele><time>2026-05-03T10:18:34.964Z</time></trkpt><trkpt lat="43.08996572197216" lon="10.639993934523545"><ele>185.0</ele><time>2026-05-03T10:18:36.964Z</time></trkpt><trkpt lat="43.08988539208153" lon="10.63990231198325"><ele>186.16666666666666</ele><time>2026-05-03T10:18:37.964Z</time></trkpt><trkpt lat="43.089795847457374" lon="10.639831393021977"><ele>187.33333333333331</ele><time>2026-05-03T10:18:38.964Z</time></trkpt><trkpt lat="43.08969492657119" lon="10.639796919929811"><ele>188.5</ele><time>2026-05-03T10:18:39.964Z</time></trkpt><trkpt lat="43.08961296895741" lon="10.63976563355602"><ele>189.66666666666666</ele><time>2026-05-03T10:18:40.964Z</time></trkpt><trkpt lat="43.08954650638583" lon="10.639734546061218"><ele>190.83333333333334</ele><time>2026-05-03T10:18:41.964Z</time></trkpt><trkpt lat="43.08948501647813" lon="10.639665263309476"><ele>192.0</ele><time>2026-05-03T10:18:43.964Z</time></trkpt><trkpt lat="43.08940974642409" lon="10.639563107704948"><ele>192.0</ele><time>2026-05-03T10:18:45.964Z</time></trkpt><trkpt lat="43.08934479908268" lon="10.63954290158724"><ele>192.0</ele><time>2026-05-03T10:18:47.964Z</time></trkpt><trkpt lat="43.08924019395619" lon="10.639601465422556"><ele>192.0</ele><time>2026-05-03T10:18:49.964Z</time></trkpt><trkpt lat="43.08912909880711" lon="10.639541919950897"><ele>192.0</ele><time>2026-05-03T10:18:51.964Z</time></trkpt><trkpt lat="43.089095313472995" lon="10.63945113570293"><ele>192.0</ele><time>2026-05-03T10:18:52.964Z</time></trkpt><trkpt lat="43.08906712588041" lon="10.63935452444845"><ele>192.0</ele><time>2026-05-03T10:18:53.964Z</time></trkpt><trkpt lat="43.08905462139506" lon="10.639253484995601"><ele>196.28571428571428</ele><time>2026-05-03T10:18:54.964Z</time></trkpt><trkpt lat="43.089049447794615" lon="10.639154429854225"><ele>200.57142857142856</ele><time>2026-05-03T10:18:55.964Z</time></trkpt><trkpt lat="43.08904635075466" lon="10.639042475079611"><ele>204.85714285714283</ele><time>2026-05-03T10:18:57.964Z</time></trkpt><trkpt lat="43.08904338096262" lon="10.638949574000538"><ele>209.14285714285714</ele><time>2026-05-03T10:18:59.964Z</time></trkpt><trkpt lat="43.089041714238654" lon="10.638860399104493"><ele>213.42857142857144</ele><time>2026-05-03T10:19:00.964Z</time></trkpt><trkpt lat="43.089036582573506" lon="10.638750358518992"><ele>217.7142857142857</ele><time>2026-05-03T10:19:01.964Z</time></trkpt><trkpt lat="43.08900944042031" lon="10.638661880477343"><ele>222.0</ele><time>2026-05-03T10:19:02.964Z</time></trkpt><trkpt lat="43.088915748874" lon="10.638708179288791"><ele>222.0</ele><time>2026-05-03T10:19:04.964Z</time></trkpt><trkpt lat="43.08884828749649" lon="10.638888715807825"><ele>222.0</ele><time>2026-05-03T10:19:06.964Z</time></trkpt><trkpt lat="43.088813740118105" lon="10.639049910208564"><ele>222.0</ele><time>2026-05-03T10:19:07.964Z</time></trkpt><trkpt lat="43.08877372577034" lon="10.639256572832714"><ele>222.0</ele><time>2026-05-03T10:19:08.964Z</time></trkpt><trkpt lat="43.088721485838114" lon="10.639469193139961"><ele>219.16666666666666</ele><time>2026-05-03T10:19:09.963Z</time></trkpt><trkpt lat="43.088678559139574" lon="10.639615852850595"><ele>216.33333333333331</ele><time>2026-05-03T10:19:10.963Z</time></trkpt><trkpt lat="43.0886360215725" lon="10.639723480536691"><ele>213.5</ele><time>2026-05-03T10:19:11.963Z</time></trkpt><trkpt lat="43.08858878197393" lon="10.639807300637699"><ele>210.66666666666666</ele><time>2026-05-03T10:19:12.963Z</time></trkpt><trkpt lat="43.08852943145383" lon="10.63985774917456"><ele>207.83333333333331</ele><time>2026-05-03T10:19:13.964Z</time></trkpt><trkpt lat="43.088464355908485" lon="10.639853628034308"><ele>205.0</ele><time>2026-05-03T10:19:14.964Z</time></trkpt><trkpt lat="43.08835409991478" lon="10.639789364766362"><ele>205.0</ele><time>2026-05-03T10:19:15.963Z</time></trkpt><trkpt lat="43.08826011461473" lon="10.639665195707753"><ele>205.0</ele><time>2026-05-03T10:19:16.963Z</time></trkpt><trkpt lat="43.08817748465188" lon="10.639557221549104"><ele>205.0</ele><time>2026-05-03T10:19:17.963Z</time></trkpt><trkpt lat="43.088101674881266" lon="10.639478393954203"><ele>205.0</ele><time>2026-05-03T10:19:18.963Z</time></trkpt><trkpt lat="43.08801328766647" lon="10.639404375648418"><ele>205.0</ele><time>2026-05-03T10:19:20.963Z</time></trkpt><trkpt lat="43.08793115411683" lon="10.639392272855227"><ele>209.75</ele><time>2026-05-03T10:19:21.963Z</time></trkpt><trkpt lat="43.08780342495805" lon="10.639356080236366"><ele>214.5</ele><time>2026-05-03T10:19:22.963Z</time></trkpt><trkpt lat="43.08766466934423" lon="10.639309992281143"><ele>219.25</ele><time>2026-05-03T10:19:23.963Z</time></trkpt><trkpt lat="43.08755090672562" lon="10.639263936123754"><ele>224.0</ele><time>2026-05-03T10:19:24.963Z</time></trkpt><trkpt lat="43.08743314995808" lon="10.639223770719589"><ele>223.0</ele><time>2026-05-03T10:19:25.963Z</time></trkpt><trkpt lat="43.08731221234604" lon="10.639167108296457"><ele>222.0</ele><time>2026-05-03T10:19:26.963Z</time></trkpt><trkpt lat="43.087198947360164" lon="10.639102262943382"><ele>221.0</ele><time>2026-05-03T10:19:27.963Z</time></trkpt><trkpt lat="43.08708941128446" lon="10.639042968807072"><ele>220.0</ele><time>2026-05-03T10:19:28.963Z</time></trkpt><trkpt lat="43.08696622483283" lon="10.639016731441163"><ele>220.0</ele><time>2026-05-03T10:19:29.963Z</time></trkpt><trkpt lat="43.08683652550499" lon="10.638999821102438"><ele>220.0</ele><time>2026-05-03T10:19:30.963Z</time></trkpt><trkpt lat="43.086715345007214" lon="10.638970525914619"><ele>220.0</ele><time>2026-05-03T10:19:31.963Z</time></trkpt><trkpt lat="43.08662552258012" lon="10.638951534337311"><ele>220.0</ele><time>2026-05-03T10:19:32.963Z</time></trkpt><trkpt lat="43.08653924661972" lon="10.638951505991683"><ele>220.0</ele><time>2026-05-03T10:19:33.963Z</time></trkpt><trkpt lat="43.08647084143599" lon="10.63898460503317"><ele>222.66666666666666</ele><time>2026-05-03T10:19:34.963Z</time></trkpt><trkpt lat="43.08640533219421" lon="10.639028609130001"><ele>225.33333333333331</ele><time>2026-05-03T10:19:35.963Z</time></trkpt><trkpt lat="43.08634161835044" lon="10.63906663167566"><ele>228.0</ele><time>2026-05-03T10:19:36.963Z</time></trkpt><trkpt lat="43.086243569499885" lon="10.639156177491802"><ele>230.66666666666669</ele><time>2026-05-03T10:19:38.963Z</time></trkpt><trkpt lat="43.086180628695246" lon="10.63923888409002"><ele>233.33333333333334</ele><time>2026-05-03T10:19:39.963Z</time></trkpt><trkpt lat="43.08614270814318" lon="10.639318735005705"><ele>236.0</ele><time>2026-05-03T10:19:40.963Z</time></trkpt><trkpt lat="43.086089498535834" lon="10.639394619085873"><ele>236.0</ele><time>2026-05-03T10:19:41.963Z</time></trkpt><trkpt lat="43.08598661947571" lon="10.63946035210611"><ele>236.0</ele><time>2026-05-03T10:19:42.963Z</time></trkpt><trkpt lat="43.08589055203119" lon="10.639549686745845"><ele>236.0</ele><time>2026-05-03T10:19:43.963Z</time></trkpt><trkpt lat="43.0858005050907" lon="10.639649038046471"><ele>236.0</ele><time>2026-05-03T10:19:44.963Z</time></trkpt><trkpt lat="43.08569014839344" lon="10.639752390728617"><ele>234.0</ele><time>2026-05-03T10:19:45.963Z</time></trkpt><trkpt lat="43.085580230954335" lon="10.639805236873789"><ele>232.00000000000003</ele><time>2026-05-03T10:19:46.963Z</time></trkpt><trkpt lat="43.08548443017831" lon="10.639831788824251"><ele>230.00000000000003</ele><time>2026-05-03T10:19:47.963Z</time></trkpt><trkpt lat="43.08538371247605" lon="10.639853088663536"><ele>228.0</ele><time>2026-05-03T10:19:48.963Z</time></trkpt><trkpt lat="43.08531328462561" lon="10.639865693533588"><ele>226.0</ele><time>2026-05-03T10:19:49.963Z</time></trkpt><trkpt lat="43.0852370828902" lon="10.639842775108637"><ele>226.0</ele><time>2026-05-03T10:19:50.963Z</time></trkpt><trkpt lat="43.085140351756465" lon="10.639812527744473"><ele>226.00000000000003</ele><time>2026-05-03T10:19:51.963Z</time></trkpt><trkpt lat="43.085017182440964" lon="10.639785237926622"><ele>226.00000000000003</ele><time>2026-05-03T10:19:52.963Z</time></trkpt><trkpt lat="43.08490422543552" lon="10.639755473344369"><ele>226.0</ele><time>2026-05-03T10:19:53.963Z</time></trkpt><trkpt lat="43.08481143000339" lon="10.639744317052394"><ele>226.0</ele><time>2026-05-03T10:19:54.963Z</time></trkpt><trkpt lat="43.08472538247315" lon="10.639756616920446"><ele>225.5</ele><time>2026-05-03T10:19:55.963Z</time></trkpt><trkpt lat="43.084623319734874" lon="10.639747928346399"><ele>225.0</ele><time>2026-05-03T10:19:56.963Z</time></trkpt><trkpt lat="43.08451194016525" lon="10.639708274414453"><ele>224.5</ele><time>2026-05-03T10:19:57.963Z</time></trkpt><trkpt lat="43.08438910066333" lon="10.639674471444621"><ele>224.0</ele><time>2026-05-03T10:19:58.963Z</time></trkpt><trkpt lat="43.084281257439905" lon="10.639666699383135"><ele>224.00000000000003</ele><time>2026-05-03T10:19:59.963Z</time></trkpt><trkpt lat="43.08418927676087" lon="10.63965195169278"><ele>224.0</ele><time>2026-05-03T10:20:00.963Z</time></trkpt><trkpt lat="43.084114951435154" lon="10.63963561924365"><ele>224.0</ele><time>2026-05-03T10:20:01.963Z</time></trkpt><trkpt lat="43.08403147391612" lon="10.639612262704075"><ele>224.0</ele><time>2026-05-03T10:20:02.964Z</time></trkpt><trkpt lat="43.0839587800317" lon="10.639588491169006"><ele>224.00000000000003</ele><time>2026-05-03T10:20:03.964Z</time></trkpt><trkpt lat="43.083880728318455" lon="10.63955759239187"><ele>224.0</ele><time>2026-05-03T10:20:04.964Z</time></trkpt><trkpt lat="43.08381769930715" lon="10.639496898038974"><ele>228.00000000000003</ele><time>2026-05-03T10:20:05.964Z</time></trkpt><trkpt lat="43.083757348230634" lon="10.63942046155337"><ele>232.0</ele><time>2026-05-03T10:20:06.964Z</time></trkpt><trkpt lat="43.08370840334574" lon="10.639335641695672"><ele>236.0</ele><time>2026-05-03T10:20:07.964Z</time></trkpt><trkpt lat="43.083653467659516" lon="10.639252724521569"><ele>240.0</ele><time>2026-05-03T10:20:08.964Z</time></trkpt><trkpt lat="43.08357330280211" lon="10.639185742876695"><ele>244.00000000000003</ele><time>2026-05-03T10:20:09.964Z</time></trkpt><trkpt lat="43.08349084523525" lon="10.63915077648545"><ele>248.0</ele><time>2026-05-03T10:20:10.964Z</time></trkpt><trkpt lat="43.083386030027974" lon="10.639054273780232"><ele>248.0</ele><time>2026-05-03T10:20:12.964Z</time></trkpt><trkpt lat="43.08331136154308" lon="10.63902749503824"><ele>248.0</ele><time>2026-05-03T10:20:14.964Z</time></trkpt><trkpt lat="43.08327416284943" lon="10.639130597841588"><ele>248.0</ele><time>2026-05-03T10:20:23.964Z</time></trkpt><trkpt lat="43.08324953140773" lon="10.639277972581198"><ele>248.0</ele><time>2026-05-03T10:20:25.964Z</time></trkpt><trkpt lat="43.08318866997566" lon="10.639402569461687"><ele>248.0</ele><time>2026-05-03T10:20:27.964Z</time></trkpt><trkpt lat="43.08314337220015" lon="10.639478592255532"><ele>248.8</ele><time>2026-05-03T10:20:28.964Z</time></trkpt><trkpt lat="43.08307925032776" lon="10.639523896001997"><ele>249.60000000000002</ele><time>2026-05-03T10:20:29.964Z</time></trkpt><trkpt lat="43.083003897131945" lon="10.639572109338319"><ele>250.39999999999998</ele><time>2026-05-03T10:20:30.964Z</time></trkpt><trkpt lat="43.08292691662679" lon="10.639643895793753"><ele>251.2</ele><time>2026-05-03T10:20:31.964Z</time></trkpt><trkpt lat="43.08284366055532" lon="10.639759997136595"><ele>252.0</ele><time>2026-05-03T10:20:32.964Z</time></trkpt><trkpt lat="43.082736886051784" lon="10.639905646625822"><ele>252.0</ele><time>2026-05-03T10:20:33.964Z</time></trkpt><trkpt lat="43.08263508070585" lon="10.640052728337857"><ele>252.0</ele><time>2026-05-03T10:20:34.964Z</time></trkpt><trkpt lat="43.08254080154567" lon="10.64016715903156"><ele>252.0</ele><time>2026-05-03T10:20:35.964Z</time></trkpt><trkpt lat="43.08246360792865" lon="10.640261842270958"><ele>252.0</ele><time>2026-05-03T10:20:36.964Z</time></trkpt><trkpt lat="43.08238356028788" lon="10.64033758557142"><ele>248.6</ele><time>2026-05-03T10:20:37.964Z</time></trkpt><trkpt lat="43.08230319673528" lon="10.640380721730695"><ele>245.2</ele><time>2026-05-03T10:20:38.964Z</time></trkpt><trkpt lat="43.08221282913316" lon="10.640402617878856"><ele>241.8</ele><time>2026-05-03T10:20:39.964Z</time></trkpt><trkpt lat="43.08211315800322" lon="10.640418479165708"><ele>238.4</ele><time>2026-05-03T10:20:40.964Z</time></trkpt><trkpt lat="43.08200939340917" lon="10.640430702894141"><ele>235.0</ele><time>2026-05-03T10:20:41.964Z</time></trkpt><trkpt lat="43.08190179296012" lon="10.640456023557961"><ele>235.0</ele><time>2026-05-03T10:20:42.964Z</time></trkpt><trkpt lat="43.08178555624208" lon="10.640481696152706"><ele>235.0</ele><time>2026-05-03T10:20:43.964Z</time></trkpt><trkpt lat="43.081662483158865" lon="10.640493314982203"><ele>235.0</ele><time>2026-05-03T10:20:44.964Z</time></trkpt><trkpt lat="43.08154149519513" lon="10.64048250946862"><ele>235.0</ele><time>2026-05-03T10:20:45.964Z</time></trkpt><trkpt lat="43.081429183462014" lon="10.640455007110793"><ele>233.5</ele><time>2026-05-03T10:20:46.964Z</time></trkpt><trkpt lat="43.081327889999386" lon="10.640416239570964"><ele>232.0</ele><time>2026-05-03T10:20:47.964Z</time></trkpt><trkpt lat="43.081224252849424" lon="10.64036100332656"><ele>230.5</ele><time>2026-05-03T10:20:48.964Z</time></trkpt><trkpt lat="43.08110720156819" lon="10.640293026462057"><ele>229.0</ele><time>2026-05-03T10:20:49.964Z</time></trkpt><trkpt lat="43.081007686601055" lon="10.640219738174084"><ele>228.6</ele><time>2026-05-03T10:20:50.964Z</time></trkpt><trkpt lat="43.080926533217806" lon="10.640148700654358"><ele>228.2</ele><time>2026-05-03T10:20:51.964Z</time></trkpt><trkpt lat="43.08085760064253" lon="10.640081382759362"><ele>227.79999999999998</ele><time>2026-05-03T10:20:52.964Z</time></trkpt><trkpt lat="43.080796622044524" lon="10.639990051532752"><ele>227.39999999999998</ele><time>2026-05-03T10:20:53.964Z</time></trkpt><trkpt lat="43.08072684507581" lon="10.639869911721592"><ele>227.0</ele><time>2026-05-03T10:20:54.964Z</time></trkpt><trkpt lat="43.080649690376674" lon="10.639731931852033"><ele>227.0</ele><time>2026-05-03T10:20:55.964Z</time></trkpt><trkpt lat="43.080567245340276" lon="10.639571488152827"><ele>227.0</ele><time>2026-05-03T10:20:56.964Z</time></trkpt><trkpt lat="43.0804932282484" lon="10.63938439279089"><ele>227.0</ele><time>2026-05-03T10:20:57.964Z</time></trkpt><trkpt lat="43.08043155075855" lon="10.639211358084848"><ele>227.0</ele><time>2026-05-03T10:20:58.964Z</time></trkpt><trkpt lat="43.08036769612209" lon="10.639036209091307"><ele>232.25</ele><time>2026-05-03T10:20:59.964Z</time></trkpt><trkpt lat="43.08030158661579" lon="10.638859991112172"><ele>237.5</ele><time>2026-05-03T10:21:00.964Z</time></trkpt><trkpt lat="43.08023548327162" lon="10.638695946511275"><ele>242.75</ele><time>2026-05-03T10:21:01.964Z</time></trkpt><trkpt lat="43.08017033310881" lon="10.638542787523425"><ele>248.0</ele><time>2026-05-03T10:21:02.964Z</time></trkpt><trkpt lat="43.08011104908004" lon="10.638408150607143"><ele>251.8</ele><time>2026-05-03T10:21:03.964Z</time></trkpt><trkpt lat="43.08005268755767" lon="10.638289699432159"><ele>255.60000000000002</ele><time>2026-05-03T10:21:04.964Z</time></trkpt><trkpt lat="43.08000464980482" lon="10.638167942315885"><ele>259.4</ele><time>2026-05-03T10:21:05.964Z</time></trkpt><trkpt lat="43.07995897138024" lon="10.63804730886393"><ele>263.2</ele><time>2026-05-03T10:21:06.964Z</time></trkpt><trkpt lat="43.07990718498946" lon="10.637922008626477"><ele>267.0</ele><time>2026-05-03T10:21:07.964Z</time></trkpt><trkpt lat="43.0798677182469" lon="10.63780015780348"><ele>273.8333333333333</ele><time>2026-05-03T10:21:08.964Z</time></trkpt><trkpt lat="43.07982579338385" lon="10.637712685020901"><ele>280.6666666666667</ele><time>2026-05-03T10:21:09.964Z</time></trkpt><trkpt lat="43.07976605052316" lon="10.637655426029847"><ele>287.5</ele><time>2026-05-03T10:21:10.964Z</time></trkpt><trkpt lat="43.079693425542075" lon="10.637642833502655"><ele>294.33333333333337</ele><time>2026-05-03T10:21:11.964Z</time></trkpt><trkpt lat="43.07962788403903" lon="10.637652433787268"><ele>301.1666666666667</ele><time>2026-05-03T10:21:12.964Z</time></trkpt><trkpt lat="43.07955765558695" lon="10.637685229769339"><ele>308.0</ele><time>2026-05-03T10:21:13.964Z</time></trkpt><trkpt lat="43.07947732567297" lon="10.63774769275558"><ele>301.75</ele><time>2026-05-03T10:21:14.964Z</time></trkpt><trkpt lat="43.079430136361744" lon="10.637838580297288"><ele>295.5</ele><time>2026-05-03T10:21:15.963Z</time></trkpt><trkpt lat="43.07938502454745" lon="10.637996256166316"><ele>289.25</ele><time>2026-05-03T10:21:16.964Z</time></trkpt><trkpt lat="43.079342771238586" lon="10.638199586130657"><ele>283.0</ele><time>2026-05-03T10:21:17.964Z</time></trkpt><trkpt lat="43.07926249467854" lon="10.638444638999719"><ele>285.5</ele><time>2026-05-03T10:21:18.963Z</time></trkpt><trkpt lat="43.07915950011559" lon="10.638710573713897"><ele>288.0</ele><time>2026-05-03T10:21:19.963Z</time></trkpt><trkpt lat="43.07905491997757" lon="10.639024382531725"><ele>288.0</ele><time>2026-05-03T10:21:20.963Z</time></trkpt><trkpt lat="43.07893702909698" lon="10.639319982090205"><ele>288.0</ele><time>2026-05-03T10:21:21.964Z</time></trkpt><trkpt lat="43.07884313580332" lon="10.639553072042977"><ele>288.0</ele><time>2026-05-03T10:21:22.964Z</time></trkpt><trkpt lat="43.0787623969513" lon="10.639726204786427"><ele>284.6</ele><time>2026-05-03T10:21:23.964Z</time></trkpt><trkpt lat="43.078698160212085" lon="10.639894898626391"><ele>281.20000000000005</ele><time>2026-05-03T10:21:24.963Z</time></trkpt><trkpt lat="43.07861725629122" lon="10.640033377966745"><ele>277.8</ele><time>2026-05-03T10:21:25.963Z</time></trkpt><trkpt lat="43.07855768148537" lon="10.640143615687677"><ele>274.40000000000003</ele><time>2026-05-03T10:21:26.963Z</time></trkpt><trkpt lat="43.078512158433135" lon="10.640226136731687"><ele>271.0</ele><time>2026-05-03T10:21:27.964Z</time></trkpt><trkpt lat="43.07845309966339" lon="10.640286677416599"><ele>268.66666666666663</ele><time>2026-05-03T10:21:28.964Z</time></trkpt><trkpt lat="43.078366233344745" lon="10.640306064316075"><ele>266.3333333333333</ele><time>2026-05-03T10:21:29.964Z</time></trkpt><trkpt lat="43.07827979343903" lon="10.640310013844251"><ele>264.0</ele><time>2026-05-03T10:21:30.964Z</time></trkpt><trkpt lat="43.078204568561475" lon="10.640285783820943"><ele>261.6666666666667</ele><time>2026-05-03T10:21:31.964Z</time></trkpt><trkpt lat="43.078136223437475" lon="10.640231485073258"><ele>259.33333333333337</ele><time>2026-05-03T10:21:32.964Z</time></trkpt><trkpt lat="43.07807369372119" lon="10.640133359701004"><ele>257.0</ele><time>2026-05-03T10:21:33.964Z</time></trkpt><trkpt lat="43.07800640606502" lon="10.639973559937395"><ele>259.0</ele><time>2026-05-03T10:21:34.964Z</time></trkpt><trkpt lat="43.077929998033" lon="10.639772131693794"><ele>261.0</ele><time>2026-05-03T10:21:35.964Z</time></trkpt><trkpt lat="43.07782333105438" lon="10.63955766431401"><ele>263.0</ele><time>2026-05-03T10:21:36.964Z</time></trkpt><trkpt lat="43.07770403366693" lon="10.639328033807077"><ele>263.0</ele><time>2026-05-03T10:21:37.964Z</time></trkpt><trkpt lat="43.077601103033764" lon="10.639139425639073"><ele>263.0</ele><time>2026-05-03T10:21:38.964Z</time></trkpt><trkpt lat="43.0775198662145" lon="10.638985055639715"><ele>263.0</ele><time>2026-05-03T10:21:39.964Z</time></trkpt><trkpt lat="43.077457976176824" lon="10.63888239027775"><ele>263.0</ele><time>2026-05-03T10:21:40.964Z</time></trkpt><trkpt lat="43.077402429648416" lon="10.638788286059425"><ele>258.25</ele><time>2026-05-03T10:21:41.964Z</time></trkpt><trkpt lat="43.0773674434103" lon="10.638666952082323"><ele>253.5</ele><time>2026-05-03T10:21:42.964Z</time></trkpt><trkpt lat="43.07734252054102" lon="10.638508158739503"><ele>248.75</ele><time>2026-05-03T10:21:43.964Z</time></trkpt><trkpt lat="43.07731027173545" lon="10.638333178931543"><ele>244.0</ele><time>2026-05-03T10:21:44.964Z</time></trkpt><trkpt lat="43.07727826128981" lon="10.638103491241164"><ele>244.0</ele><time>2026-05-03T10:21:45.964Z</time></trkpt><trkpt lat="43.077239661752394" lon="10.637835079825328"><ele>244.0</ele><time>2026-05-03T10:21:46.964Z</time></trkpt><trkpt lat="43.07720145768342" lon="10.637568637785872"><ele>244.0</ele><time>2026-05-03T10:21:47.964Z</time></trkpt><trkpt lat="43.07716454899543" lon="10.637336628959869"><ele>247.5</ele><time>2026-05-03T10:21:48.964Z</time></trkpt><trkpt lat="43.07712481715054" lon="10.637112789497804"><ele>251.0</ele><time>2026-05-03T10:21:49.964Z</time></trkpt><trkpt lat="43.077092199633626" lon="10.636907325432963"><ele>254.5</ele><time>2026-05-03T10:21:50.964Z</time></trkpt><trkpt lat="43.07706804832532" lon="10.636740814412004"><ele>258.0</ele><time>2026-05-03T10:21:51.964Z</time></trkpt><trkpt lat="43.077052962850495" lon="10.636631290946681"><ele>261.8</ele><time>2026-05-03T10:21:52.964Z</time></trkpt><trkpt lat="43.076977411553045" lon="10.63650438761091"><ele>265.6</ele><time>2026-05-03T10:21:54.964Z</time></trkpt><trkpt lat="43.07689931980757" lon="10.63646047283874"><ele>269.4</ele><time>2026-05-03T10:21:55.964Z</time></trkpt><trkpt lat="43.076828131057034" lon="10.636430217418198"><ele>273.2</ele><time>2026-05-03T10:21:56.964Z</time></trkpt><trkpt lat="43.07672828211661" lon="10.636447262433322"><ele>277.0</ele><time>2026-05-03T10:21:58.964Z</time></trkpt><trkpt lat="43.07665120871354" lon="10.636522630038192"><ele>278.66666666666663</ele><time>2026-05-03T10:22:00.964Z</time></trkpt><trkpt lat="43.076591385860326" lon="10.636588177993858"><ele>280.3333333333333</ele><time>2026-05-03T10:22:01.964Z</time></trkpt><trkpt lat="43.07651229396063" lon="10.636661130499595"><ele>282.0</ele><time>2026-05-03T10:22:02.964Z</time></trkpt><trkpt lat="43.07644013944508" lon="10.63673632458461"><ele>283.6666666666667</ele><time>2026-05-03T10:22:03.964Z</time></trkpt><trkpt lat="43.07636593433271" lon="10.636809536714196"><ele>285.33333333333337</ele><time>2026-05-03T10:22:04.964Z</time></trkpt><trkpt lat="43.07628694331106" lon="10.636881955705421"><ele>287.0</ele><time>2026-05-03T10:22:05.964Z</time></trkpt><trkpt lat="43.07622274397727" lon="10.636945567843654"><ele>283.6</ele><time>2026-05-03T10:22:06.964Z</time></trkpt><trkpt lat="43.076162041711115" lon="10.63700716150792"><ele>280.2</ele><time>2026-05-03T10:22:07.964Z</time></trkpt><trkpt lat="43.07609076683327" lon="10.637079278609718"><ele>276.8</ele><time>2026-05-03T10:22:08.964Z</time></trkpt><trkpt lat="43.07601172573148" lon="10.637158105581873"><ele>273.4</ele><time>2026-05-03T10:22:09.964Z</time></trkpt><trkpt lat="43.075923808157725" lon="10.637229816408711"><ele>270.0</ele><time>2026-05-03T10:22:10.964Z</time></trkpt><trkpt lat="43.07584235574377" lon="10.637304607250929"><ele>270.0</ele><time>2026-05-03T10:22:11.964Z</time></trkpt><trkpt lat="43.07577689990252" lon="10.637383574825877"><ele>270.0</ele><time>2026-05-03T10:22:12.964Z</time></trkpt><trkpt lat="43.07573680945121" lon="10.637476487489725"><ele>270.0</ele><time>2026-05-03T10:22:13.964Z</time></trkpt><trkpt lat="43.075730314390206" lon="10.637591047277025"><ele>270.0</ele><time>2026-05-03T10:22:14.964Z</time></trkpt><trkpt lat="43.07573420027916" lon="10.637746362186686"><ele>270.0</ele><time>2026-05-03T10:22:15.964Z</time></trkpt><trkpt lat="43.07573292359569" lon="10.637927923782737"><ele>272.6</ele><time>2026-05-03T10:22:16.964Z</time></trkpt><trkpt lat="43.07571488596242" lon="10.638096666476498"><ele>275.2</ele><time>2026-05-03T10:22:17.964Z</time></trkpt><trkpt lat="43.075686381925735" lon="10.638202701449353"><ele>277.8</ele><time>2026-05-03T10:22:18.964Z</time></trkpt><trkpt lat="43.07565303513591" lon="10.63828762797324"><ele>280.4</ele><time>2026-05-03T10:22:19.964Z</time></trkpt><trkpt lat="43.075584311244" lon="10.638418675137364"><ele>283.0</ele><time>2026-05-03T10:22:20.964Z</time></trkpt><trkpt lat="43.0754709222791" lon="10.63856450322773"><ele>277.5</ele><time>2026-05-03T10:22:21.964Z</time></trkpt><trkpt lat="43.07536703571301" lon="10.638727860854635"><ele>272.0</ele><time>2026-05-03T10:22:22.964Z</time></trkpt><trkpt lat="43.07526390652114" lon="10.638858117517001"><ele>266.5</ele><time>2026-05-03T10:22:23.964Z</time></trkpt><trkpt lat="43.0751963195252" lon="10.638951286648956"><ele>261.0</ele><time>2026-05-03T10:22:24.964Z</time></trkpt><trkpt lat="43.07513027761986" lon="10.639015257210573"><ele>261.0</ele><time>2026-05-03T10:22:25.964Z</time></trkpt><trkpt lat="43.075072722210464" lon="10.639054947862212"><ele>261.0</ele><time>2026-05-03T10:22:26.964Z</time></trkpt><trkpt lat="43.075005514563145" lon="10.639081308018802"><ele>261.0</ele><time>2026-05-03T10:22:27.964Z</time></trkpt><trkpt lat="43.074805893676405" lon="10.63904148790264"><ele>261.0</ele><time>2026-05-03T10:22:29.964Z</time></trkpt><trkpt lat="43.074699796938404" lon="10.638975766517012"><ele>261.1666666666667</ele><time>2026-05-03T10:22:30.964Z</time></trkpt><trkpt lat="43.07461157138389" lon="10.638911318518595"><ele>261.3333333333333</ele><time>2026-05-03T10:22:31.964Z</time></trkpt><trkpt lat="43.074534148872466" lon="10.638877790992094"><ele>261.5</ele><time>2026-05-03T10:22:32.964Z</time></trkpt><trkpt lat="43.074460932864476" lon="10.638868845026396"><ele>261.66666666666663</ele><time>2026-05-03T10:22:33.964Z</time></trkpt><trkpt lat="43.07438490964875" lon="10.638888819427915"><ele>261.8333333333333</ele><time>2026-05-03T10:22:34.964Z</time></trkpt><trkpt lat="43.07430114606215" lon="10.63895439908664"><ele>262.0</ele><time>2026-05-03T10:22:35.964Z</time></trkpt><trkpt lat="43.074204074049796" lon="10.63905356145398"><ele>261.0</ele><time>2026-05-03T10:22:36.964Z</time></trkpt><trkpt lat="43.07409797765089" lon="10.639178763559563"><ele>260.0</ele><time>2026-05-03T10:22:37.964Z</time></trkpt><trkpt lat="43.07400332320599" lon="10.639281770582336"><ele>259.0</ele><time>2026-05-03T10:22:38.964Z</time></trkpt><trkpt lat="43.073921020090346" lon="10.639340437281769"><ele>258.0</ele><time>2026-05-03T10:22:39.964Z</time></trkpt><trkpt lat="43.07384663734226" lon="10.63934088752371"><ele>257.0</ele><time>2026-05-03T10:22:40.964Z</time></trkpt><trkpt lat="43.07375199021833" lon="10.639317164415132"><ele>257.0</ele><time>2026-05-03T10:22:41.964Z</time></trkpt><trkpt lat="43.07366520165355" lon="10.639234995670979"><ele>257.0</ele><time>2026-05-03T10:22:42.964Z</time></trkpt><trkpt lat="43.07360112976245" lon="10.63910551786713"><ele>257.0</ele><time>2026-05-03T10:22:43.964Z</time></trkpt><trkpt lat="43.07353203364151" lon="10.638934884191027"><ele>257.0</ele><time>2026-05-03T10:22:44.964Z</time></trkpt><trkpt lat="43.073449425279016" lon="10.638737400853284"><ele>255.66666666666669</ele><time>2026-05-03T10:22:45.964Z</time></trkpt><trkpt lat="43.07336443409632" lon="10.63854435501559"><ele>254.33333333333331</ele><time>2026-05-03T10:22:46.964Z</time></trkpt><trkpt lat="43.07327575679525" lon="10.638349802149225"><ele>253.0</ele><time>2026-05-03T10:22:47.964Z</time></trkpt><trkpt lat="43.073184963379525" lon="10.638157450984787"><ele>253.0</ele><time>2026-05-03T10:22:48.964Z</time></trkpt><trkpt lat="43.0730988698009" lon="10.637990905338736"><ele>253.0</ele><time>2026-05-03T10:22:49.964Z</time></trkpt><trkpt lat="43.073018093994165" lon="10.637808651800935"><ele>253.0</ele><time>2026-05-03T10:22:50.964Z</time></trkpt><trkpt lat="43.072936510138426" lon="10.63762734985116"><ele>254.0</ele><time>2026-05-03T10:22:51.964Z</time></trkpt><trkpt lat="43.07284304135307" lon="10.637434983417021"><ele>255.0</ele><time>2026-05-03T10:22:52.964Z</time></trkpt><trkpt lat="43.07274496538351" lon="10.637243561075271"><ele>256.0</ele><time>2026-05-03T10:22:53.964Z</time></trkpt><trkpt lat="43.072654663910285" lon="10.637038865411633"><ele>253.0</ele><time>2026-05-03T10:22:54.964Z</time></trkpt><trkpt lat="43.072561021170834" lon="10.636828083700328"><ele>250.0</ele><time>2026-05-03T10:22:55.964Z</time></trkpt><trkpt lat="43.072481688361584" lon="10.636619744717242"><ele>247.0</ele><time>2026-05-03T10:22:56.964Z</time></trkpt><trkpt lat="43.07241100678873" lon="10.636428407099274"><ele>247.0</ele><time>2026-05-03T10:22:57.964Z</time></trkpt><trkpt lat="43.072358284650576" lon="10.636258523747212"><ele>247.0</ele><time>2026-05-03T10:22:58.964Z</time></trkpt><trkpt lat="43.072319407990925" lon="10.636099403531714"><ele>247.0</ele><time>2026-05-03T10:22:59.964Z</time></trkpt><trkpt lat="43.072301174560074" lon="10.635914219002311"><ele>247.0</ele><time>2026-05-03T10:23:00.964Z</time></trkpt><trkpt lat="43.07229838462612" lon="10.635725196948194"><ele>247.0</ele><time>2026-05-03T10:23:01.964Z</time></trkpt><trkpt lat="43.07231801025606" lon="10.635548744524641"><ele>247.0</ele><time>2026-05-03T10:23:02.965Z</time></trkpt><trkpt lat="43.0723556629759" lon="10.635388121084107"><ele>247.0</ele><time>2026-05-03T10:23:03.965Z</time></trkpt><trkpt lat="43.07242914081207" lon="10.635205525684217"><ele>247.0</ele><time>2026-05-03T10:23:04.965Z</time></trkpt><trkpt lat="43.07252903082297" lon="10.635008785181949"><ele>250.33333333333331</ele><time>2026-05-03T10:23:05.965Z</time></trkpt><trkpt lat="43.072656582508536" lon="10.634794005671568"><ele>253.66666666666669</ele><time>2026-05-03T10:23:06.965Z</time></trkpt><trkpt lat="43.07278061060444" lon="10.634565697370492"><ele>257.0</ele><time>2026-05-03T10:23:07.965Z</time></trkpt><trkpt lat="43.07286666995576" lon="10.634336235961081"><ele>257.0</ele><time>2026-05-03T10:23:08.965Z</time></trkpt><trkpt lat="43.07294041965347" lon="10.634138379688627"><ele>257.0</ele><time>2026-05-03T10:23:09.965Z</time></trkpt><trkpt lat="43.072992981505905" lon="10.633928405509725"><ele>257.0</ele><time>2026-05-03T10:23:10.965Z</time></trkpt><trkpt lat="43.07304295439334" lon="10.633693502657863"><ele>258.8</ele><time>2026-05-03T10:23:11.965Z</time></trkpt><trkpt lat="43.073082080198375" lon="10.633477757542853"><ele>260.6</ele><time>2026-05-03T10:23:12.965Z</time></trkpt><trkpt lat="43.07310490896362" lon="10.633329694852812"><ele>262.40000000000003</ele><time>2026-05-03T10:23:13.965Z</time></trkpt><trkpt lat="43.07310677752595" lon="10.63323483837242"><ele>264.2</ele><time>2026-05-03T10:23:14.965Z</time></trkpt><trkpt lat="43.07307778459574" lon="10.633138295302663"><ele>266.0</ele><time>2026-05-03T10:23:15.965Z</time></trkpt><trkpt lat="43.07301139819138" lon="10.633048715883618"><ele>266.0</ele><time>2026-05-03T10:23:16.965Z</time></trkpt><trkpt lat="43.072935758627345" lon="10.632981938583837"><ele>266.0</ele><time>2026-05-03T10:23:17.965Z</time></trkpt><trkpt lat="43.072847350989555" lon="10.632952028909392"><ele>266.0</ele><time>2026-05-03T10:23:18.965Z</time></trkpt><trkpt lat="43.072743593174394" lon="10.632988155225535"><ele>266.0</ele><time>2026-05-03T10:23:19.965Z</time></trkpt><trkpt lat="43.07260428241159" lon="10.633102693167155"><ele>266.0</ele><time>2026-05-03T10:23:20.965Z</time></trkpt><trkpt lat="43.07244725595057" lon="10.633218262707729"><ele>266.0</ele><time>2026-05-03T10:23:21.963Z</time></trkpt><trkpt lat="43.07230608962707" lon="10.633288086446258"><ele>266.0</ele><time>2026-05-03T10:23:22.963Z</time></trkpt><trkpt lat="43.07219553556395" lon="10.633342706495016"><ele>266.0</ele><time>2026-05-03T10:23:23.963Z</time></trkpt><trkpt lat="43.07209931604732" lon="10.633348628604965"><ele>264.8</ele><time>2026-05-03T10:23:24.964Z</time></trkpt><trkpt lat="43.07200989966873" lon="10.633332279003818"><ele>263.6</ele><time>2026-05-03T10:23:25.964Z</time></trkpt><trkpt lat="43.07190956176427" lon="10.633290137278228"><ele>262.4</ele><time>2026-05-03T10:23:26.964Z</time></trkpt><trkpt lat="43.07181623481353" lon="10.633246183147433"><ele>261.2</ele><time>2026-05-03T10:23:27.963Z</time></trkpt><trkpt lat="43.07173084761161" lon="10.633180866678012"><ele>260.0</ele><time>2026-05-03T10:23:28.964Z</time></trkpt><trkpt lat="43.0716476672242" lon="10.633097888015635"><ele>262.0</ele><time>2026-05-03T10:23:29.964Z</time></trkpt><trkpt lat="43.07155392795129" lon="10.632971969168526"><ele>264.0</ele><time>2026-05-03T10:23:30.964Z</time></trkpt><trkpt lat="43.07145050689522" lon="10.632840324186269"><ele>266.0</ele><time>2026-05-03T10:23:31.964Z</time></trkpt><trkpt lat="43.07135694648134" lon="10.632708700790984"><ele>268.0</ele><time>2026-05-03T10:23:32.964Z</time></trkpt><trkpt lat="43.071270719341435" lon="10.632573684925374"><ele>268.0</ele><time>2026-05-03T10:23:33.963Z</time></trkpt><trkpt lat="43.07121407642336" lon="10.632449197733408"><ele>268.0</ele><time>2026-05-03T10:23:34.963Z</time></trkpt><trkpt lat="43.07117032647179" lon="10.632290027277996"><ele>268.0</ele><time>2026-05-03T10:23:35.963Z</time></trkpt><trkpt lat="43.07115559858461" lon="10.63216925186836"><ele>268.0</ele><time>2026-05-03T10:23:36.963Z</time></trkpt><trkpt lat="43.071161568230686" lon="10.632072657231962"><ele>268.0</ele><time>2026-05-03T10:23:38.964Z</time></trkpt><trkpt lat="43.07113346651809" lon="10.631939938706456"><ele>270.4</ele><time>2026-05-03T10:23:40.964Z</time></trkpt><trkpt lat="43.07113330933165" lon="10.631839047795996"><ele>272.8</ele><time>2026-05-03T10:23:41.964Z</time></trkpt><trkpt lat="43.07110830409746" lon="10.631680474622138"><ele>275.2</ele><time>2026-05-03T10:23:43.964Z</time></trkpt><trkpt lat="43.07104319337096" lon="10.631535189557914"><ele>277.6</ele><time>2026-05-03T10:23:45.964Z</time></trkpt><trkpt lat="43.070933491127924" lon="10.631437502826081"><ele>280.0</ele><time>2026-05-03T10:23:47.964Z</time></trkpt><trkpt lat="43.07086544554203" lon="10.631413989782777"><ele>280.0</ele><time>2026-05-03T10:23:48.964Z</time></trkpt><trkpt lat="43.070795778847206" lon="10.631396904450176"><ele>280.0</ele><time>2026-05-03T10:23:49.964Z</time></trkpt><trkpt lat="43.070722806383266" lon="10.631406190860805"><ele>280.0</ele><time>2026-05-03T10:23:50.964Z</time></trkpt><trkpt lat="43.070646542467955" lon="10.631451488338069"><ele>280.0</ele><time>2026-05-03T10:23:51.964Z</time></trkpt><trkpt lat="43.07056547662384" lon="10.631513684697966"><ele>280.0</ele><time>2026-05-03T10:23:52.964Z</time></trkpt><trkpt lat="43.07048995298985" lon="10.631570743367483"><ele>280.0</ele><time>2026-05-03T10:23:53.964Z</time></trkpt><trkpt lat="43.07040661291958" lon="10.631613731870953"><ele>278.5</ele><time>2026-05-03T10:23:54.964Z</time></trkpt><trkpt lat="43.070313798164705" lon="10.631652539782582"><ele>277.0</ele><time>2026-05-03T10:23:55.964Z</time></trkpt><trkpt lat="43.07019893132875" lon="10.6316922743132"><ele>275.5</ele><time>2026-05-03T10:23:56.964Z</time></trkpt><trkpt lat="43.070067939455754" lon="10.631711605788084"><ele>274.0</ele><time>2026-05-03T10:23:57.964Z</time></trkpt><trkpt lat="43.06993628198946" lon="10.631691645495849"><ele>269.0</ele><time>2026-05-03T10:23:58.964Z</time></trkpt><trkpt lat="43.06978524980292" lon="10.631628415206851"><ele>264.0</ele><time>2026-05-03T10:23:59.964Z</time></trkpt><trkpt lat="43.06962232927835" lon="10.631539289499143"><ele>259.0</ele><time>2026-05-03T10:24:00.964Z</time></trkpt><trkpt lat="43.069452264966245" lon="10.63144270223224"><ele>259.0</ele><time>2026-05-03T10:24:01.964Z</time></trkpt><trkpt lat="43.06928988675599" lon="10.631369856810243"><ele>259.0</ele><time>2026-05-03T10:24:02.964Z</time></trkpt><trkpt lat="43.069138925876665" lon="10.631301883092721"><ele>259.0</ele><time>2026-05-03T10:24:03.964Z</time></trkpt><trkpt lat="43.06900683795767" lon="10.631234986347232"><ele>257.4</ele><time>2026-05-03T10:24:04.964Z</time></trkpt><trkpt lat="43.06889048552641" lon="10.63117229068429"><ele>255.79999999999998</ele><time>2026-05-03T10:24:05.964Z</time></trkpt><trkpt lat="43.068797441029126" lon="10.631128155299983"><ele>254.20000000000002</ele><time>2026-05-03T10:24:06.964Z</time></trkpt><trkpt lat="43.068692751101594" lon="10.631092513786312"><ele>252.60000000000002</ele><time>2026-05-03T10:24:07.964Z</time></trkpt><trkpt lat="43.06857686691601" lon="10.63110572011641"><ele>251.0</ele><time>2026-05-03T10:24:08.964Z</time></trkpt><trkpt lat="43.06844726119035" lon="10.63113904327014"><ele>251.0</ele><time>2026-05-03T10:24:09.964Z</time></trkpt><trkpt lat="43.06830575695818" lon="10.631165680504742"><ele>251.0</ele><time>2026-05-03T10:24:10.964Z</time></trkpt><trkpt lat="43.068142710178314" lon="10.631207576098946"><ele>251.0</ele><time>2026-05-03T10:24:11.964Z</time></trkpt><trkpt lat="43.06798327688639" lon="10.631252515942444"><ele>250.0</ele><time>2026-05-03T10:24:12.964Z</time></trkpt><trkpt lat="43.06782669369804" lon="10.631293553280837"><ele>249.0</ele><time>2026-05-03T10:24:13.964Z</time></trkpt><trkpt lat="43.067688172034146" lon="10.631325110269575"><ele>248.0</ele><time>2026-05-03T10:24:14.964Z</time></trkpt><trkpt lat="43.06756061965668" lon="10.631336071739605"><ele>247.0</ele><time>2026-05-03T10:24:15.964Z</time></trkpt><trkpt lat="43.06744670159255" lon="10.631325278936593"><ele>246.5</ele><time>2026-05-03T10:24:16.964Z</time></trkpt><trkpt lat="43.06733034470441" lon="10.631286264046285"><ele>246.0</ele><time>2026-05-03T10:24:17.964Z</time></trkpt><trkpt lat="43.067220255365875" lon="10.631247316832276"><ele>245.5</ele><time>2026-05-03T10:24:18.964Z</time></trkpt><trkpt lat="43.06712134129879" lon="10.631179205370072"><ele>245.0</ele><time>2026-05-03T10:24:19.964Z</time></trkpt><trkpt lat="43.06702150997178" lon="10.631089009491928"><ele>249.0</ele><time>2026-05-03T10:24:20.964Z</time></trkpt><trkpt lat="43.06692004154466" lon="10.630989677107104"><ele>253.0</ele><time>2026-05-03T10:24:21.964Z</time></trkpt><trkpt lat="43.06682503309074" lon="10.630896999503168"><ele>257.0</ele><time>2026-05-03T10:24:22.964Z</time></trkpt><trkpt lat="43.06672664328363" lon="10.630828444808701"><ele>261.0</ele><time>2026-05-03T10:24:23.964Z</time></trkpt><trkpt lat="43.06662075360698" lon="10.630811636791845"><ele>258.75</ele><time>2026-05-03T10:24:24.964Z</time></trkpt><trkpt lat="43.06652307701847" lon="10.630862922858176"><ele>256.5</ele><time>2026-05-03T10:24:25.964Z</time></trkpt><trkpt lat="43.066426880466985" lon="10.630931332082186"><ele>254.25</ele><time>2026-05-03T10:24:26.964Z</time></trkpt><trkpt lat="43.06633426034741" lon="10.631046626937021"><ele>252.0</ele><time>2026-05-03T10:24:27.964Z</time></trkpt><trkpt lat="43.06624145309995" lon="10.631218649090524"><ele>252.0</ele><time>2026-05-03T10:24:28.964Z</time></trkpt><trkpt lat="43.06613582996468" lon="10.631402845399064"><ele>252.0</ele><time>2026-05-03T10:24:29.964Z</time></trkpt><trkpt lat="43.06605379286828" lon="10.631572645506537"><ele>252.0</ele><time>2026-05-03T10:24:30.964Z</time></trkpt><trkpt lat="43.06597177397518" lon="10.631698839011783"><ele>252.0</ele><time>2026-05-03T10:24:31.964Z</time></trkpt><trkpt lat="43.065888451608714" lon="10.631785433081843"><ele>252.0</ele><time>2026-05-03T10:24:32.964Z</time></trkpt><trkpt lat="43.065788105942985" lon="10.631840003077787"><ele>252.0</ele><time>2026-05-03T10:24:33.964Z</time></trkpt><trkpt lat="43.06568154998965" lon="10.63186879787685"><ele>252.0</ele><time>2026-05-03T10:24:34.964Z</time></trkpt><trkpt lat="43.06557430511285" lon="10.63187004400683"><ele>252.0</ele><time>2026-05-03T10:24:35.964Z</time></trkpt><trkpt lat="43.06548352017982" lon="10.631841700573089"><ele>252.0</ele><time>2026-05-03T10:24:36.964Z</time></trkpt><trkpt lat="43.06540716724941" lon="10.631780238546702"><ele>247.5</ele><time>2026-05-03T10:24:37.964Z</time></trkpt><trkpt lat="43.06533597134692" lon="10.631685744711863"><ele>243.0</ele><time>2026-05-03T10:24:38.964Z</time></trkpt><trkpt lat="43.06527629167538" lon="10.631543631576886"><ele>238.5</ele><time>2026-05-03T10:24:39.964Z</time></trkpt><trkpt lat="43.06521746320837" lon="10.631371033730138"><ele>234.0</ele><time>2026-05-03T10:24:40.964Z</time></trkpt><trkpt lat="43.065168312686126" lon="10.63117669148953"><ele>234.75</ele><time>2026-05-03T10:24:41.964Z</time></trkpt><trkpt lat="43.06511637328528" lon="10.63097063657593"><ele>235.5</ele><time>2026-05-03T10:24:42.964Z</time></trkpt><trkpt lat="43.0650615363918" lon="10.630817465348"><ele>236.25</ele><time>2026-05-03T10:24:43.964Z</time></trkpt><trkpt lat="43.064986401158706" lon="10.630708013154385"><ele>237.0</ele><time>2026-05-03T10:24:44.964Z</time></trkpt><trkpt lat="43.06488396330012" lon="10.630626144606738"><ele>237.0</ele><time>2026-05-03T10:24:45.964Z</time></trkpt><trkpt lat="43.064770210882614" lon="10.630544168400537"><ele>237.0</ele><time>2026-05-03T10:24:46.964Z</time></trkpt><trkpt lat="43.06462413182195" lon="10.6304883439161"><ele>237.0</ele><time>2026-05-03T10:24:47.964Z</time></trkpt><trkpt lat="43.06449924624619" lon="10.630460741565734"><ele>237.0</ele><time>2026-05-03T10:24:48.964Z</time></trkpt><trkpt lat="43.06439687551288" lon="10.630423103053069"><ele>237.0</ele><time>2026-05-03T10:24:49.964Z</time></trkpt><trkpt lat="43.06430943644233" lon="10.630359856262645"><ele>237.0</ele><time>2026-05-03T10:24:50.964Z</time></trkpt><trkpt lat="43.06422036278168" lon="10.630237103840448"><ele>237.0</ele><time>2026-05-03T10:24:51.964Z</time></trkpt><trkpt lat="43.06412881322916" lon="10.630067345395386"><ele>237.0</ele><time>2026-05-03T10:24:52.964Z</time></trkpt><trkpt lat="43.06403728890659" lon="10.629886513391446"><ele>235.0</ele><time>2026-05-03T10:24:53.964Z</time></trkpt><trkpt lat="43.06394357782454" lon="10.629700232953061"><ele>233.0</ele><time>2026-05-03T10:24:54.964Z</time></trkpt><trkpt lat="43.06384289087058" lon="10.629482686358454"><ele>231.0</ele><time>2026-05-03T10:24:55.964Z</time></trkpt><trkpt lat="43.06373330011083" lon="10.629237966570775"><ele>231.0</ele><time>2026-05-03T10:24:56.964Z</time></trkpt><trkpt lat="43.063643360630785" lon="10.628962547100382"><ele>231.0</ele><time>2026-05-03T10:24:57.964Z</time></trkpt><trkpt lat="43.063581737568406" lon="10.628722941168132"><ele>231.0</ele><time>2026-05-03T10:24:58.964Z</time></trkpt><trkpt lat="43.063541664395856" lon="10.628524791282748"><ele>233.8</ele><time>2026-05-03T10:24:59.964Z</time></trkpt><trkpt lat="43.06349800282809" lon="10.628382520804962"><ele>236.60000000000002</ele><time>2026-05-03T10:25:00.964Z</time></trkpt><trkpt lat="43.063429404648325" lon="10.628283888596647"><ele>239.4</ele><time>2026-05-03T10:25:01.964Z</time></trkpt><trkpt lat="43.06334488431218" lon="10.62822346875353"><ele>242.2</ele><time>2026-05-03T10:25:02.964Z</time></trkpt><trkpt lat="43.06324547349037" lon="10.628204767556298"><ele>245.0</ele><time>2026-05-03T10:25:03.964Z</time></trkpt><trkpt lat="43.063147284531446" lon="10.628219172396514"><ele>245.0</ele><time>2026-05-03T10:25:04.964Z</time></trkpt><trkpt lat="43.063048274983245" lon="10.62829412495431"><ele>245.0</ele><time>2026-05-03T10:25:05.964Z</time></trkpt><trkpt lat="43.06293435610594" lon="10.628409101573162"><ele>245.0</ele><time>2026-05-03T10:25:06.964Z</time></trkpt><trkpt lat="43.06281798007428" lon="10.628549573940498"><ele>245.0</ele><time>2026-05-03T10:25:07.964Z</time></trkpt><trkpt lat="43.06269832152661" lon="10.628687507778414"><ele>242.0</ele><time>2026-05-03T10:25:08.964Z</time></trkpt><trkpt lat="43.06260989732579" lon="10.628771462897733"><ele>239.0</ele><time>2026-05-03T10:25:09.964Z</time></trkpt><trkpt lat="43.06253008322739" lon="10.628823901828929"><ele>236.0</ele><time>2026-05-03T10:25:10.964Z</time></trkpt><trkpt lat="43.06243603548985" lon="10.628849652152347"><ele>233.0</ele><time>2026-05-03T10:25:11.964Z</time></trkpt><trkpt lat="43.06234147301325" lon="10.628839232229392"><ele>230.0</ele><time>2026-05-03T10:25:12.964Z</time></trkpt><trkpt lat="43.0622456786793" lon="10.628803355168616"><ele>229.5</ele><time>2026-05-03T10:25:13.964Z</time></trkpt><trkpt lat="43.062138565502956" lon="10.62872452230444"><ele>229.0</ele><time>2026-05-03T10:25:14.964Z</time></trkpt><trkpt lat="43.062026708075926" lon="10.628613156010648"><ele>228.5</ele><time>2026-05-03T10:25:15.964Z</time></trkpt><trkpt lat="43.061948214224515" lon="10.628514309274387"><ele>228.0</ele><time>2026-05-03T10:25:16.964Z</time></trkpt><trkpt lat="43.06188573023177" lon="10.628415450290317"><ele>228.0</ele><time>2026-05-03T10:25:17.965Z</time></trkpt><trkpt lat="43.06185098670146" lon="10.628302935195018"><ele>228.0</ele><time>2026-05-03T10:25:18.965Z</time></trkpt><trkpt lat="43.06183905975505" lon="10.628167921526522"><ele>228.0</ele><time>2026-05-03T10:25:19.965Z</time></trkpt><trkpt lat="43.0618220527962" lon="10.62803038713053"><ele>228.0</ele><time>2026-05-03T10:25:20.965Z</time></trkpt><trkpt lat="43.0617770100005" lon="10.627921218249933"><ele>228.0</ele><time>2026-05-03T10:25:21.965Z</time></trkpt><trkpt lat="43.06168600568262" lon="10.627814336038053"><ele>223.0</ele><time>2026-05-03T10:25:22.965Z</time></trkpt><trkpt lat="43.06156322228443" lon="10.6277225850282"><ele>218.0</ele><time>2026-05-03T10:25:23.965Z</time></trkpt><trkpt lat="43.0614549966634" lon="10.62763440184945"><ele>213.0</ele><time>2026-05-03T10:25:24.965Z</time></trkpt><trkpt lat="43.06138628410976" lon="10.62754046872575"><ele>208.0</ele><time>2026-05-03T10:25:25.965Z</time></trkpt><trkpt lat="43.06134184156168" lon="10.627431057702392"><ele>208.0</ele><time>2026-05-03T10:25:26.965Z</time></trkpt><trkpt lat="43.061308766796" lon="10.62732107290245"><ele>208.0</ele><time>2026-05-03T10:25:27.964Z</time></trkpt><trkpt lat="43.061287516169465" lon="10.627189887404286"><ele>208.0</ele><time>2026-05-03T10:25:28.964Z</time></trkpt><trkpt lat="43.061288442236986" lon="10.627049075774623"><ele>208.0</ele><time>2026-05-03T10:25:29.964Z</time></trkpt><trkpt lat="43.06132480145741" lon="10.626879541518958"><ele>208.0</ele><time>2026-05-03T10:25:30.964Z</time></trkpt><trkpt lat="43.06139511301439" lon="10.626680590150892"><ele>211.0</ele><time>2026-05-03T10:25:31.963Z</time></trkpt><trkpt lat="43.06146636011443" lon="10.626479478272282"><ele>214.0</ele><time>2026-05-03T10:25:32.963Z</time></trkpt><trkpt lat="43.061518121286255" lon="10.626307674097683"><ele>217.0</ele><time>2026-05-03T10:25:33.964Z</time></trkpt><trkpt lat="43.061550549176964" lon="10.626169048632331"><ele>220.0</ele><time>2026-05-03T10:25:34.963Z</time></trkpt><trkpt lat="43.061558132222764" lon="10.62604751965331"><ele>223.4</ele><time>2026-05-03T10:25:35.963Z</time></trkpt><trkpt lat="43.06153363052961" lon="10.625937365121782"><ele>226.8</ele><time>2026-05-03T10:25:36.964Z</time></trkpt><trkpt lat="43.061476492897505" lon="10.625851302153253"><ele>230.2</ele><time>2026-05-03T10:25:37.963Z</time></trkpt><trkpt lat="43.06138420834757" lon="10.625796842657067"><ele>233.6</ele><time>2026-05-03T10:25:38.963Z</time></trkpt><trkpt lat="43.0612701279702" lon="10.625758131021572"><ele>237.0</ele><time>2026-05-03T10:25:39.964Z</time></trkpt><trkpt lat="43.06112888243358" lon="10.625767846991376"><ele>237.0</ele><time>2026-05-03T10:25:40.964Z</time></trkpt><trkpt lat="43.060968485966015" lon="10.625806128171368"><ele>237.0</ele><time>2026-05-03T10:25:41.964Z</time></trkpt><trkpt lat="43.060823681908495" lon="10.62584178597965"><ele>237.0</ele><time>2026-05-03T10:25:42.964Z</time></trkpt><trkpt lat="43.06071458081057" lon="10.625871216287573"><ele>237.0</ele><time>2026-05-03T10:25:43.964Z</time></trkpt><trkpt lat="43.060646097003456" lon="10.625861270185885"><ele>232.2</ele><time>2026-05-03T10:25:44.964Z</time></trkpt><trkpt lat="43.060582641663785" lon="10.62582154455416"><ele>227.39999999999998</ele><time>2026-05-03T10:25:45.964Z</time></trkpt><trkpt lat="43.06051299102391" lon="10.625732080118512"><ele>222.60000000000002</ele><time>2026-05-03T10:25:46.964Z</time></trkpt><trkpt lat="43.060451961463265" lon="10.625627614517061"><ele>217.8</ele><time>2026-05-03T10:25:47.964Z</time></trkpt><trkpt lat="43.0604158810366" lon="10.625517392743223"><ele>213.0</ele><time>2026-05-03T10:25:48.964Z</time></trkpt><trkpt lat="43.06039779190933" lon="10.62537396809982"><ele>217.2</ele><time>2026-05-03T10:25:49.964Z</time></trkpt><trkpt lat="43.06038668311015" lon="10.625222638562262"><ele>221.4</ele><time>2026-05-03T10:25:50.964Z</time></trkpt><trkpt lat="43.06036332701767" lon="10.625079073244901"><ele>225.59999999999997</ele><time>2026-05-03T10:25:51.964Z</time></trkpt><trkpt lat="43.06031640254803" lon="10.624964678270373"><ele>229.79999999999998</ele><time>2026-05-03T10:25:52.964Z</time></trkpt><trkpt lat="43.060231236699444" lon="10.624872088114422"><ele>234.0</ele><time>2026-05-03T10:25:53.964Z</time></trkpt><trkpt lat="43.06011033590745" lon="10.624814213318317"><ele>234.0</ele><time>2026-05-03T10:25:54.964Z</time></trkpt><trkpt lat="43.06000333987037" lon="10.624771476602493"><ele>234.0</ele><time>2026-05-03T10:25:55.964Z</time></trkpt><trkpt lat="43.059883858738814" lon="10.624720548949766"><ele>234.0</ele><time>2026-05-03T10:25:56.964Z</time></trkpt><trkpt lat="43.059792069937174" lon="10.624628050608358"><ele>234.0</ele><time>2026-05-03T10:25:57.964Z</time></trkpt><trkpt lat="43.059725493168095" lon="10.624505090592795"><ele>231.2</ele><time>2026-05-03T10:25:58.964Z</time></trkpt><trkpt lat="43.05967722889567" lon="10.624362227412082"><ele>228.39999999999998</ele><time>2026-05-03T10:25:59.964Z</time></trkpt><trkpt lat="43.05964023570041" lon="10.624212432540679"><ele>225.6</ele><time>2026-05-03T10:26:00.964Z</time></trkpt><trkpt lat="43.059634065111595" lon="10.62407206175859"><ele>222.8</ele><time>2026-05-03T10:26:01.964Z</time></trkpt><trkpt lat="43.05964009959591" lon="10.623931369003234"><ele>220.0</ele><time>2026-05-03T10:26:02.964Z</time></trkpt><trkpt lat="43.05966789882154" lon="10.623779985813206"><ele>217.25</ele><time>2026-05-03T10:26:03.964Z</time></trkpt><trkpt lat="43.05971508078484" lon="10.62361809235907"><ele>214.5</ele><time>2026-05-03T10:26:04.964Z</time></trkpt><trkpt lat="43.0597728994632" lon="10.62345213180181"><ele>211.75</ele><time>2026-05-03T10:26:05.964Z</time></trkpt><trkpt lat="43.05982119532537" lon="10.623283024447796"><ele>209.0</ele><time>2026-05-03T10:26:06.964Z</time></trkpt><trkpt lat="43.059870340333504" lon="10.623114618020175"><ele>209.0</ele><time>2026-05-03T10:26:07.964Z</time></trkpt><trkpt lat="43.05987065386583" lon="10.622956927540592"><ele>209.0</ele><time>2026-05-03T10:26:08.964Z</time></trkpt><trkpt lat="43.05982596149861" lon="10.622791297297752"><ele>209.0</ele><time>2026-05-03T10:26:09.964Z</time></trkpt><trkpt lat="43.059753631436706" lon="10.622621276705942"><ele>209.0</ele><time>2026-05-03T10:26:10.964Z</time></trkpt><trkpt lat="43.05967872714515" lon="10.6224618947037"><ele>210.5</ele><time>2026-05-03T10:26:11.964Z</time></trkpt><trkpt lat="43.0596134479428" lon="10.62230445189493"><ele>212.0</ele><time>2026-05-03T10:26:12.964Z</time></trkpt><trkpt lat="43.05955267327964" lon="10.622167161837373"><ele>213.5</ele><time>2026-05-03T10:26:13.964Z</time></trkpt><trkpt lat="43.0595027871066" lon="10.622026179114252"><ele>215.0</ele><time>2026-05-03T10:26:14.964Z</time></trkpt><trkpt lat="43.05946288470847" lon="10.62188730691501"><ele>216.0</ele><time>2026-05-03T10:26:15.964Z</time></trkpt><trkpt lat="43.05944188037672" lon="10.621755025290273"><ele>217.0</ele><time>2026-05-03T10:26:16.964Z</time></trkpt><trkpt lat="43.05944112167826" lon="10.621606540041428"><ele>218.0</ele><time>2026-05-03T10:26:17.964Z</time></trkpt><trkpt lat="43.05946616320007" lon="10.621445670301169"><ele>219.0</ele><time>2026-05-03T10:26:18.964Z</time></trkpt><trkpt lat="43.059508318140615" lon="10.621286712014486"><ele>218.0</ele><time>2026-05-03T10:26:19.964Z</time></trkpt><trkpt lat="43.05956819241045" lon="10.621125739668487"><ele>217.0</ele><time>2026-05-03T10:26:20.964Z</time></trkpt><trkpt lat="43.059652473748315" lon="10.620971309859812"><ele>216.0</ele><time>2026-05-03T10:26:21.964Z</time></trkpt><trkpt lat="43.05975919632161" lon="10.62082717288236"><ele>215.0</ele><time>2026-05-03T10:26:22.964Z</time></trkpt><trkpt lat="43.05987692519878" lon="10.62069621004397"><ele>219.5</ele><time>2026-05-03T10:26:23.964Z</time></trkpt><trkpt lat="43.05998294832687" lon="10.620551493037937"><ele>224.0</ele><time>2026-05-03T10:26:24.964Z</time></trkpt><trkpt lat="43.06006719063849" lon="10.620419851300378"><ele>228.5</ele><time>2026-05-03T10:26:25.964Z</time></trkpt><trkpt lat="43.06013322012127" lon="10.620303716837963"><ele>233.0</ele><time>2026-05-03T10:26:26.964Z</time></trkpt><trkpt lat="43.060204563083516" lon="10.620189914159438"><ele>233.0</ele><time>2026-05-03T10:26:27.964Z</time></trkpt><trkpt lat="43.060269183977915" lon="10.62006517424543"><ele>233.0</ele><time>2026-05-03T10:26:28.964Z</time></trkpt><trkpt lat="43.06031086256954" lon="10.619930007167653"><ele>233.0</ele><time>2026-05-03T10:26:29.964Z</time></trkpt><trkpt lat="43.06032145295792" lon="10.619803057357856"><ele>233.0</ele><time>2026-05-03T10:26:30.964Z</time></trkpt><trkpt lat="43.06033238964705" lon="10.619699367863179"><ele>233.0</ele><time>2026-05-03T10:26:31.964Z</time></trkpt><trkpt lat="43.06043981157738" lon="10.619637475477006"><ele>233.0</ele><time>2026-05-03T10:26:33.964Z</time></trkpt><trkpt lat="43.06054176334799" lon="10.6196690804838"><ele>233.0</ele><time>2026-05-03T10:26:34.964Z</time></trkpt><trkpt lat="43.060652588853365" lon="10.619690304242413"><ele>233.0</ele><time>2026-05-03T10:26:35.964Z</time></trkpt><trkpt lat="43.0607504425996" lon="10.619691395231234"><ele>233.0</ele><time>2026-05-03T10:26:36.964Z</time></trkpt><trkpt lat="43.06083196911713" lon="10.619689457761643"><ele>233.0</ele><time>2026-05-03T10:26:37.964Z</time></trkpt><trkpt lat="43.0608980576543" lon="10.619699258707378"><ele>236.50000000000003</ele><time>2026-05-03T10:26:39.964Z</time></trkpt><trkpt lat="43.060954918645294" lon="10.619612124285908"><ele>240.0</ele><time>2026-05-03T10:26:44.964Z</time></trkpt><trkpt lat="43.06100273349191" lon="10.619540028696214"><ele>243.5</ele><time>2026-05-03T10:26:53.964Z</time></trkpt><trkpt lat="43.06105448941035" lon="10.619471785692713"><ele>247.0</ele><time>2026-05-03T10:26:55.964Z</time></trkpt><trkpt lat="43.060995747086444" lon="10.619546885318776"><ele>250.50000000000003</ele><time>2026-05-03T10:26:59.964Z</time></trkpt><trkpt lat="43.06096375489426" lon="10.619662230941183"><ele>254.0</ele><time>2026-05-03T10:27:01.964Z</time></trkpt><trkpt lat="43.060982006450764" lon="10.619815193254935"><ele>254.00000000000003</ele><time>2026-05-03T10:27:03.964Z</time></trkpt><trkpt lat="43.06097933900428" lon="10.619924006408581"><ele>254.0</ele><time>2026-05-03T10:27:04.964Z</time></trkpt><trkpt lat="43.060962018179254" lon="10.620065244552931"><ele>254.0</ele><time>2026-05-03T10:27:05.964Z</time></trkpt><trkpt lat="43.060951601176946" lon="10.6201923165412"><ele>254.0</ele><time>2026-05-03T10:27:06.964Z</time></trkpt><trkpt lat="43.0609744626945" lon="10.620296187292073"><ele>254.00000000000003</ele><time>2026-05-03T10:27:07.964Z</time></trkpt><trkpt lat="43.06102517823951" lon="10.62038440130884"><ele>254.0</ele><time>2026-05-03T10:27:08.964Z</time></trkpt><trkpt lat="43.06109892102371" lon="10.620451730760179"><ele>254.0</ele><time>2026-05-03T10:27:09.964Z</time></trkpt><trkpt lat="43.06119069687743" lon="10.620475495761378"><ele>253.99999999999997</ele><time>2026-05-03T10:27:10.965Z</time></trkpt><trkpt lat="43.061281239730306" lon="10.620462724279841"><ele>253.99999999999997</ele><time>2026-05-03T10:27:11.965Z</time></trkpt><trkpt lat="43.0613573973649" lon="10.620400519689003"><ele>254.0</ele><time>2026-05-03T10:27:12.965Z</time></trkpt><trkpt lat="43.061422073607034" lon="10.620274982255836"><ele>254.0</ele><time>2026-05-03T10:27:13.965Z</time></trkpt><trkpt lat="43.061474017653" lon="10.620133141837591"><ele>254.0</ele><time>2026-05-03T10:27:14.965Z</time></trkpt><trkpt lat="43.06154878382998" lon="10.619894816537794"><ele>254.0</ele><time>2026-05-03T10:27:15.965Z</time></trkpt><trkpt lat="43.061650468630454" lon="10.61966586686774"><ele>254.0</ele><time>2026-05-03T10:27:16.965Z</time></trkpt><trkpt lat="43.061772940033755" lon="10.619478692428956"><ele>249.33333333333334</ele><time>2026-05-03T10:27:17.965Z</time></trkpt><trkpt lat="43.06190826687819" lon="10.619315266004149"><ele>244.66666666666669</ele><time>2026-05-03T10:27:18.965Z</time></trkpt><trkpt lat="43.06203015741191" lon="10.619178040298713"><ele>240.0</ele><time>2026-05-03T10:27:19.965Z</time></trkpt><trkpt lat="43.062138914910115" lon="10.619079116366906"><ele>240.0</ele><time>2026-05-03T10:27:20.965Z</time></trkpt><trkpt lat="43.0622161037463" lon="10.618983946618062"><ele>240.0</ele><time>2026-05-03T10:27:21.965Z</time></trkpt><trkpt lat="43.06225059247924" lon="10.61890820532643"><ele>240.0</ele><time>2026-05-03T10:27:22.965Z</time></trkpt><trkpt lat="43.06220142886604" lon="10.618751997653218"><ele>240.0</ele><time>2026-05-03T10:27:24.965Z</time></trkpt><trkpt lat="43.06214905193071" lon="10.61869957549896"><ele>240.0</ele><time>2026-05-03T10:27:25.965Z</time></trkpt><trkpt lat="43.062077035438506" lon="10.618693875079073"><ele>240.0</ele><time>2026-05-03T10:27:26.965Z</time></trkpt><trkpt lat="43.061999905075396" lon="10.618770488474897"><ele>240.0</ele><time>2026-05-03T10:27:27.965Z</time></trkpt><trkpt lat="43.061926509219006" lon="10.618908525770259"><ele>240.0</ele><time>2026-05-03T10:27:28.965Z</time></trkpt><trkpt lat="43.06187692891184" lon="10.619063935621405"><ele>240.0</ele><time>2026-05-03T10:27:29.965Z</time></trkpt><trkpt lat="43.06182555546062" lon="10.619176812271759"><ele>240.0</ele><time>2026-05-03T10:27:30.965Z</time></trkpt><trkpt lat="43.06177016299696" lon="10.619237828325764"><ele>240.0</ele><time>2026-05-03T10:27:31.965Z</time></trkpt><trkpt lat="43.06164653354187" lon="10.619149101146496"><ele>240.0</ele><time>2026-05-03T10:27:33.964Z</time></trkpt><trkpt lat="43.061622202130934" lon="10.619053633081304"><ele>240.0</ele><time>2026-05-03T10:27:34.964Z</time></trkpt><trkpt lat="43.06164879890579" lon="10.618919480059283"><ele>240.0</ele><time>2026-05-03T10:27:35.964Z</time></trkpt><trkpt lat="43.06171950737648" lon="10.618740707882962"><ele>240.0</ele><time>2026-05-03T10:27:36.964Z</time></trkpt><trkpt lat="43.06181062104377" lon="10.61851791294302"><ele>237.66666666666669</ele><time>2026-05-03T10:27:37.964Z</time></trkpt><trkpt lat="43.06188151915334" lon="10.618256663268161"><ele>235.33333333333334</ele><time>2026-05-03T10:27:38.964Z</time></trkpt><trkpt lat="43.061921274909515" lon="10.617981348031165"><ele>233.0</ele><time>2026-05-03T10:27:39.964Z</time></trkpt><trkpt lat="43.061931023237314" lon="10.617717417369287"><ele>231.33333333333334</ele><time>2026-05-03T10:27:40.964Z</time></trkpt><trkpt lat="43.061882603720385" lon="10.617445090966855"><ele>229.66666666666669</ele><time>2026-05-03T10:27:41.964Z</time></trkpt><trkpt lat="43.06181304273361" lon="10.617209945728526"><ele>228.0</ele><time>2026-05-03T10:27:42.964Z</time></trkpt><trkpt lat="43.06173457018384" lon="10.616996315518556"><ele>228.33333333333331</ele><time>2026-05-03T10:27:43.964Z</time></trkpt><trkpt lat="43.06164338502702" lon="10.616777343134736"><ele>228.66666666666666</ele><time>2026-05-03T10:27:44.964Z</time></trkpt><trkpt lat="43.061529241374" lon="10.616543762565572"><ele>229.0</ele><time>2026-05-03T10:27:45.964Z</time></trkpt><trkpt lat="43.061396243707186" lon="10.616371177899888"><ele>229.0</ele><time>2026-05-03T10:27:46.964Z</time></trkpt><trkpt lat="43.061288809066085" lon="10.616218667398055"><ele>229.0</ele><time>2026-05-03T10:27:47.964Z</time></trkpt><trkpt lat="43.06122783080241" lon="10.616069300168958"><ele>229.0</ele><time>2026-05-03T10:27:48.964Z</time></trkpt><trkpt lat="43.06117849658626" lon="10.615915098439453"><ele>229.0</ele><time>2026-05-03T10:27:49.964Z</time></trkpt><trkpt lat="43.061174624103025" lon="10.615755558994538"><ele>225.75</ele><time>2026-05-03T10:27:50.964Z</time></trkpt><trkpt lat="43.06121044697712" lon="10.615596984409965"><ele>222.5</ele><time>2026-05-03T10:27:51.964Z</time></trkpt><trkpt lat="43.06128132510843" lon="10.615435067654287"><ele>219.25</ele><time>2026-05-03T10:27:52.964Z</time></trkpt><trkpt lat="43.061372108076576" lon="10.615277349068101"><ele>216.0</ele><time>2026-05-03T10:27:53.964Z</time></trkpt><trkpt lat="43.06145552719016" lon="10.615113068692716"><ele>215.0</ele><time>2026-05-03T10:27:54.964Z</time></trkpt><trkpt lat="43.0614936550406" lon="10.614985365014693"><ele>214.00000000000003</ele><time>2026-05-03T10:27:55.964Z</time></trkpt><trkpt lat="43.061481060069795" lon="10.61489048411867"><ele>213.0</ele><time>2026-05-03T10:27:57.964Z</time></trkpt><trkpt lat="43.061377766008285" lon="10.614846924059496"><ele>212.0</ele><time>2026-05-03T10:27:59.964Z</time></trkpt><trkpt lat="43.06125175158317" lon="10.614788240787139"><ele>211.0</ele><time>2026-05-03T10:28:00.964Z</time></trkpt><trkpt lat="43.06112124310035" lon="10.614729828913426"><ele>211.0</ele><time>2026-05-03T10:28:01.964Z</time></trkpt><trkpt lat="43.06098582493062" lon="10.614662101969284"><ele>211.0</ele><time>2026-05-03T10:28:02.964Z</time></trkpt><trkpt lat="43.060867721827535" lon="10.614603397293441"><ele>211.0</ele><time>2026-05-03T10:28:03.964Z</time></trkpt><trkpt lat="43.060777959729556" lon="10.614551954937275"><ele>211.0</ele><time>2026-05-03T10:28:10.964Z</time></trkpt><trkpt lat="43.06068157196939" lon="10.614510313762665"><ele>211.5</ele><time>2026-05-03T10:28:12.964Z</time></trkpt><trkpt lat="43.060610379522046" lon="10.614464592583184"><ele>212.0</ele><time>2026-05-03T10:28:13.964Z</time></trkpt><trkpt lat="43.06048375631086" lon="10.614473685393605"><ele>212.5</ele><time>2026-05-03T10:28:14.964Z</time></trkpt><trkpt lat="43.0603525456999" lon="10.614480250604966"><ele>213.0</ele><time>2026-05-03T10:28:15.964Z</time></trkpt><trkpt lat="43.060166860799136" lon="10.614472740704745"><ele>208.0</ele><time>2026-05-03T10:28:16.964Z</time></trkpt><trkpt lat="43.059921887631184" lon="10.614418125789262"><ele>203.0</ele><time>2026-05-03T10:28:17.964Z</time></trkpt><trkpt lat="43.05968050300264" lon="10.614367977612561"><ele>203.0</ele><time>2026-05-03T10:28:18.964Z</time></trkpt><trkpt lat="43.059450278032905" lon="10.614329129077428"><ele>203.0</ele><time>2026-05-03T10:28:19.964Z</time></trkpt><trkpt lat="43.05923043577027" lon="10.614320838459154"><ele>201.0</ele><time>2026-05-03T10:28:20.964Z</time></trkpt><trkpt lat="43.05904854729733" lon="10.61435472207265"><ele>199.0</ele><time>2026-05-03T10:28:21.964Z</time></trkpt><trkpt lat="43.05887470188734" lon="10.61438740012827"><ele>197.0</ele><time>2026-05-03T10:28:22.964Z</time></trkpt><trkpt lat="43.05873886050724" lon="10.614431139867586"><ele>198.33333333333334</ele><time>2026-05-03T10:28:23.964Z</time></trkpt><trkpt lat="43.058614358663895" lon="10.614494686908532"><ele>199.66666666666669</ele><time>2026-05-03T10:28:24.964Z</time></trkpt><trkpt lat="43.05847532955429" lon="10.614618268807158"><ele>201.0</ele><time>2026-05-03T10:28:25.964Z</time></trkpt><trkpt lat="43.05834042716733" lon="10.614747438857115"><ele>198.60000000000002</ele><time>2026-05-03T10:28:26.965Z</time></trkpt><trkpt lat="43.05822964318719" lon="10.614829511282027"><ele>196.2</ele><time>2026-05-03T10:28:27.965Z</time></trkpt><trkpt lat="43.058151789984954" lon="10.614871418428349"><ele>193.8</ele><time>2026-05-03T10:28:28.965Z</time></trkpt><trkpt lat="43.05802648808701" lon="10.614908992608202"><ele>191.39999999999998</ele><time>2026-05-03T10:28:30.965Z</time></trkpt><trkpt lat="43.057937375405174" lon="10.614958351659679"><ele>189.0</ele><time>2026-05-03T10:28:31.965Z</time></trkpt><trkpt lat="43.057830314701675" lon="10.615022543380794"><ele>189.0</ele><time>2026-05-03T10:28:32.965Z</time></trkpt><trkpt lat="43.05771283100241" lon="10.615074646883418"><ele>189.0</ele><time>2026-05-03T10:28:33.965Z</time></trkpt><trkpt lat="43.05759276166149" lon="10.61505657159767"><ele>189.0</ele><time>2026-05-03T10:28:34.965Z</time></trkpt><trkpt lat="43.05746982778338" lon="10.614989342760499"><ele>189.0</ele><time>2026-05-03T10:28:35.965Z</time></trkpt><trkpt lat="43.05735594192423" lon="10.61493610662425"><ele>187.75</ele><time>2026-05-03T10:28:36.965Z</time></trkpt><trkpt lat="43.05723525973507" lon="10.614878750696525"><ele>186.5</ele><time>2026-05-03T10:28:37.965Z</time></trkpt><trkpt lat="43.057114920446836" lon="10.614838162193946"><ele>185.25</ele><time>2026-05-03T10:28:38.965Z</time></trkpt><trkpt lat="43.05698127783748" lon="10.614826131556066"><ele>184.0</ele><time>2026-05-03T10:28:39.965Z</time></trkpt><trkpt lat="43.05683479358677" lon="10.614847873017276"><ele>184.0</ele><time>2026-05-03T10:28:40.965Z</time></trkpt><trkpt lat="43.05669286312113" lon="10.614909050898543"><ele>184.0</ele><time>2026-05-03T10:28:41.965Z</time></trkpt><trkpt lat="43.056551190515336" lon="10.61499027752346"><ele>184.0</ele><time>2026-05-03T10:28:42.965Z</time></trkpt><trkpt lat="43.05642922724484" lon="10.61507947003034"><ele>184.0</ele><time>2026-05-03T10:28:43.965Z</time></trkpt><trkpt lat="43.056305691768756" lon="10.615157536401453"><ele>180.0</ele><time>2026-05-03T10:28:44.965Z</time></trkpt><trkpt lat="43.05616136218727" lon="10.615234175351766"><ele>176.0</ele><time>2026-05-03T10:28:45.965Z</time></trkpt><trkpt lat="43.05597848527769" lon="10.615315111666142"><ele>172.0</ele><time>2026-05-03T10:28:46.965Z</time></trkpt><trkpt lat="43.055774082431405" lon="10.61541127003645"><ele>169.0</ele><time>2026-05-03T10:28:47.965Z</time></trkpt><trkpt lat="43.0555980983034" lon="10.615488326422678"><ele>166.0</ele><time>2026-05-03T10:28:48.965Z</time></trkpt><trkpt lat="43.055423470635674" lon="10.615527950245289"><ele>163.0</ele><time>2026-05-03T10:28:49.965Z</time></trkpt><trkpt lat="43.05524189676466" lon="10.615581862879075"><ele>163.0</ele><time>2026-05-03T10:28:50.965Z</time></trkpt><trkpt lat="43.055066444812276" lon="10.615625401241044"><ele>163.0</ele><time>2026-05-03T10:28:51.965Z</time></trkpt><trkpt lat="43.05490047067525" lon="10.615666510156323"><ele>163.0</ele><time>2026-05-03T10:28:52.965Z</time></trkpt><trkpt lat="43.054766493001395" lon="10.61569348379692"><ele>160.4</ele><time>2026-05-03T10:28:53.965Z</time></trkpt><trkpt lat="43.05465414816648" lon="10.615705429059126"><ele>157.8</ele><time>2026-05-03T10:28:54.965Z</time></trkpt><trkpt lat="43.054557155938625" lon="10.615677620159254"><ele>155.2</ele><time>2026-05-03T10:28:55.965Z</time></trkpt><trkpt lat="43.054471357612535" lon="10.61560545393214"><ele>152.6</ele><time>2026-05-03T10:28:56.965Z</time></trkpt><trkpt lat="43.054411490515285" lon="10.615482411112115"><ele>150.0</ele><time>2026-05-03T10:28:57.965Z</time></trkpt><trkpt lat="43.05438498818069" lon="10.615285565918013"><ele>150.0</ele><time>2026-05-03T10:28:58.965Z</time></trkpt><trkpt lat="43.05438044311007" lon="10.615080284402069"><ele>150.0</ele><time>2026-05-03T10:28:59.965Z</time></trkpt><trkpt lat="43.05436945536288" lon="10.614895296328706"><ele>150.0</ele><time>2026-05-03T10:29:00.965Z</time></trkpt><trkpt lat="43.05429277163348" lon="10.614702005788283"><ele>150.0</ele><time>2026-05-03T10:29:01.965Z</time></trkpt><trkpt lat="43.054162193393765" lon="10.614485940079975"><ele>148.0</ele><time>2026-05-03T10:29:02.965Z</time></trkpt><trkpt lat="43.054019572439366" lon="10.614250141677287"><ele>146.0</ele><time>2026-05-03T10:29:03.965Z</time></trkpt><trkpt lat="43.05389045488268" lon="10.6140382029326"><ele>144.0</ele><time>2026-05-03T10:29:04.965Z</time></trkpt><trkpt lat="43.053799296500976" lon="10.613862038601185"><ele>144.0</ele><time>2026-05-03T10:29:05.965Z</time></trkpt><trkpt lat="43.053755992052416" lon="10.61369489528541"><ele>144.0</ele><time>2026-05-03T10:29:06.965Z</time></trkpt><trkpt lat="43.05373633912225" lon="10.613555123698127"><ele>144.0</ele><time>2026-05-03T10:29:07.965Z</time></trkpt><trkpt lat="43.05373131673024" lon="10.613395189621668"><ele>144.0</ele><time>2026-05-03T10:29:08.965Z</time></trkpt><trkpt lat="43.05375093226437" lon="10.613220047509829"><ele>145.66666666666666</ele><time>2026-05-03T10:29:09.965Z</time></trkpt><trkpt lat="43.0537662574504" lon="10.613002969134948"><ele>147.33333333333331</ele><time>2026-05-03T10:29:10.965Z</time></trkpt><trkpt lat="43.05376325097709" lon="10.612760915555967"><ele>149.0</ele><time>2026-05-03T10:29:11.965Z</time></trkpt><trkpt lat="43.05372610962773" lon="10.612538247335356"><ele>149.0</ele><time>2026-05-03T10:29:12.965Z</time></trkpt><trkpt lat="43.0536631308972" lon="10.61236870366306"><ele>149.0</ele><time>2026-05-03T10:29:13.965Z</time></trkpt><trkpt lat="43.053590782923344" lon="10.612238878029626"><ele>149.0</ele><time>2026-05-03T10:29:14.965Z</time></trkpt><trkpt lat="43.05351012293784" lon="10.612144135844986"><ele>149.0</ele><time>2026-05-03T10:29:15.965Z</time></trkpt><trkpt lat="43.05345213891752" lon="10.612087702642127"><ele>149.0</ele><time>2026-05-03T10:29:16.965Z</time></trkpt><trkpt lat="43.05334898837507" lon="10.611972977159375"><ele>147.0</ele><time>2026-05-03T10:29:18.965Z</time></trkpt><trkpt lat="43.0532768486375" lon="10.611840317687331"><ele>145.0</ele><time>2026-05-03T10:29:19.965Z</time></trkpt><trkpt lat="43.05321283344928" lon="10.61165229377833"><ele>143.0</ele><time>2026-05-03T10:29:20.965Z</time></trkpt><trkpt lat="43.05314244340344" lon="10.611409091296197"><ele>143.0</ele><time>2026-05-03T10:29:21.965Z</time></trkpt><trkpt lat="43.053070550335676" lon="10.611161074822595"><ele>143.0</ele><time>2026-05-03T10:29:22.965Z</time></trkpt><trkpt lat="43.0530051443302" lon="10.610927248271604"><ele>143.0</ele><time>2026-05-03T10:29:23.965Z</time></trkpt><trkpt lat="43.05296175102967" lon="10.610708035402302"><ele>140.33333333333331</ele><time>2026-05-03T10:29:24.965Z</time></trkpt><trkpt lat="43.05294871509189" lon="10.610478176486419"><ele>137.66666666666666</ele><time>2026-05-03T10:29:25.965Z</time></trkpt><trkpt lat="43.0529551017571" lon="10.610231172942106"><ele>135.0</ele><time>2026-05-03T10:29:26.965Z</time></trkpt><trkpt lat="43.0529913978796" lon="10.609944906731789"><ele>133.66666666666666</ele><time>2026-05-03T10:29:27.965Z</time></trkpt><trkpt lat="43.05302362515801" lon="10.609672527530794"><ele>132.33333333333331</ele><time>2026-05-03T10:29:28.965Z</time></trkpt><trkpt lat="43.05303318774516" lon="10.609444558978145"><ele>131.0</ele><time>2026-05-03T10:29:29.965Z</time></trkpt><trkpt lat="43.05304223788" lon="10.609260306173423"><ele>129.0</ele><time>2026-05-03T10:29:30.965Z</time></trkpt><trkpt lat="43.05303147509727" lon="10.60911241463367"><ele>127.0</ele><time>2026-05-03T10:29:31.965Z</time></trkpt><trkpt lat="43.052960222933706" lon="10.608965357447403"><ele>125.0</ele><time>2026-05-03T10:29:32.965Z</time></trkpt><trkpt lat="43.05285060193391" lon="10.608761939578114"><ele>123.0</ele><time>2026-05-03T10:29:33.965Z</time></trkpt><trkpt lat="43.052733519653906" lon="10.60856402329072"><ele>121.33333333333334</ele><time>2026-05-03T10:29:34.965Z</time></trkpt><trkpt lat="43.0526216276149" lon="10.608371204164982"><ele>119.66666666666667</ele><time>2026-05-03T10:29:35.965Z</time></trkpt><trkpt lat="43.05249817256912" lon="10.608181440062173"><ele>118.0</ele><time>2026-05-03T10:29:36.965Z</time></trkpt><trkpt lat="43.05237560398414" lon="10.60797963435701"><ele>116.5</ele><time>2026-05-03T10:29:37.965Z</time></trkpt><trkpt lat="43.05226818879501" lon="10.607818571341452"><ele>115.0</ele><time>2026-05-03T10:29:38.965Z</time></trkpt><trkpt lat="43.05220344200431" lon="10.607656311571082"><ele>113.5</ele><time>2026-05-03T10:29:39.964Z</time></trkpt><trkpt lat="43.05215780792223" lon="10.607473335608944"><ele>112.0</ele><time>2026-05-03T10:29:40.964Z</time></trkpt><trkpt lat="43.05211809995187" lon="10.607293896827231"><ele>112.0</ele><time>2026-05-03T10:29:41.964Z</time></trkpt><trkpt lat="43.05207842530211" lon="10.607142782444145"><ele>111.99999999999999</ele><time>2026-05-03T10:29:42.964Z</time></trkpt><trkpt lat="43.052042797925175" lon="10.607020137300333"><ele>111.99999999999999</ele><time>2026-05-03T10:29:43.964Z</time></trkpt><trkpt lat="43.05200307378804" lon="10.60712644500343"><ele>112.0</ele><time>2026-05-03T10:29:48.965Z</time></trkpt><trkpt lat="43.05203998748353" lon="10.607237478208164"><ele>112.0</ele><time>2026-05-03T10:29:50.965Z</time></trkpt><trkpt lat="43.05205760176103" lon="10.60740933770702"><ele>112.0</ele><time>2026-05-03T10:29:52.964Z</time></trkpt><trkpt lat="43.05208318051194" lon="10.60753169250037"><ele>111.99999999999999</ele><time>2026-05-03T10:29:53.964Z</time></trkpt><trkpt lat="43.052119824842286" lon="10.607660705351723"><ele>111.99999999999999</ele><time>2026-05-03T10:29:54.964Z</time></trkpt><trkpt lat="43.05214498782968" lon="10.607778377898725"><ele>112.0</ele><time>2026-05-03T10:29:55.964Z</time></trkpt><trkpt lat="43.05211003213386" lon="10.607901814060394"><ele>112.0</ele><time>2026-05-03T10:29:57.964Z</time></trkpt><trkpt lat="43.05198906124511" lon="10.607882282252858"><ele>112.0</ele><time>2026-05-03T10:29:59.964Z</time></trkpt><trkpt lat="43.05191921238689" lon="10.60785379136629"><ele>111.99999999999999</ele><time>2026-05-03T10:30:00.964Z</time></trkpt><trkpt lat="43.05185064859483" lon="10.607824798636264"><ele>111.99999999999999</ele><time>2026-05-03T10:30:01.964Z</time></trkpt><trkpt lat="43.051765996129184" lon="10.607822795604893"><ele>112.0</ele><time>2026-05-03T10:30:03.964Z</time></trkpt><trkpt lat="43.0516385180324" lon="10.607851926033153"><ele>112.0</ele><time>2026-05-03T10:30:09.964Z</time></trkpt><trkpt lat="43.051541357191226" lon="10.60787492678"><ele>112.16666666666667</ele><time>2026-05-03T10:30:10.964Z</time></trkpt><trkpt lat="43.05143404465379" lon="10.607902115218318"><ele>112.33333333333334</ele><time>2026-05-03T10:30:11.964Z</time></trkpt><trkpt lat="43.05133836032884" lon="10.607918808077965"><ele>112.5</ele><time>2026-05-03T10:30:12.964Z</time></trkpt><trkpt lat="43.051260120099734" lon="10.607941375628391"><ele>112.66666666666666</ele><time>2026-05-03T10:30:13.964Z</time></trkpt><trkpt lat="43.05118682900942" lon="10.607977145539522"><ele>112.83333333333333</ele><time>2026-05-03T10:30:14.964Z</time></trkpt><trkpt lat="43.051117396985276" lon="10.608016254152771"><ele>113.0</ele><time>2026-05-03T10:30:15.964Z</time></trkpt><trkpt lat="43.05104250948667" lon="10.608043925168786"><ele>113.0</ele><time>2026-05-03T10:30:16.964Z</time></trkpt><trkpt lat="43.05093883855914" lon="10.608038003509618"><ele>113.0</ele><time>2026-05-03T10:30:17.964Z</time></trkpt><trkpt lat="43.0508258400047" lon="10.608014571338934"><ele>113.0</ele><time>2026-05-03T10:30:18.964Z</time></trkpt><trkpt lat="43.050702309622054" lon="10.607974644388046"><ele>113.0</ele><time>2026-05-03T10:30:19.964Z</time></trkpt><trkpt lat="43.05057318346127" lon="10.607929240327477"><ele>115.2</ele><time>2026-05-03T10:30:20.964Z</time></trkpt><trkpt lat="43.05045322607317" lon="10.60788815798048"><ele>117.4</ele><time>2026-05-03T10:30:21.964Z</time></trkpt><trkpt lat="43.050365932463215" lon="10.607850974657453"><ele>119.60000000000001</ele><time>2026-05-03T10:30:22.964Z</time></trkpt><trkpt lat="43.05028718543111" lon="10.607811656481083"><ele>121.80000000000001</ele><time>2026-05-03T10:30:23.964Z</time></trkpt><trkpt lat="43.05023566563441" lon="10.60765369102515"><ele>124.0</ele><time>2026-05-03T10:30:25.964Z</time></trkpt><trkpt lat="43.05024676994751" lon="10.607530455225014"><ele>124.16666666666667</ele><time>2026-05-03T10:30:26.964Z</time></trkpt><trkpt lat="43.050250240265086" lon="10.60740998442347"><ele>124.33333333333334</ele><time>2026-05-03T10:30:27.964Z</time></trkpt><trkpt lat="43.05026166602102" lon="10.607307253880613"><ele>124.5</ele><time>2026-05-03T10:30:28.964Z</time></trkpt><trkpt lat="43.050282387936846" lon="10.607223980185175"><ele>124.66666666666666</ele><time>2026-05-03T10:30:29.964Z</time></trkpt><trkpt lat="43.050325436666334" lon="10.607083025185402"><ele>124.83333333333333</ele><time>2026-05-03T10:30:31.964Z</time></trkpt><trkpt lat="43.05030620264375" lon="10.606951164321687"><ele>125.0</ele><time>2026-05-03T10:30:33.964Z</time></trkpt><trkpt lat="43.05024236605644" lon="10.606860707787376"><ele>124.99999999999999</ele><time>2026-05-03T10:30:35.965Z</time></trkpt><trkpt lat="43.05015883705079" lon="10.606811792448635"><ele>125.0</ele><time>2026-05-03T10:30:37.965Z</time></trkpt><trkpt lat="43.05007991914901" lon="10.606721884921622"><ele>125.0</ele><time>2026-05-03T10:30:39.965Z</time></trkpt><trkpt lat="43.050047813867714" lon="10.606643400322131"><ele>125.0</ele><time>2026-05-03T10:30:40.965Z</time></trkpt><trkpt lat="43.05001315230442" lon="10.606558879760868"><ele>124.99999999999999</ele><time>2026-05-03T10:30:41.965Z</time></trkpt><trkpt lat="43.04996560049821" lon="10.606467590792533"><ele>125.0</ele><time>2026-05-03T10:30:42.965Z</time></trkpt><trkpt lat="43.04992659697972" lon="10.606389293451434"><ele>124.49999999999999</ele><time>2026-05-03T10:30:43.965Z</time></trkpt><trkpt lat="43.0498970014899" lon="10.606291993464907"><ele>124.0</ele><time>2026-05-03T10:30:44.965Z</time></trkpt><trkpt lat="43.049878859493184" lon="10.60619566241848"><ele>123.5</ele><time>2026-05-03T10:30:45.965Z</time></trkpt><trkpt lat="43.049838765787705" lon="10.606095177743603"><ele>123.0</ele><time>2026-05-03T10:30:46.965Z</time></trkpt><trkpt lat="43.04980387592921" lon="10.60599194440581"><ele>122.49999999999999</ele><time>2026-05-03T10:30:47.965Z</time></trkpt><trkpt lat="43.04976443997455" lon="10.605891263402453"><ele>122.0</ele><time>2026-05-03T10:30:48.965Z</time></trkpt><trkpt lat="43.04973059299724" lon="10.605810629625049"><ele>122.0</ele><time>2026-05-03T10:30:49.965Z</time></trkpt><trkpt lat="43.049701364516764" lon="10.605714890779533"><ele>121.99999999999999</ele><time>2026-05-03T10:30:50.965Z</time></trkpt><trkpt lat="43.049640825459406" lon="10.605570549195157"><ele>121.99999999999999</ele><time>2026-05-03T10:30:51.965Z</time></trkpt><trkpt lat="43.049579659262555" lon="10.60544145572385"><ele>122.0</ele><time>2026-05-03T10:30:52.965Z</time></trkpt><trkpt lat="43.04952631947339" lon="10.60528794414675"><ele>122.0</ele><time>2026-05-03T10:30:53.965Z</time></trkpt><trkpt lat="43.04947717571958" lon="10.605135669457342"><ele>119.75</ele><time>2026-05-03T10:30:54.965Z</time></trkpt><trkpt lat="43.049424696921655" lon="10.604977822463068"><ele>117.5</ele><time>2026-05-03T10:30:55.965Z</time></trkpt><trkpt lat="43.049377980202976" lon="10.60481786827555"><ele>115.25</ele><time>2026-05-03T10:30:56.965Z</time></trkpt><trkpt lat="43.049338419810994" lon="10.604660898626076"><ele>113.0</ele><time>2026-05-03T10:30:57.965Z</time></trkpt><trkpt lat="43.04930899577002" lon="10.604510059361157"><ele>113.2</ele><time>2026-05-03T10:30:58.965Z</time></trkpt><trkpt lat="43.04929648349317" lon="10.604376485414425"><ele>113.4</ele><time>2026-05-03T10:30:59.965Z</time></trkpt><trkpt lat="43.04929794886288" lon="10.604246077116526"><ele>113.60000000000001</ele><time>2026-05-03T10:31:00.965Z</time></trkpt><trkpt lat="43.049316820316285" lon="10.604111996392309"><ele>113.80000000000001</ele><time>2026-05-03T10:31:01.965Z</time></trkpt><trkpt lat="43.049335176710485" lon="10.60397765075405"><ele>114.0</ele><time>2026-05-03T10:31:02.965Z</time></trkpt><trkpt lat="43.04934399304834" lon="10.603848527057645"><ele>114.0</ele><time>2026-05-03T10:31:03.965Z</time></trkpt><trkpt lat="43.04934117483804" lon="10.603728407338828"><ele>114.0</ele><time>2026-05-03T10:31:04.965Z</time></trkpt><trkpt lat="43.04933015268385" lon="10.603624245054476"><ele>114.0</ele><time>2026-05-03T10:31:05.965Z</time></trkpt><trkpt lat="43.04930086039885" lon="10.603526685692936"><ele>114.0</ele><time>2026-05-03T10:31:06.965Z</time></trkpt><trkpt lat="43.049252540559934" lon="10.60342014541025"><ele>114.0</ele><time>2026-05-03T10:31:07.965Z</time></trkpt><trkpt lat="43.04920054030445" lon="10.603302043924025"><ele>114.0</ele><time>2026-05-03T10:31:08.965Z</time></trkpt><trkpt lat="43.0491509868984" lon="10.603192159049971"><ele>115.5</ele><time>2026-05-03T10:31:09.965Z</time></trkpt><trkpt lat="43.049110760407395" lon="10.603095771664545"><ele>117.0</ele><time>2026-05-03T10:31:10.965Z</time></trkpt><trkpt lat="43.04905917120613" lon="10.603016953050478"><ele>118.5</ele><time>2026-05-03T10:31:11.965Z</time></trkpt><trkpt lat="43.04901298062332" lon="10.60293731842554"><ele>120.0</ele><time>2026-05-03T10:31:12.965Z</time></trkpt><trkpt lat="43.048955098948305" lon="10.602843571211142"><ele>121.5</ele><time>2026-05-03T10:31:13.965Z</time></trkpt><trkpt lat="43.04889718512036" lon="10.602747965201367"><ele>123.0</ele><time>2026-05-03T10:31:14.965Z</time></trkpt><trkpt lat="43.04883116981425" lon="10.60266429007223"><ele>123.0</ele><time>2026-05-03T10:31:15.965Z</time></trkpt><trkpt lat="43.04875851505819" lon="10.602595071654546"><ele>123.0</ele><time>2026-05-03T10:31:16.965Z</time></trkpt><trkpt lat="43.04868778530672" lon="10.602535727898367"><ele>123.0</ele><time>2026-05-03T10:31:17.965Z</time></trkpt><trkpt lat="43.04861574023856" lon="10.602497373253131"><ele>123.0</ele><time>2026-05-03T10:31:18.965Z</time></trkpt><trkpt lat="43.0485399740733" lon="10.60246340678708"><ele>123.0</ele><time>2026-05-03T10:31:19.965Z</time></trkpt><trkpt lat="43.048472493319" lon="10.602432725680478"><ele>123.0</ele><time>2026-05-03T10:31:20.965Z</time></trkpt><trkpt lat="43.04839320483374" lon="10.602400551270465"><ele>123.0</ele><time>2026-05-03T10:31:21.965Z</time></trkpt><trkpt lat="43.048306058194534" lon="10.602340226363626"><ele>123.00000000000001</ele><time>2026-05-03T10:31:22.965Z</time></trkpt><trkpt lat="43.04822242023994" lon="10.602287280060585"><ele>123.00000000000001</ele><time>2026-05-03T10:31:23.965Z</time></trkpt><trkpt lat="43.0481468316506" lon="10.602210173674099"><ele>123.0</ele><time>2026-05-03T10:31:24.965Z</time></trkpt><trkpt lat="43.04805404720955" lon="10.602128696768656"><ele>123.0</ele><time>2026-05-03T10:31:25.965Z</time></trkpt><trkpt lat="43.047979397155686" lon="10.602046018605613"><ele>124.14285714285717</ele><time>2026-05-03T10:31:26.965Z</time></trkpt><trkpt lat="43.04793384940349" lon="10.601984836827246"><ele>125.28571428571429</ele><time>2026-05-03T10:31:27.965Z</time></trkpt><trkpt lat="43.04788571929357" lon="10.601928205964622"><ele>126.42857142857144</ele><time>2026-05-03T10:31:28.965Z</time></trkpt><trkpt lat="43.04783419612486" lon="10.601874451699134"><ele>127.57142857142858</ele><time>2026-05-03T10:31:29.965Z</time></trkpt><trkpt lat="43.04778631060637" lon="10.601813752400744"><ele>128.71428571428572</ele><time>2026-05-03T10:31:30.965Z</time></trkpt><trkpt lat="43.04775213051549" lon="10.601738903189313"><ele>129.85714285714286</ele><time>2026-05-03T10:31:31.965Z</time></trkpt><trkpt lat="43.047712659659666" lon="10.60165066754257"><ele>131.0</ele><time>2026-05-03T10:31:32.965Z</time></trkpt><trkpt lat="43.04765551342748" lon="10.601564648674694"><ele>131.0</ele><time>2026-05-03T10:31:33.965Z</time></trkpt><trkpt lat="43.047597125251414" lon="10.60152970947828"><ele>131.0</ele><time>2026-05-03T10:31:34.965Z</time></trkpt><trkpt lat="43.04753564013672" lon="10.60151069735968"><ele>131.0</ele><time>2026-05-03T10:31:35.965Z</time></trkpt><trkpt lat="43.047449794347024" lon="10.601490510459973"><ele>131.0</ele><time>2026-05-03T10:31:36.965Z</time></trkpt><trkpt lat="43.04736492174502" lon="10.601454274390521"><ele>131.0</ele><time>2026-05-03T10:31:37.965Z</time></trkpt><trkpt lat="43.0472854643379" lon="10.60141172754801"><ele>131.0</ele><time>2026-05-03T10:31:38.965Z</time></trkpt><trkpt lat="43.04722035472479" lon="10.601356382405156"><ele>131.0</ele><time>2026-05-03T10:31:39.965Z</time></trkpt><trkpt lat="43.04717170799492" lon="10.60129653437248"><ele>131.0</ele><time>2026-05-03T10:31:40.965Z</time></trkpt><trkpt lat="43.04710102184939" lon="10.601210150788928"><ele>131.0</ele><time>2026-05-03T10:31:41.965Z</time></trkpt><trkpt lat="43.04705127596435" lon="10.601129176564957"><ele>131.0</ele><time>2026-05-03T10:31:42.965Z</time></trkpt><trkpt lat="43.04701183785857" lon="10.601045351346418"><ele>131.0</ele><time>2026-05-03T10:31:43.965Z</time></trkpt><trkpt lat="43.046965165136186" lon="10.60094607207839"><ele>131.0</ele><time>2026-05-03T10:31:44.965Z</time></trkpt><trkpt lat="43.046937374073714" lon="10.600840921910287"><ele>131.0</ele><time>2026-05-03T10:31:45.965Z</time></trkpt><trkpt lat="43.04690334640747" lon="10.600742209062467"><ele>131.0</ele><time>2026-05-03T10:31:46.965Z</time></trkpt><trkpt lat="43.04685370037662" lon="10.600661262359942"><ele>131.0</ele><time>2026-05-03T10:31:47.965Z</time></trkpt><trkpt lat="43.04679970633927" lon="10.600596755354562"><ele>131.0</ele><time>2026-05-03T10:31:48.964Z</time></trkpt><trkpt lat="43.04673811772098" lon="10.6005420798477"><ele>131.0</ele><time>2026-05-03T10:31:49.965Z</time></trkpt><trkpt lat="43.04667791339124" lon="10.6005005311121"><ele>131.0</ele><time>2026-05-03T10:31:50.965Z</time></trkpt><trkpt lat="43.04661243885882" lon="10.600465211818058"><ele>131.0</ele><time>2026-05-03T10:31:51.965Z</time></trkpt><trkpt lat="43.046545848891896" lon="10.60043000099779"><ele>129.66666666666666</ele><time>2026-05-03T10:31:52.965Z</time></trkpt><trkpt lat="43.04647555324256" lon="10.600390192862747"><ele>128.33333333333331</ele><time>2026-05-03T10:31:53.965Z</time></trkpt><trkpt lat="43.04638875118959" lon="10.600356952525676"><ele>127.0</ele><time>2026-05-03T10:31:54.964Z</time></trkpt><trkpt lat="43.04628940112321" lon="10.600308276383732"><ele>125.66666666666666</ele><time>2026-05-03T10:31:55.965Z</time></trkpt><trkpt lat="43.046224061237474" lon="10.600263329344362"><ele>124.33333333333333</ele><time>2026-05-03T10:31:56.965Z</time></trkpt><trkpt lat="43.04612515649047" lon="10.600239559130518"><ele>123.0</ele><time>2026-05-03T10:31:58.965Z</time></trkpt><trkpt lat="43.046048818690785" lon="10.600256413210776"><ele>123.0</ele><time>2026-05-03T10:31:59.965Z</time></trkpt><trkpt lat="43.045957636833364" lon="10.600338731108044"><ele>123.00000000000001</ele><time>2026-05-03T10:32:01.965Z</time></trkpt><trkpt lat="43.0459101052293" lon="10.600490304291366"><ele>123.00000000000001</ele><time>2026-05-03T10:32:03.965Z</time></trkpt><trkpt lat="43.045881532961175" lon="10.60058624289374"><ele>123.0</ele><time>2026-05-03T10:32:04.965Z</time></trkpt><trkpt lat="43.04583303294029" lon="10.600673977315333"><ele>123.0</ele><time>2026-05-03T10:32:05.965Z</time></trkpt><trkpt lat="43.04574821409482" lon="10.60075868420223"><ele>124.0</ele><time>2026-05-03T10:32:07.965Z</time></trkpt><trkpt lat="43.04569713124979" lon="10.600649055212799"><ele>125.0</ele><time>2026-05-03T10:32:10.965Z</time></trkpt><trkpt lat="43.04566359476917" lon="10.600467860964143"><ele>126.0</ele><time>2026-05-03T10:32:12.965Z</time></trkpt><trkpt lat="43.04564386691735" lon="10.600377498785926"><ele>127.0</ele><time>2026-05-03T10:32:13.965Z</time></trkpt><trkpt lat="43.0456035398594" lon="10.600285755670434"><ele>128.0</ele><time>2026-05-03T10:32:14.965Z</time></trkpt><trkpt lat="43.04556905507249" lon="10.60020790680631"><ele>129.0</ele><time>2026-05-03T10:32:15.965Z</time></trkpt><trkpt lat="43.04552285766634" lon="10.600087350562688"><ele>125.5</ele><time>2026-05-03T10:32:17.965Z</time></trkpt><trkpt lat="43.04548548217099" lon="10.600016599672198"><ele>122.0</ele><time>2026-05-03T10:32:18.965Z</time></trkpt><trkpt lat="43.04543406763687" lon="10.599963097806187"><ele>118.5</ele><time>2026-05-03T10:32:19.965Z</time></trkpt><trkpt lat="43.04534751253197" lon="10.59992214827689"><ele>115.0</ele><time>2026-05-03T10:32:21.965Z</time></trkpt><trkpt lat="43.04523956648183" lon="10.599890074404609"><ele>111.5</ele><time>2026-05-03T10:32:23.965Z</time></trkpt><trkpt lat="43.04517545631417" lon="10.599895910083982"><ele>108.0</ele><time>2026-05-03T10:32:24.965Z</time></trkpt><trkpt lat="43.04509599641694" lon="10.599903906090637"><ele>108.0</ele><time>2026-05-03T10:32:25.965Z</time></trkpt><trkpt lat="43.045018841998214" lon="10.599904465955136"><ele>108.00000000000001</ele><time>2026-05-03T10:32:26.965Z</time></trkpt><trkpt lat="43.044936471135905" lon="10.59988424064448"><ele>108.00000000000001</ele><time>2026-05-03T10:32:27.965Z</time></trkpt><trkpt lat="43.0448327513788" lon="10.599845222231965"><ele>108.0</ele><time>2026-05-03T10:32:29.965Z</time></trkpt><trkpt lat="43.04472577458" lon="10.599747731057464"><ele>108.0</ele><time>2026-05-03T10:32:31.965Z</time></trkpt><trkpt lat="43.04463337415687" lon="10.599710833118001"><ele>107.2</ele><time>2026-05-03T10:32:32.965Z</time></trkpt><trkpt lat="43.04456771126289" lon="10.599696096098992"><ele>106.4</ele><time>2026-05-03T10:32:33.965Z</time></trkpt><trkpt lat="43.044451993116134" lon="10.599667737599752"><ele>105.60000000000001</ele><time>2026-05-03T10:32:35.965Z</time></trkpt><trkpt lat="43.044341994691365" lon="10.599690877934313"><ele>104.80000000000001</ele><time>2026-05-03T10:32:37.965Z</time></trkpt><trkpt lat="43.04422292549713" lon="10.599656279685718"><ele>104.0</ele><time>2026-05-03T10:32:39.965Z</time></trkpt><trkpt lat="43.04414749727596" lon="10.599612107326744"><ele>105.16666666666666</ele><time>2026-05-03T10:32:40.965Z</time></trkpt><trkpt lat="43.04407523433118" lon="10.599589952347943"><ele>106.33333333333333</ele><time>2026-05-03T10:32:41.965Z</time></trkpt><trkpt lat="43.04399168298184" lon="10.599523512115123"><ele>107.5</ele><time>2026-05-03T10:32:43.965Z</time></trkpt><trkpt lat="43.043945412644845" lon="10.599431254598636"><ele>108.66666666666666</ele><time>2026-05-03T10:32:44.965Z</time></trkpt><trkpt lat="43.043921908754385" lon="10.599322170159327"><ele>109.83333333333333</ele><time>2026-05-03T10:32:45.965Z</time></trkpt><trkpt lat="43.04388895446227" lon="10.599223844363769"><ele>111.0</ele><time>2026-05-03T10:32:46.965Z</time></trkpt><trkpt lat="43.043835215156236" lon="10.599160822190445"><ele>107.5</ele><time>2026-05-03T10:32:47.965Z</time></trkpt><trkpt lat="43.043760552032495" lon="10.599121056159852"><ele>104.0</ele><time>2026-05-03T10:32:48.965Z</time></trkpt><trkpt lat="43.04369617052892" lon="10.599060505901395"><ele>100.5</ele><time>2026-05-03T10:32:49.965Z</time></trkpt><trkpt lat="43.04366171932654" lon="10.59896433445199"><ele>97.0</ele><time>2026-05-03T10:32:50.965Z</time></trkpt><trkpt lat="43.04360030087938" lon="10.59882498577452"><ele>93.5</ele><time>2026-05-03T10:32:52.965Z</time></trkpt><trkpt lat="43.043565269946036" lon="10.598732438213512"><ele>90.0</ele><time>2026-05-03T10:32:53.965Z</time></trkpt><trkpt lat="43.04351322580286" lon="10.598654832173802"><ele>87.4</ele><time>2026-05-03T10:32:54.965Z</time></trkpt><trkpt lat="43.04344740195411" lon="10.598546629538328"><ele>84.8</ele><time>2026-05-03T10:32:56.965Z</time></trkpt><trkpt lat="43.043353156152456" lon="10.598507455374339"><ele>82.2</ele><time>2026-05-03T10:32:58.965Z</time></trkpt><trkpt lat="43.04321371971619" lon="10.59845994493118"><ele>79.6</ele><time>2026-05-03T10:33:00.965Z</time></trkpt><trkpt lat="43.04313787944776" lon="10.598408915717464"><ele>77.0</ele><time>2026-05-03T10:33:01.965Z</time></trkpt><trkpt lat="43.04307854540222" lon="10.598359100888207"><ele>75.83333333333334</ele><time>2026-05-03T10:33:02.965Z</time></trkpt><trkpt lat="43.04303132522251" lon="10.598246976929264"><ele>74.66666666666667</ele><time>2026-05-03T10:33:04.965Z</time></trkpt><trkpt lat="43.04299507729871" lon="10.598165176226038"><ele>73.5</ele><time>2026-05-03T10:33:05.965Z</time></trkpt><trkpt lat="43.04295462363373" lon="10.598097799833397"><ele>72.33333333333333</ele><time>2026-05-03T10:33:06.965Z</time></trkpt><trkpt lat="43.0428425485283" lon="10.598052175016356"><ele>71.16666666666666</ele><time>2026-05-03T10:33:08.965Z</time></trkpt><trkpt lat="43.04277317897604" lon="10.598063642357987"><ele>70.0</ele><time>2026-05-03T10:33:09.965Z</time></trkpt><trkpt lat="43.042701746542136" lon="10.598066238173363"><ele>70.0</ele><time>2026-05-03T10:33:10.966Z</time></trkpt><trkpt lat="43.04256063180757" lon="10.598043739737053"><ele>70.0</ele><time>2026-05-03T10:33:12.966Z</time></trkpt><trkpt lat="43.042476174606634" lon="10.598035376629523"><ele>70.0</ele><time>2026-05-03T10:33:13.966Z</time></trkpt><trkpt lat="43.042399343419284" lon="10.598032141942072"><ele>70.0</ele><time>2026-05-03T10:33:14.966Z</time></trkpt><trkpt lat="43.04230772990038" lon="10.598026910076776"><ele>70.0</ele><time>2026-05-03T10:33:15.966Z</time></trkpt><trkpt lat="43.04221694279069" lon="10.598018426710697"><ele>69.8</ele><time>2026-05-03T10:33:16.966Z</time></trkpt><trkpt lat="43.04210817519585" lon="10.597993112809071"><ele>69.6</ele><time>2026-05-03T10:33:17.966Z</time></trkpt><trkpt lat="43.041988347017195" lon="10.597969286446908"><ele>69.4</ele><time>2026-05-03T10:33:18.966Z</time></trkpt><trkpt lat="43.041875838486554" lon="10.597952899486224"><ele>69.2</ele><time>2026-05-03T10:33:19.966Z</time></trkpt><trkpt lat="43.04178432205299" lon="10.597962661641425"><ele>69.0</ele><time>2026-05-03T10:33:20.966Z</time></trkpt><trkpt lat="43.04170631861737" lon="10.597979256982063"><ele>70.16666666666667</ele><time>2026-05-03T10:33:21.966Z</time></trkpt><trkpt lat="43.041620634428114" lon="10.59797429208187"><ele>71.33333333333333</ele><time>2026-05-03T10:33:23.966Z</time></trkpt><trkpt lat="43.0415736545573" lon="10.597906776795881"><ele>72.5</ele><time>2026-05-03T10:33:24.966Z</time></trkpt><trkpt lat="43.04151887862761" lon="10.597814899554942"><ele>73.66666666666666</ele><time>2026-05-03T10:33:25.966Z</time></trkpt><trkpt lat="43.04147054539978" lon="10.59770360820125"><ele>74.83333333333333</ele><time>2026-05-03T10:33:26.966Z</time></trkpt><trkpt lat="43.04140454028058" lon="10.597606724971994"><ele>76.0</ele><time>2026-05-03T10:33:27.966Z</time></trkpt><trkpt lat="43.04132682867343" lon="10.597500229988956"><ele>71.39999999999999</ele><time>2026-05-03T10:33:28.966Z</time></trkpt><trkpt lat="43.041245014723565" lon="10.597398869823113"><ele>66.8</ele><time>2026-05-03T10:33:29.966Z</time></trkpt><trkpt lat="43.041176515070646" lon="10.597304306865336"><ele>62.199999999999996</ele><time>2026-05-03T10:33:30.966Z</time></trkpt><trkpt lat="43.04109785974351" lon="10.597234931497747"><ele>57.599999999999994</ele><time>2026-05-03T10:33:31.966Z</time></trkpt><trkpt lat="43.04102851861264" lon="10.597167872328072"><ele>53.0</ele><time>2026-05-03T10:33:32.966Z</time></trkpt><trkpt lat="43.04097633536755" lon="10.5970958059058"><ele>50.8</ele><time>2026-05-03T10:33:33.966Z</time></trkpt><trkpt lat="43.04094584280398" lon="10.596963382229012"><ele>48.599999999999994</ele><time>2026-05-03T10:33:35.966Z</time></trkpt><trkpt lat="43.040933800024426" lon="10.596839846648292"><ele>46.400000000000006</ele><time>2026-05-03T10:33:37.966Z</time></trkpt><trkpt lat="43.04094033260799" lon="10.596743700058509"><ele>44.2</ele><time>2026-05-03T10:33:39.966Z</time></trkpt><trkpt lat="43.04093396533869" lon="10.596594019658315"><ele>42.0</ele><time>2026-05-03T10:33:41.966Z</time></trkpt><trkpt lat="43.040936719259165" lon="10.596480660050739"><ele>42.0</ele><time>2026-05-03T10:33:43.966Z</time></trkpt><trkpt lat="43.04093838499696" lon="10.596382143827418"><ele>42.0</ele><time>2026-05-03T10:33:45.966Z</time></trkpt><trkpt lat="43.041069461378264" lon="10.596334030648359"><ele>42.0</ele><time>2026-05-03T10:33:47.966Z</time></trkpt><trkpt lat="43.04117476123186" lon="10.59632633837768"><ele>42.0</ele><time>2026-05-03T10:33:48.966Z</time></trkpt><trkpt lat="43.041257919119296" lon="10.596331339372643"><ele>42.0</ele><time>2026-05-03T10:33:49.966Z</time></trkpt><trkpt lat="43.04135460359962" lon="10.596417473937748"><ele>42.0</ele><time>2026-05-03T10:33:51.964Z</time></trkpt><trkpt lat="43.04139338620426" lon="10.596495230937792"><ele>42.0</ele><time>2026-05-03T10:33:52.965Z</time></trkpt><trkpt lat="43.04147443818565" lon="10.596579419888299"><ele>42.0</ele><time>2026-05-03T10:33:54.964Z</time></trkpt><trkpt lat="43.041538720191255" lon="10.596603663848637"><ele>42.0</ele><time>2026-05-03T10:33:57.965Z</time></trkpt><trkpt lat="43.0416110057975" lon="10.596675617656178"><ele>42.0</ele><time>2026-05-03T10:34:00.965Z</time></trkpt><trkpt lat="43.04163615924243" lon="10.596777274480994"><ele>42.0</ele><time>2026-05-03T10:34:02.965Z</time></trkpt><trkpt lat="43.04170974610495" lon="10.596768379293707"><ele>41.2</ele><time>2026-05-03T10:34:06.965Z</time></trkpt><trkpt lat="43.041772693612586" lon="10.596723399730768"><ele>40.400000000000006</ele><time>2026-05-03T10:34:10.965Z</time></trkpt><trkpt lat="43.04187668883336" lon="10.596720460183823"><ele>39.599999999999994</ele><time>2026-05-03T10:34:14.965Z</time></trkpt><trkpt lat="43.04195119769017" lon="10.596797138697509"><ele>38.8</ele><time>2026-05-03T10:34:16.965Z</time></trkpt><trkpt lat="43.04204236542965" lon="10.596878991907467"><ele>38.0</ele><time>2026-05-03T10:34:18.965Z</time></trkpt><trkpt lat="43.042123458516116" lon="10.596942479757542"><ele>38.0</ele><time>2026-05-03T10:34:20.965Z</time></trkpt><trkpt lat="43.04218051973687" lon="10.59701451102247"><ele>38.0</ele><time>2026-05-03T10:34:22.965Z</time></trkpt><trkpt lat="43.04220440337097" lon="10.596925252456495"><ele>38.0</ele><time>2026-05-03T10:34:25.965Z</time></trkpt><trkpt lat="43.04221212884403" lon="10.596819872711325"><ele>38.0</ele><time>2026-05-03T10:34:27.965Z</time></trkpt><trkpt lat="43.04220715517858" lon="10.596713939428836"><ele>38.0</ele><time>2026-05-03T10:34:29.965Z</time></trkpt><trkpt lat="43.04225951578815" lon="10.596631876284485"><ele>38.0</ele><time>2026-05-03T10:34:31.965Z</time></trkpt><trkpt lat="43.04231270891655" lon="10.596569025140063"><ele>38.0</ele><time>2026-05-03T10:34:33.965Z</time></trkpt><trkpt lat="43.04237067776384" lon="10.596506368366448"><ele>38.0</ele><time>2026-05-03T10:34:35.965Z</time></trkpt><trkpt lat="43.042440966018404" lon="10.596433383172906"><ele>38.0</ele><time>2026-05-03T10:34:37.965Z</time></trkpt><trkpt lat="43.042536599128496" lon="10.596369134351137"><ele>38.0</ele><time>2026-05-03T10:34:39.965Z</time></trkpt><trkpt lat="43.04258967181089" lon="10.596248585050107"><ele>38.0</ele><time>2026-05-03T10:34:41.965Z</time></trkpt><trkpt lat="43.04263180143961" lon="10.596109446426693"><ele>36.666666666666664</ele><time>2026-05-03T10:34:42.965Z</time></trkpt><trkpt lat="43.04268905205732" lon="10.595887376410891"><ele>35.333333333333336</ele><time>2026-05-03T10:34:43.965Z</time></trkpt><trkpt lat="43.042760104405744" lon="10.595632912787776"><ele>34.0</ele><time>2026-05-03T10:34:44.965Z</time></trkpt><trkpt lat="43.04283112383581" lon="10.595422438737101"><ele>34.16666666666667</ele><time>2026-05-03T10:34:45.965Z</time></trkpt><trkpt lat="43.04286955012392" lon="10.595296546530962"><ele>34.333333333333336</ele><time>2026-05-03T10:34:46.965Z</time></trkpt><trkpt lat="43.042880647499025" lon="10.595179526752306"><ele>34.5</ele><time>2026-05-03T10:34:47.965Z</time></trkpt><trkpt lat="43.04286596120008" lon="10.595074228047134"><ele>34.666666666666664</ele><time>2026-05-03T10:34:48.965Z</time></trkpt><trkpt lat="43.042833048685594" lon="10.594988946523088"><ele>34.83333333333333</ele><time>2026-05-03T10:34:49.965Z</time></trkpt><trkpt lat="43.04275698059036" lon="10.594891976570853"><ele>35.0</ele><time>2026-05-03T10:34:50.965Z</time></trkpt><trkpt lat="43.04263278482494" lon="10.594793461094277"><ele>35.0</ele><time>2026-05-03T10:34:51.965Z</time></trkpt><trkpt lat="43.04247508199582" lon="10.59470074218372"><ele>35.0</ele><time>2026-05-03T10:34:52.966Z</time></trkpt><trkpt lat="43.04232487788488" lon="10.594597532442176"><ele>35.0</ele><time>2026-05-03T10:34:53.966Z</time></trkpt><trkpt lat="43.042206729642245" lon="10.594537130214363"><ele>35.2</ele><time>2026-05-03T10:34:54.966Z</time></trkpt><trkpt lat="43.04211044482031" lon="10.594528105604672"><ele>35.4</ele><time>2026-05-03T10:34:55.966Z</time></trkpt><trkpt lat="43.042027432014784" lon="10.59458287714528"><ele>35.6</ele><time>2026-05-03T10:34:56.966Z</time></trkpt><trkpt lat="43.041976332364406" lon="10.594664858667715"><ele>35.8</ele><time>2026-05-03T10:34:57.966Z</time></trkpt><trkpt lat="43.041931321495454" lon="10.59480223335151"><ele>36.0</ele><time>2026-05-03T10:34:58.966Z</time></trkpt><trkpt lat="43.041884793421026" lon="10.59497267801948"><ele>36.0</ele><time>2026-05-03T10:34:59.966Z</time></trkpt><trkpt lat="43.04181714221351" lon="10.595155416557931"><ele>36.0</ele><time>2026-05-03T10:35:00.966Z</time></trkpt><trkpt lat="43.04176812471209" lon="10.595278523540124"><ele>36.0</ele><time>2026-05-03T10:35:01.966Z</time></trkpt><trkpt lat="43.041688764344585" lon="10.595346373655078"><ele>36.0</ele><time>2026-05-03T10:35:02.966Z</time></trkpt><trkpt lat="43.04160765407454" lon="10.59542775040217"><ele>36.0</ele><time>2026-05-03T10:35:03.966Z</time></trkpt><trkpt lat="43.041570839945315" lon="10.595520300058677"><ele>37.2</ele><time>2026-05-03T10:35:04.966Z</time></trkpt><trkpt lat="43.04157249601388" lon="10.595651290566373"><ele>38.400000000000006</ele><time>2026-05-03T10:35:05.966Z</time></trkpt><trkpt lat="43.04158121076962" lon="10.595808832120719"><ele>39.6</ele><time>2026-05-03T10:35:06.966Z</time></trkpt><trkpt lat="43.04157669973981" lon="10.59594260454117"><ele>40.800000000000004</ele><time>2026-05-03T10:35:07.966Z</time></trkpt><trkpt lat="43.04155937173807" lon="10.596049413861277"><ele>42.0</ele><time>2026-05-03T10:35:08.966Z</time></trkpt><trkpt lat="43.04153239706478" lon="10.5961773986619"><ele>42.0</ele><time>2026-05-03T10:35:09.966Z</time></trkpt><trkpt lat="43.04151865908577" lon="10.596294075494292"><ele>42.0</ele><time>2026-05-03T10:35:10.966Z</time></trkpt><trkpt lat="43.041424316334826" lon="10.596345579384879"><ele>42.0</ele><time>2026-05-03T10:35:12.966Z</time></trkpt><trkpt lat="43.041353091085774" lon="10.596346532793444"><ele>42.0</ele><time>2026-05-03T10:35:13.966Z</time></trkpt><trkpt lat="43.0412893032602" lon="10.596302981703108"><ele>42.0</ele><time>2026-05-03T10:35:14.966Z</time></trkpt><trkpt lat="43.0412346458096" lon="10.596216307262205"><ele>42.0</ele><time>2026-05-03T10:35:15.966Z</time></trkpt><trkpt lat="43.04117538375736" lon="10.596081497391157"><ele>42.5</ele><time>2026-05-03T10:35:16.966Z</time></trkpt><trkpt lat="43.04108687076611" lon="10.595915447666327"><ele>43.0</ele><time>2026-05-03T10:35:17.966Z</time></trkpt><trkpt lat="43.04100924664446" lon="10.595753285973277"><ele>43.5</ele><time>2026-05-03T10:35:18.966Z</time></trkpt><trkpt lat="43.04095712318336" lon="10.595617019195174"><ele>44.0</ele><time>2026-05-03T10:35:19.966Z</time></trkpt><trkpt lat="43.04089163733666" lon="10.59554049852054"><ele>44.400000000000006</ele><time>2026-05-03T10:35:20.966Z</time></trkpt><trkpt lat="43.04078025980327" lon="10.59548865165914"><ele>44.8</ele><time>2026-05-03T10:35:21.966Z</time></trkpt><trkpt lat="43.04066922972799" lon="10.595416135636775"><ele>45.2</ele><time>2026-05-03T10:35:22.966Z</time></trkpt><trkpt lat="43.04060433271953" lon="10.595336420263278"><ele>45.599999999999994</ele><time>2026-05-03T10:35:23.966Z</time></trkpt><trkpt lat="43.04055077030741" lon="10.595271100751722"><ele>46.0</ele><time>2026-05-03T10:35:24.966Z</time></trkpt><trkpt lat="43.040477418162865" lon="10.595300884448223"><ele>44.75</ele><time>2026-05-03T10:35:28.966Z</time></trkpt><trkpt lat="43.04045094666607" lon="10.595393013640509"><ele>43.5</ele><time>2026-05-03T10:35:29.966Z</time></trkpt><trkpt lat="43.04037954469812" lon="10.59556393798301"><ele>42.25</ele><time>2026-05-03T10:35:30.966Z</time></trkpt><trkpt lat="43.040288866113805" lon="10.595750036937831"><ele>41.0</ele><time>2026-05-03T10:35:31.966Z</time></trkpt><trkpt lat="43.04022142314833" lon="10.595875606712124"><ele>41.0</ele><time>2026-05-03T10:35:32.966Z</time></trkpt><trkpt lat="43.0401347224103" lon="10.595894975542668"><ele>41.0</ele><time>2026-05-03T10:35:35.966Z</time></trkpt><trkpt lat="43.04007273706263" lon="10.595837709597285"><ele>41.0</ele><time>2026-05-03T10:35:36.966Z</time></trkpt><trkpt lat="43.03998770130946" lon="10.595775352094458"><ele>41.0</ele><time>2026-05-03T10:35:37.966Z</time></trkpt><trkpt lat="43.03985247786791" lon="10.595685761941013"><ele>41.0</ele><time>2026-05-03T10:35:38.966Z</time></trkpt><trkpt lat="43.039687084444836" lon="10.59557226860433"><ele>39.0</ele><time>2026-05-03T10:35:39.966Z</time></trkpt><trkpt lat="43.03949537536685" lon="10.595447062817328"><ele>37.0</ele><time>2026-05-03T10:35:40.966Z</time></trkpt><trkpt lat="43.03932211666" lon="10.595321414066445"><ele>35.0</ele><time>2026-05-03T10:35:41.966Z</time></trkpt><trkpt lat="43.03917017890145" lon="10.59522820047732"><ele>33.0</ele><time>2026-05-03T10:35:42.966Z</time></trkpt><trkpt lat="43.03905560153204" lon="10.59518242588128"><ele>31.0</ele><time>2026-05-03T10:35:43.966Z</time></trkpt><trkpt lat="43.03896170361804" lon="10.595184272300472"><ele>29.0</ele><time>2026-05-03T10:35:44.966Z</time></trkpt><trkpt lat="43.038890528453805" lon="10.59512920885967"><ele>27.0</ele><time>2026-05-03T10:35:46.966Z</time></trkpt><trkpt lat="43.038849737165734" lon="10.595012357772601"><ele>25.0</ele><time>2026-05-03T10:35:48.966Z</time></trkpt><trkpt lat="43.038796604597174" lon="10.594965741623241"><ele>25.0</ele><time>2026-05-03T10:35:49.966Z</time></trkpt><trkpt lat="43.03873236148624" lon="10.59492541287764"><ele>25.0</ele><time>2026-05-03T10:35:50.966Z</time></trkpt><trkpt lat="43.03864145725347" lon="10.594840467313952"><ele>25.0</ele><time>2026-05-03T10:35:53.966Z</time></trkpt><trkpt lat="43.03856302038055" lon="10.594833063694246"><ele>25.0</ele><time>2026-05-03T10:35:54.966Z</time></trkpt><trkpt lat="43.03847213318362" lon="10.594850697395621"><ele>25.0</ele><time>2026-05-03T10:35:55.966Z</time></trkpt><trkpt lat="43.03836108617598" lon="10.594899020228857"><ele>23.666666666666668</ele><time>2026-05-03T10:35:56.966Z</time></trkpt><trkpt lat="43.038229530346335" lon="10.594984724142245"><ele>22.333333333333336</ele><time>2026-05-03T10:35:57.965Z</time></trkpt><trkpt lat="43.038085952451794" lon="10.595109717069805"><ele>21.0</ele><time>2026-05-03T10:35:58.965Z</time></trkpt><trkpt lat="43.037928449188044" lon="10.595248493466192"><ele>21.0</ele><time>2026-05-03T10:35:59.965Z</time></trkpt><trkpt lat="43.037697074074835" lon="10.595418205315054"><ele>21.0</ele><time>2026-05-03T10:36:00.965Z</time></trkpt><trkpt lat="43.037441704138075" lon="10.59559331553631"><ele>19.0</ele><time>2026-05-03T10:36:01.965Z</time></trkpt><trkpt lat="43.037212695277425" lon="10.595755038633424"><ele>17.0</ele><time>2026-05-03T10:36:02.965Z</time></trkpt><trkpt lat="43.03702421593143" lon="10.59586790251512"><ele>17.0</ele><time>2026-05-03T10:36:03.965Z</time></trkpt><trkpt lat="43.03687520570292" lon="10.59594718873278"><ele>17.0</ele><time>2026-05-03T10:36:04.966Z</time></trkpt><trkpt lat="43.03677581590252" lon="10.596023974397134"><ele>17.0</ele><time>2026-05-03T10:36:05.966Z</time></trkpt><trkpt lat="43.03669169286444" lon="10.596088317082232"><ele>17.0</ele><time>2026-05-03T10:36:06.965Z</time></trkpt><trkpt lat="43.03662502084089" lon="10.59614851026201"><ele>16.75</ele><time>2026-05-03T10:36:07.965Z</time></trkpt><trkpt lat="43.03658867975084" lon="10.59624419275409"><ele>16.5</ele><time>2026-05-03T10:36:11.965Z</time></trkpt><trkpt lat="43.03655667223961" lon="10.596356819283224"><ele>16.25</ele><time>2026-05-03T10:36:12.965Z</time></trkpt><trkpt lat="43.03653518980117" lon="10.596537789899122"><ele>16.0</ele><time>2026-05-03T10:36:13.965Z</time></trkpt><trkpt lat="43.03646509794044" lon="10.59676632817401"><ele>17.0</ele><time>2026-05-03T10:36:14.965Z</time></trkpt><trkpt lat="43.03634863122388" lon="10.59705505886259"><ele>18.0</ele><time>2026-05-03T10:36:15.965Z</time></trkpt><trkpt lat="43.036215812945" lon="10.59737873075852"><ele>18.0</ele><time>2026-05-03T10:36:16.965Z</time></trkpt><trkpt lat="43.036087581589" lon="10.597712390336754"><ele>18.0</ele><time>2026-05-03T10:36:17.965Z</time></trkpt><trkpt lat="43.035952827490895" lon="10.59804682587119"><ele>18.0</ele><time>2026-05-03T10:36:18.965Z</time></trkpt><trkpt lat="43.03584722375999" lon="10.598337348260264"><ele>18.0</ele><time>2026-05-03T10:36:19.965Z</time></trkpt><trkpt lat="43.035749909615504" lon="10.598594683816083"><ele>18.0</ele><time>2026-05-03T10:36:20.965Z</time></trkpt><trkpt lat="43.035663117695194" lon="10.598832850840518"><ele>18.333333333333332</ele><time>2026-05-03T10:36:21.965Z</time></trkpt><trkpt lat="43.03557814915816" lon="10.599059535523695"><ele>18.666666666666664</ele><time>2026-05-03T10:36:22.965Z</time></trkpt><trkpt lat="43.03549214386022" lon="10.599279795690043"><ele>19.0</ele><time>2026-05-03T10:36:23.965Z</time></trkpt><trkpt lat="43.03540875127619" lon="10.5995007131543"><ele>19.0</ele><time>2026-05-03T10:36:24.965Z</time></trkpt><trkpt lat="43.03533441150985" lon="10.599723164953165"><ele>19.0</ele><time>2026-05-03T10:36:25.965Z</time></trkpt><trkpt lat="43.035259358719706" lon="10.599934933975302"><ele>19.0</ele><time>2026-05-03T10:36:26.965Z</time></trkpt><trkpt lat="43.03518562327967" lon="10.600138864007944"><ele>19.0</ele><time>2026-05-03T10:36:27.965Z</time></trkpt><trkpt lat="43.03512139887395" lon="10.600319465695007"><ele>19.0</ele><time>2026-05-03T10:36:28.965Z</time></trkpt><trkpt lat="43.035072789756164" lon="10.600494570421459"><ele>19.0</ele><time>2026-05-03T10:36:29.965Z</time></trkpt><trkpt lat="43.035039727046986" lon="10.600662994405804"><ele>19.0</ele><time>2026-05-03T10:36:30.965Z</time></trkpt><trkpt lat="43.03500734396619" lon="10.600825438517257"><ele>18.8</ele><time>2026-05-03T10:36:31.965Z</time></trkpt><trkpt lat="43.03497888253468" lon="10.600943890979242"><ele>18.599999999999998</ele><time>2026-05-03T10:36:32.965Z</time></trkpt><trkpt lat="43.034945044321844" lon="10.601046238389824"><ele>18.4</ele><time>2026-05-03T10:36:33.965Z</time></trkpt><trkpt lat="43.034904805303576" lon="10.6011481444046"><ele>18.2</ele><time>2026-05-03T10:36:34.965Z</time></trkpt><trkpt lat="43.03487131131096" lon="10.601275761743855"><ele>18.0</ele><time>2026-05-03T10:36:35.965Z</time></trkpt><trkpt lat="43.03485777868489" lon="10.601473943833591"><ele>18.666666666666668</ele><time>2026-05-03T10:36:36.966Z</time></trkpt><trkpt lat="43.03481541870456" lon="10.601715164019376"><ele>19.333333333333336</ele><time>2026-05-03T10:36:37.966Z</time></trkpt><trkpt lat="43.03475402592876" lon="10.60198510979819"><ele>20.0</ele><time>2026-05-03T10:36:38.966Z</time></trkpt><trkpt lat="43.034693415628055" lon="10.602285057730658"><ele>20.0</ele><time>2026-05-03T10:36:39.966Z</time></trkpt><trkpt lat="43.03462719135175" lon="10.60261566262425"><ele>20.0</ele><time>2026-05-03T10:36:40.966Z</time></trkpt><trkpt lat="43.03457295429955" lon="10.602914959811706"><ele>20.0</ele><time>2026-05-03T10:36:41.966Z</time></trkpt><trkpt lat="43.03453439472849" lon="10.603183598632205"><ele>20.0</ele><time>2026-05-03T10:36:42.966Z</time></trkpt><trkpt lat="43.03450174954418" lon="10.603435314130117"><ele>20.0</ele><time>2026-05-03T10:36:43.966Z</time></trkpt><trkpt lat="43.034474690715996" lon="10.603679950793092"><ele>20.0</ele><time>2026-05-03T10:36:44.966Z</time></trkpt><trkpt lat="43.03445520019837" lon="10.60390846634779"><ele>20.0</ele><time>2026-05-03T10:36:45.966Z</time></trkpt><trkpt lat="43.03443587546292" lon="10.60412280977449"><ele>20.0</ele><time>2026-05-03T10:36:46.966Z</time></trkpt><trkpt lat="43.03442456206109" lon="10.604322798310067"><ele>20.0</ele><time>2026-05-03T10:36:47.966Z</time></trkpt><trkpt lat="43.03443387987435" lon="10.604490396682017"><ele>20.0</ele><time>2026-05-03T10:36:48.966Z</time></trkpt><trkpt lat="43.034426983062666" lon="10.604598886787835"><ele>20.0</ele><time>2026-05-03T10:36:49.966Z</time></trkpt><trkpt lat="43.03427347521251" lon="10.604661237846239"><ele>20.0</ele><time>2026-05-03T10:36:51.966Z</time></trkpt><trkpt lat="43.03413692464127" lon="10.604669488855034"><ele>19.0</ele><time>2026-05-03T10:36:52.966Z</time></trkpt><trkpt lat="43.0339503868093" lon="10.604660772937452"><ele>18.0</ele><time>2026-05-03T10:36:53.966Z</time></trkpt><trkpt lat="43.03373842136185" lon="10.604660636294797"><ele>17.0</ele><time>2026-05-03T10:36:54.966Z</time></trkpt><trkpt lat="43.03352273772435" lon="10.6046791905674"><ele>17.0</ele><time>2026-05-03T10:36:55.966Z</time></trkpt><trkpt lat="43.03331733364497" lon="10.604686259381303"><ele>17.0</ele><time>2026-05-03T10:36:56.966Z</time></trkpt><trkpt lat="43.03313653364561" lon="10.604655734155289"><ele>17.0</ele><time>2026-05-03T10:36:57.966Z</time></trkpt><trkpt lat="43.03298211217677" lon="10.604607586909415"><ele>16.666666666666668</ele><time>2026-05-03T10:36:58.966Z</time></trkpt><trkpt lat="43.03283497410375" lon="10.604523110867573"><ele>16.333333333333332</ele><time>2026-05-03T10:36:59.966Z</time></trkpt><trkpt lat="43.032704828097444" lon="10.604411879475983"><ele>16.0</ele><time>2026-05-03T10:37:00.966Z</time></trkpt><trkpt lat="43.03257446071018" lon="10.604276992771926"><ele>15.333333333333332</ele><time>2026-05-03T10:37:01.966Z</time></trkpt><trkpt lat="43.03244141100592" lon="10.604148236100416"><ele>14.666666666666668</ele><time>2026-05-03T10:37:02.966Z</time></trkpt><trkpt lat="43.0323057426607" lon="10.604021303516285"><ele>14.0</ele><time>2026-05-03T10:37:03.966Z</time></trkpt><trkpt lat="43.03216949779343" lon="10.603907444958045"><ele>14.0</ele><time>2026-05-03T10:37:04.966Z</time></trkpt><trkpt lat="43.032035753103834" lon="10.603799381368077"><ele>14.0</ele><time>2026-05-03T10:37:05.966Z</time></trkpt><trkpt lat="43.031916827828724" lon="10.60369257415636"><ele>14.0</ele><time>2026-05-03T10:37:06.966Z</time></trkpt><trkpt lat="43.0318069027435" lon="10.603592174331391"><ele>14.0</ele><time>2026-05-03T10:37:07.966Z</time></trkpt><trkpt lat="43.03170557425458" lon="10.603498906358086"><ele>13.5</ele><time>2026-05-03T10:37:08.966Z</time></trkpt><trkpt lat="43.03160525152629" lon="10.60340075541149"><ele>13.0</ele><time>2026-05-03T10:37:09.966Z</time></trkpt><trkpt lat="43.0315060820673" lon="10.603288437257213"><ele>12.5</ele><time>2026-05-03T10:37:10.966Z</time></trkpt><trkpt lat="43.03140925432771" lon="10.60318234834646"><ele>12.0</ele><time>2026-05-03T10:37:11.966Z</time></trkpt><trkpt lat="43.03131727840806" lon="10.603087919403519"><ele>12.0</ele><time>2026-05-03T10:37:12.966Z</time></trkpt><trkpt lat="43.03123049586157" lon="10.603001994057763"><ele>12.0</ele><time>2026-05-03T10:37:13.966Z</time></trkpt><trkpt lat="43.03117504044321" lon="10.602934844696739"><ele>12.0</ele><time>2026-05-03T10:37:14.966Z</time></trkpt><trkpt lat="43.03109371585895" lon="10.602871244058397"><ele>12.0</ele><time>2026-05-03T10:37:15.966Z</time></trkpt><trkpt lat="43.03100530455741" lon="10.602807149068203"><ele>12.0</ele><time>2026-05-03T10:37:16.966Z</time></trkpt><trkpt lat="43.030908951185296" lon="10.602734136184264"><ele>12.25</ele><time>2026-05-03T10:37:17.966Z</time></trkpt><trkpt lat="43.03080835014291" lon="10.602662504515681"><ele>12.5</ele><time>2026-05-03T10:37:18.966Z</time></trkpt><trkpt lat="43.03068365544918" lon="10.602585749799767"><ele>12.75</ele><time>2026-05-03T10:37:19.966Z</time></trkpt><trkpt lat="43.030554436950226" lon="10.602515057190868"><ele>13.0</ele><time>2026-05-03T10:37:20.966Z</time></trkpt><trkpt lat="43.03039931477886" lon="10.60243068687117"><ele>13.0</ele><time>2026-05-03T10:37:21.966Z</time></trkpt><trkpt lat="43.03023470741314" lon="10.602339116854614"><ele>13.0</ele><time>2026-05-03T10:37:22.966Z</time></trkpt><trkpt lat="43.0300707166064" lon="10.602253896585895"><ele>13.0</ele><time>2026-05-03T10:37:23.966Z</time></trkpt><trkpt lat="43.02991490537048" lon="10.602142553032246"><ele>13.0</ele><time>2026-05-03T10:37:24.966Z</time></trkpt><trkpt lat="43.0297712760959" lon="10.60203675170003"><ele>13.0</ele><time>2026-05-03T10:37:25.966Z</time></trkpt><trkpt lat="43.02964259392668" lon="10.601933558790707"><ele>13.0</ele><time>2026-05-03T10:37:26.966Z</time></trkpt><trkpt lat="43.029528723688415" lon="10.601835896530442"><ele>13.0</ele><time>2026-05-03T10:37:27.966Z</time></trkpt><trkpt lat="43.02940354163828" lon="10.60172404898857"><ele>13.2</ele><time>2026-05-03T10:37:28.966Z</time></trkpt><trkpt lat="43.02929395735673" lon="10.601639825521586"><ele>13.4</ele><time>2026-05-03T10:37:29.966Z</time></trkpt><trkpt lat="43.02921067310339" lon="10.601594466032884"><ele>13.599999999999998</ele><time>2026-05-03T10:37:30.966Z</time></trkpt><trkpt lat="43.029154959986045" lon="10.60150841740549"><ele>13.799999999999999</ele><time>2026-05-03T10:37:32.966Z</time></trkpt><trkpt lat="43.02922820316146" lon="10.601369123393393"><ele>14.0</ele><time>2026-05-03T10:37:34.966Z</time></trkpt><trkpt lat="43.02928849691885" lon="10.60127825993113"><ele>14.000000000000002</ele><time>2026-05-03T10:37:35.966Z</time></trkpt><trkpt lat="43.02935303165874" lon="10.601197513838287"><ele>14.0</ele><time>2026-05-03T10:37:36.966Z</time></trkpt><trkpt lat="43.02942385732314" lon="10.6011115572543"><ele>14.0</ele><time>2026-05-03T10:37:37.966Z</time></trkpt><trkpt lat="43.029492255093736" lon="10.60102659883214"><ele>14.0</ele><time>2026-05-03T10:37:38.966Z</time></trkpt><trkpt lat="43.02956125628981" lon="10.600933656523962"><ele>14.000000000000002</ele><time>2026-05-03T10:37:39.966Z</time></trkpt><trkpt lat="43.02961088573719" lon="10.600859186037745"><ele>14.0</ele><time>2026-05-03T10:37:40.966Z</time></trkpt><trkpt lat="43.029613864760584" lon="10.600707537175168"><ele>14.0</ele><time>2026-05-03T10:37:42.966Z</time></trkpt><trkpt lat="43.02956187600949" lon="10.600621900697819"><ele>14.0</ele><time>2026-05-03T10:37:43.966Z</time></trkpt><trkpt lat="43.029478092446595" lon="10.600502201095543"><ele>14.0</ele><time>2026-05-03T10:37:44.966Z</time></trkpt><trkpt lat="43.02937831240849" lon="10.600376626876143"><ele>14.0</ele><time>2026-05-03T10:37:45.966Z</time></trkpt><trkpt lat="43.02929553590185" lon="10.600268850911606"><ele>14.0</ele><time>2026-05-03T10:37:46.966Z</time></trkpt><trkpt lat="43.02922960933522" lon="10.600179889762876"><ele>13.999999999999998</ele><time>2026-05-03T10:37:47.966Z</time></trkpt><trkpt lat="43.02915229298215" lon="10.600068472889111"><ele>13.999999999999998</ele><time>2026-05-03T10:37:48.966Z</time></trkpt><trkpt lat="43.029077862472356" lon="10.599947483039225"><ele>14.0</ele><time>2026-05-03T10:37:49.966Z</time></trkpt><trkpt lat="43.02900808758413" lon="10.599839932303576"><ele>14.0</ele><time>2026-05-03T10:37:50.966Z</time></trkpt><trkpt lat="43.02895647385734" lon="10.59977306223922"><ele>13.5</ele><time>2026-05-03T10:37:51.966Z</time></trkpt><trkpt lat="43.02887727982559" lon="10.599653358538879"><ele>13.0</ele><time>2026-05-03T10:37:53.966Z</time></trkpt><trkpt lat="43.028793920954634" lon="10.599501256687322"><ele>12.5</ele><time>2026-05-03T10:37:54.966Z</time></trkpt><trkpt lat="43.02870434879591" lon="10.599358133057418"><ele>12.0</ele><time>2026-05-03T10:37:55.966Z</time></trkpt><trkpt lat="43.02864403664734" lon="10.599272988787028"><ele>12.0</ele><time>2026-05-03T10:37:56.966Z</time></trkpt><trkpt lat="43.02864760987994" lon="10.599147412641328"><ele>12.0</ele><time>2026-05-03T10:38:02.966Z</time></trkpt><trkpt lat="43.028713562258055" lon="10.599059106118666"><ele>12.0</ele><time>2026-05-03T10:38:03.966Z</time></trkpt><trkpt lat="43.02878875330225" lon="10.598980927787608"><ele>12.0</ele><time>2026-05-03T10:38:04.965Z</time></trkpt><trkpt lat="43.02887593233547" lon="10.59889511185862"><ele>12.0</ele><time>2026-05-03T10:38:05.965Z</time></trkpt><trkpt lat="43.028968182668784" lon="10.598788157384323"><ele>12.0</ele><time>2026-05-03T10:38:06.965Z</time></trkpt><trkpt lat="43.02904699578209" lon="10.598672579246946"><ele>12.0</ele><time>2026-05-03T10:38:07.965Z</time></trkpt><trkpt lat="43.02912806550877" lon="10.598563254077055"><ele>12.0</ele><time>2026-05-03T10:38:08.965Z</time></trkpt><trkpt lat="43.02920978463391" lon="10.598468720916301"><ele>12.0</ele><time>2026-05-03T10:38:09.966Z</time></trkpt><trkpt lat="43.02928105952304" lon="10.59838752273845"><ele>12.0</ele><time>2026-05-03T10:38:10.966Z</time></trkpt><trkpt lat="43.029348923392746" lon="10.598313514522587"><ele>11.833333333333334</ele><time>2026-05-03T10:38:11.966Z</time></trkpt><trkpt lat="43.029413719700024" lon="10.598245864035835"><ele>11.666666666666666</ele><time>2026-05-03T10:38:12.965Z</time></trkpt><trkpt lat="43.02947878289768" lon="10.598185314681691"><ele>11.5</ele><time>2026-05-03T10:38:13.966Z</time></trkpt><trkpt lat="43.029544961357516" lon="10.598149232934446"><ele>11.333333333333332</ele><time>2026-05-03T10:38:14.966Z</time></trkpt><trkpt lat="43.029612230640566" lon="10.598158215347"><ele>11.166666666666666</ele><time>2026-05-03T10:38:15.966Z</time></trkpt><trkpt lat="43.02968949719062" lon="10.598233866494441"><ele>11.0</ele><time>2026-05-03T10:38:16.965Z</time></trkpt><trkpt lat="43.02975752667777" lon="10.598307935656045"><ele>11.0</ele><time>2026-05-03T10:38:17.965Z</time></trkpt><trkpt lat="43.02979764100357" lon="10.59837663882744"><ele>11.0</ele><time>2026-05-03T10:38:19.965Z</time></trkpt><trkpt lat="43.02984900219041" lon="10.598493282507949"><ele>11.0</ele><time>2026-05-03T10:38:21.965Z</time></trkpt><trkpt lat="43.029934258377004" lon="10.598575801045154"><ele>11.0</ele><time>2026-05-03T10:38:23.965Z</time></trkpt><trkpt lat="43.03004824532307" lon="10.598580867182934"><ele>11.0</ele><time>2026-05-03T10:38:25.965Z</time></trkpt><trkpt lat="43.03013370035098" lon="10.598568484072095"><ele>11.5</ele><time>2026-05-03T10:38:27.965Z</time></trkpt><trkpt lat="43.030244926624825" lon="10.598633854956097"><ele>12.0</ele><time>2026-05-03T10:38:29.965Z</time></trkpt><trkpt lat="43.030343888582145" lon="10.598702829002779"><ele>12.5</ele><time>2026-05-03T10:38:30.965Z</time></trkpt><trkpt lat="43.030487612995096" lon="10.598832862677751"><ele>13.0</ele><time>2026-05-03T10:38:31.965Z</time></trkpt><trkpt lat="43.03061469393455" lon="10.598967997781893"><ele>13.0</ele><time>2026-05-03T10:38:32.965Z</time></trkpt><trkpt lat="43.03070674702259" lon="10.599107472984223"><ele>13.0</ele><time>2026-05-03T10:38:33.965Z</time></trkpt><trkpt lat="43.030767879802895" lon="10.599241805889298"><ele>13.0</ele><time>2026-05-03T10:38:34.965Z</time></trkpt><trkpt lat="43.03080767347871" lon="10.599353388518503"><ele>13.0</ele><time>2026-05-03T10:38:35.965Z</time></trkpt><trkpt lat="43.03087336387969" lon="10.599388661776704"><ele>13.0</ele><time>2026-05-03T10:38:37.965Z</time></trkpt><trkpt lat="43.03096712479234" lon="10.599256281237086"><ele>13.0</ele><time>2026-05-03T10:38:39.965Z</time></trkpt><trkpt lat="43.03105314712759" lon="10.59911259716551"><ele>13.0</ele><time>2026-05-03T10:38:40.965Z</time></trkpt><trkpt lat="43.03118300179487" lon="10.598930835106701"><ele>13.0</ele><time>2026-05-03T10:38:41.965Z</time></trkpt><trkpt lat="43.03133656320143" lon="10.598749159070435"><ele>13.0</ele><time>2026-05-03T10:38:42.965Z</time></trkpt><trkpt lat="43.0314950396327" lon="10.598554638738852"><ele>13.0</ele><time>2026-05-03T10:38:43.965Z</time></trkpt><trkpt lat="43.03162424575829" lon="10.5983895726449"><ele>13.0</ele><time>2026-05-03T10:38:44.965Z</time></trkpt><trkpt lat="43.03172696301838" lon="10.598269872507352"><ele>13.2</ele><time>2026-05-03T10:38:45.965Z</time></trkpt><trkpt lat="43.03181424290252" lon="10.598203747586467"><ele>13.4</ele><time>2026-05-03T10:38:46.965Z</time></trkpt><trkpt lat="43.03190667556065" lon="10.598165271367769"><ele>13.599999999999998</ele><time>2026-05-03T10:38:47.965Z</time></trkpt><trkpt lat="43.03197994879381" lon="10.598144919027128"><ele>13.799999999999999</ele><time>2026-05-03T10:38:48.965Z</time></trkpt><trkpt lat="43.032052058248944" lon="10.598130021510688"><ele>14.0</ele><time>2026-05-03T10:38:49.965Z</time></trkpt><trkpt lat="43.03207372830301" lon="10.597969143526772"><ele>14.0</ele><time>2026-05-03T10:38:51.965Z</time></trkpt><trkpt lat="43.0320655057912" lon="10.597861717685339"><ele>14.0</ele><time>2026-05-03T10:38:52.966Z</time></trkpt><trkpt lat="43.03201467085627" lon="10.597720207614953"><ele>14.0</ele><time>2026-05-03T10:38:54.966Z</time></trkpt><trkpt lat="43.03194542098108" lon="10.597592861260813"><ele>14.0</ele><time>2026-05-03T10:38:55.966Z</time></trkpt><trkpt lat="43.031838398717824" lon="10.597430139785043"><ele>13.833333333333334</ele><time>2026-05-03T10:38:56.966Z</time></trkpt><trkpt lat="43.03172307586898" lon="10.597292621615281"><ele>13.666666666666668</ele><time>2026-05-03T10:38:57.966Z</time></trkpt><trkpt lat="43.031681900838514" lon="10.597207386657878"><ele>13.5</ele><time>2026-05-03T10:38:58.966Z</time></trkpt><trkpt lat="43.03173040521233" lon="10.59714724182698"><ele>13.333333333333332</ele><time>2026-05-03T10:39:00.966Z</time></trkpt><trkpt lat="43.03179502528603" lon="10.597119641387755"><ele>13.166666666666666</ele><time>2026-05-03T10:39:08.966Z</time></trkpt><trkpt lat="43.03185395121482" lon="10.59705787352665"><ele>13.0</ele><time>2026-05-03T10:39:11.966Z</time></trkpt><trkpt lat="43.03190206711144" lon="10.597171080286564"><ele>13.0</ele><time>2026-05-03T10:49:33.967Z</time></trkpt></trkseg></trk></gpx>